<?xml version="1.0" encoding="UTF-8" standalone="no" ?>
<gpx xmlns="http://www.topografix.com/GPX/1/1" xmlns:xsi="http://www.w3.org/2001/XMLSchema-instance" xsi:schemaLocation="http://www.topografix.com/GPX/1/1 http://www.topografix.com/GPX/1/1/gpx.xsd" version="1.1" creator="VisuGPX - https://www.visugpx.com">
  <metadata>
    <name>Caunes Minervois 24 04 2013</name>
    <desc><![CDATA[
]]></desc>
  </metadata>
  <trk>
    <name><![CDATA[Caunes Minervois 24 04 2013]]></name>
    <trkseg>
      <trkpt lat="43.32685" lon="2.52503">
        <ele>189.4</ele>
        <time>2013-04-24T07:52:35Z</time>
      </trkpt>
      <trkpt lat="43.32686" lon="2.52503">
        <ele>189.4</ele>
        <time>2013-04-24T07:52:36Z</time>
      </trkpt>
      <trkpt lat="43.32671" lon="2.52502">
        <ele>189.1</ele>
        <time>2013-04-24T07:52:45Z</time>
      </trkpt>
      <trkpt lat="43.32678" lon="2.52504">
        <ele>189.3</ele>
        <time>2013-04-24T07:52:51Z</time>
      </trkpt>
      <trkpt lat="43.32686" lon="2.52511">
        <ele>189.8</ele>
        <time>2013-04-24T07:53:08Z</time>
      </trkpt>
      <trkpt lat="43.32687" lon="2.52541">
        <ele>191.4</ele>
        <time>2013-04-24T07:53:37Z</time>
      </trkpt>
      <trkpt lat="43.32687" lon="2.52541">
        <ele>191.4</ele>
        <time>2013-04-24T07:53:40Z</time>
      </trkpt>
      <trkpt lat="43.32678" lon="2.52537">
        <ele>191</ele>
        <time>2013-04-24T07:56:32Z</time>
      </trkpt>
      <trkpt lat="43.32676" lon="2.52529">
        <ele>190.6</ele>
        <time>2013-04-24T08:02:35Z</time>
      </trkpt>
      <trkpt lat="43.32677" lon="2.52529">
        <ele>190.6</ele>
        <time>2013-04-24T08:02:36Z</time>
      </trkpt>
      <trkpt lat="43.32693" lon="2.52526">
        <ele>190.7</ele>
        <time>2013-04-24T08:02:52Z</time>
      </trkpt>
      <trkpt lat="43.327" lon="2.52521">
        <ele>190.6</ele>
        <time>2013-04-24T08:02:59Z</time>
      </trkpt>
      <trkpt lat="43.32708" lon="2.52518">
        <ele>190.5</ele>
        <time>2013-04-24T08:03:07Z</time>
      </trkpt>
      <trkpt lat="43.32716" lon="2.52514">
        <ele>190.4</ele>
        <time>2013-04-24T08:03:24Z</time>
      </trkpt>
      <trkpt lat="43.32723" lon="2.52508">
        <ele>190.2</ele>
        <time>2013-04-24T08:03:36Z</time>
      </trkpt>
      <trkpt lat="43.32724" lon="2.52508">
        <ele>190.2</ele>
        <time>2013-04-24T08:03:37Z</time>
      </trkpt>
      <trkpt lat="43.32733" lon="2.52527">
        <ele>191.6</ele>
        <time>2013-04-24T08:03:49Z</time>
      </trkpt>
      <trkpt lat="43.32737" lon="2.52537">
        <ele>192.3</ele>
        <time>2013-04-24T08:03:56Z</time>
      </trkpt>
      <trkpt lat="43.32743" lon="2.52545">
        <ele>193.1</ele>
        <time>2013-04-24T08:04:07Z</time>
      </trkpt>
      <trkpt lat="43.32745" lon="2.52557">
        <ele>193.9</ele>
        <time>2013-04-24T08:04:17Z</time>
      </trkpt>
      <trkpt lat="43.32747" lon="2.52568">
        <ele>194.8</ele>
        <time>2013-04-24T08:04:25Z</time>
      </trkpt>
      <trkpt lat="43.3275" lon="2.5258">
        <ele>195.7</ele>
        <time>2013-04-24T08:04:33Z</time>
      </trkpt>
      <trkpt lat="43.32754" lon="2.5259">
        <ele>197.2</ele>
        <time>2013-04-24T08:04:42Z</time>
      </trkpt>
      <trkpt lat="43.32754" lon="2.52591">
        <ele>197.3</ele>
        <time>2013-04-24T08:04:43Z</time>
      </trkpt>
      <trkpt lat="43.32761" lon="2.52612">
        <ele>200</ele>
        <time>2013-04-24T08:05:09Z</time>
      </trkpt>
      <trkpt lat="43.32764" lon="2.52624">
        <ele>201.3</ele>
        <time>2013-04-24T08:05:20Z</time>
      </trkpt>
      <trkpt lat="43.32767" lon="2.52635">
        <ele>202.7</ele>
        <time>2013-04-24T08:05:28Z</time>
      </trkpt>
      <trkpt lat="43.32769" lon="2.52647">
        <ele>203.9</ele>
        <time>2013-04-24T08:05:37Z</time>
      </trkpt>
      <trkpt lat="43.32774" lon="2.52656">
        <ele>205.3</ele>
        <time>2013-04-24T08:05:46Z</time>
      </trkpt>
      <trkpt lat="43.32775" lon="2.52657">
        <ele>205.5</ele>
        <time>2013-04-24T08:05:47Z</time>
      </trkpt>
      <trkpt lat="43.32779" lon="2.52678">
        <ele>207</ele>
        <time>2013-04-24T08:06:06Z</time>
      </trkpt>
      <trkpt lat="43.32781" lon="2.52688">
        <ele>207.3</ele>
        <time>2013-04-24T08:06:15Z</time>
      </trkpt>
      <trkpt lat="43.32784" lon="2.52699">
        <ele>207.8</ele>
        <time>2013-04-24T08:06:23Z</time>
      </trkpt>
      <trkpt lat="43.3279" lon="2.52708">
        <ele>208.5</ele>
        <time>2013-04-24T08:06:29Z</time>
      </trkpt>
      <trkpt lat="43.3279" lon="2.5272">
        <ele>208.6</ele>
        <time>2013-04-24T08:06:37Z</time>
      </trkpt>
      <trkpt lat="43.32789" lon="2.52731">
        <ele>208.6</ele>
        <time>2013-04-24T08:06:45Z</time>
      </trkpt>
      <trkpt lat="43.3279" lon="2.52743">
        <ele>208.8</ele>
        <time>2013-04-24T08:06:52Z</time>
      </trkpt>
      <trkpt lat="43.3279" lon="2.52745">
        <ele>208.8</ele>
        <time>2013-04-24T08:06:53Z</time>
      </trkpt>
      <trkpt lat="43.32791" lon="2.52767">
        <ele>209.8</ele>
        <time>2013-04-24T08:07:10Z</time>
      </trkpt>
      <trkpt lat="43.32793" lon="2.52778">
        <ele>210.5</ele>
        <time>2013-04-24T08:07:21Z</time>
      </trkpt>
      <trkpt lat="43.32793" lon="2.52789">
        <ele>211.2</ele>
        <time>2013-04-24T08:07:28Z</time>
      </trkpt>
      <trkpt lat="43.32793" lon="2.528">
        <ele>211.8</ele>
        <time>2013-04-24T08:07:36Z</time>
      </trkpt>
      <trkpt lat="43.32789" lon="2.52811">
        <ele>212</ele>
        <time>2013-04-24T08:07:43Z</time>
      </trkpt>
      <trkpt lat="43.32788" lon="2.52823">
        <ele>212.5</ele>
        <time>2013-04-24T08:07:52Z</time>
      </trkpt>
      <trkpt lat="43.32786" lon="2.52833">
        <ele>212.8</ele>
        <time>2013-04-24T08:08:01Z</time>
      </trkpt>
      <trkpt lat="43.32784" lon="2.52836">
        <ele>213</ele>
        <time>2013-04-24T08:08:02Z</time>
      </trkpt>
      <trkpt lat="43.32781" lon="2.52855">
        <ele>215.6</ele>
        <time>2013-04-24T08:08:14Z</time>
      </trkpt>
      <trkpt lat="43.3278" lon="2.52866">
        <ele>217.3</ele>
        <time>2013-04-24T08:08:21Z</time>
      </trkpt>
      <trkpt lat="43.3278" lon="2.52878">
        <ele>219.1</ele>
        <time>2013-04-24T08:08:29Z</time>
      </trkpt>
      <trkpt lat="43.32778" lon="2.52888">
        <ele>220.4</ele>
        <time>2013-04-24T08:08:35Z</time>
      </trkpt>
      <trkpt lat="43.32777" lon="2.52899">
        <ele>222.1</ele>
        <time>2013-04-24T08:08:44Z</time>
      </trkpt>
      <trkpt lat="43.32776" lon="2.52911">
        <ele>223.8</ele>
        <time>2013-04-24T08:08:54Z</time>
      </trkpt>
      <trkpt lat="43.32775" lon="2.52922">
        <ele>224.5</ele>
        <time>2013-04-24T08:09:01Z</time>
      </trkpt>
      <trkpt lat="43.32773" lon="2.52934">
        <ele>224.2</ele>
        <time>2013-04-24T08:09:08Z</time>
      </trkpt>
      <trkpt lat="43.32772" lon="2.52936">
        <ele>224.2</ele>
        <time>2013-04-24T08:09:09Z</time>
      </trkpt>
      <trkpt lat="43.3277" lon="2.52956">
        <ele>223.8</ele>
        <time>2013-04-24T08:09:23Z</time>
      </trkpt>
      <trkpt lat="43.32769" lon="2.52968">
        <ele>223.6</ele>
        <time>2013-04-24T08:09:31Z</time>
      </trkpt>
      <trkpt lat="43.32769" lon="2.52979">
        <ele>223.6</ele>
        <time>2013-04-24T08:09:38Z</time>
      </trkpt>
      <trkpt lat="43.32771" lon="2.5299">
        <ele>223.8</ele>
        <time>2013-04-24T08:09:47Z</time>
      </trkpt>
      <trkpt lat="43.32775" lon="2.52999">
        <ele>224.1</ele>
        <time>2013-04-24T08:09:55Z</time>
      </trkpt>
      <trkpt lat="43.3278" lon="2.53009">
        <ele>223.9</ele>
        <time>2013-04-24T08:10:02Z</time>
      </trkpt>
      <trkpt lat="43.32782" lon="2.5302">
        <ele>223.3</ele>
        <time>2013-04-24T08:10:07Z</time>
      </trkpt>
      <trkpt lat="43.32788" lon="2.53029">
        <ele>223.1</ele>
        <time>2013-04-24T08:10:17Z</time>
      </trkpt>
      <trkpt lat="43.32789" lon="2.53029">
        <ele>223.1</ele>
        <time>2013-04-24T08:10:18Z</time>
      </trkpt>
      <trkpt lat="43.328" lon="2.53046">
        <ele>222.3</ele>
        <time>2013-04-24T08:10:34Z</time>
      </trkpt>
      <trkpt lat="43.32805" lon="2.53055">
        <ele>221.8</ele>
        <time>2013-04-24T08:10:41Z</time>
      </trkpt>
      <trkpt lat="43.3281" lon="2.53065">
        <ele>221.1</ele>
        <time>2013-04-24T08:10:49Z</time>
      </trkpt>
      <trkpt lat="43.32815" lon="2.53074">
        <ele>220.5</ele>
        <time>2013-04-24T08:10:56Z</time>
      </trkpt>
      <trkpt lat="43.32822" lon="2.53081">
        <ele>220</ele>
        <time>2013-04-24T08:11:04Z</time>
      </trkpt>
      <trkpt lat="43.32828" lon="2.53088">
        <ele>219.7</ele>
        <time>2013-04-24T08:11:10Z</time>
      </trkpt>
      <trkpt lat="43.32836" lon="2.53092">
        <ele>220</ele>
        <time>2013-04-24T08:11:17Z</time>
      </trkpt>
      <trkpt lat="43.32844" lon="2.53092">
        <ele>221.1</ele>
        <time>2013-04-24T08:11:24Z</time>
      </trkpt>
      <trkpt lat="43.32846" lon="2.53092">
        <ele>221.3</ele>
        <time>2013-04-24T08:11:25Z</time>
      </trkpt>
      <trkpt lat="43.32859" lon="2.53085">
        <ele>223.1</ele>
        <time>2013-04-24T08:11:37Z</time>
      </trkpt>
      <trkpt lat="43.32866" lon="2.53078">
        <ele>224.3</ele>
        <time>2013-04-24T08:11:44Z</time>
      </trkpt>
      <trkpt lat="43.32872" lon="2.53071">
        <ele>225.4</ele>
        <time>2013-04-24T08:11:50Z</time>
      </trkpt>
      <trkpt lat="43.32877" lon="2.5306">
        <ele>226.4</ele>
        <time>2013-04-24T08:11:59Z</time>
      </trkpt>
      <trkpt lat="43.32883" lon="2.53053">
        <ele>227.3</ele>
        <time>2013-04-24T08:12:06Z</time>
      </trkpt>
      <trkpt lat="43.32891" lon="2.53047">
        <ele>228.1</ele>
        <time>2013-04-24T08:12:12Z</time>
      </trkpt>
      <trkpt lat="43.32897" lon="2.5304">
        <ele>228.7</ele>
        <time>2013-04-24T08:12:18Z</time>
      </trkpt>
      <trkpt lat="43.32902" lon="2.53032">
        <ele>229.3</ele>
        <time>2013-04-24T08:12:26Z</time>
      </trkpt>
      <trkpt lat="43.32903" lon="2.53031">
        <ele>229.3</ele>
        <time>2013-04-24T08:12:27Z</time>
      </trkpt>
      <trkpt lat="43.32915" lon="2.53019">
        <ele>229.9</ele>
        <time>2013-04-24T08:12:39Z</time>
      </trkpt>
      <trkpt lat="43.32922" lon="2.53012">
        <ele>231</ele>
        <time>2013-04-24T08:12:46Z</time>
      </trkpt>
      <trkpt lat="43.32928" lon="2.53004">
        <ele>232.1</ele>
        <time>2013-04-24T08:12:53Z</time>
      </trkpt>
      <trkpt lat="43.32935" lon="2.52998">
        <ele>233.4</ele>
        <time>2013-04-24T08:13:00Z</time>
      </trkpt>
      <trkpt lat="43.32941" lon="2.5299">
        <ele>235</ele>
        <time>2013-04-24T08:13:07Z</time>
      </trkpt>
      <trkpt lat="43.32947" lon="2.52981">
        <ele>236.5</ele>
        <time>2013-04-24T08:13:14Z</time>
      </trkpt>
      <trkpt lat="43.32954" lon="2.52973">
        <ele>237.8</ele>
        <time>2013-04-24T08:13:22Z</time>
      </trkpt>
      <trkpt lat="43.3296" lon="2.52965">
        <ele>239</ele>
        <time>2013-04-24T08:13:29Z</time>
      </trkpt>
      <trkpt lat="43.3296" lon="2.52964">
        <ele>239.1</ele>
        <time>2013-04-24T08:13:30Z</time>
      </trkpt>
      <trkpt lat="43.32973" lon="2.52949">
        <ele>241.1</ele>
        <time>2013-04-24T08:13:44Z</time>
      </trkpt>
      <trkpt lat="43.3298" lon="2.52942">
        <ele>242</ele>
        <time>2013-04-24T08:13:52Z</time>
      </trkpt>
      <trkpt lat="43.32986" lon="2.52934">
        <ele>242.8</ele>
        <time>2013-04-24T08:14:00Z</time>
      </trkpt>
      <trkpt lat="43.32993" lon="2.52926">
        <ele>243.4</ele>
        <time>2013-04-24T08:14:10Z</time>
      </trkpt>
      <trkpt lat="43.32999" lon="2.5292">
        <ele>244</ele>
        <time>2013-04-24T08:14:16Z</time>
      </trkpt>
      <trkpt lat="43.33006" lon="2.52914">
        <ele>245.4</ele>
        <time>2013-04-24T08:14:22Z</time>
      </trkpt>
      <trkpt lat="43.33014" lon="2.52909">
        <ele>247.1</ele>
        <time>2013-04-24T08:14:29Z</time>
      </trkpt>
      <trkpt lat="43.33021" lon="2.52904">
        <ele>248.7</ele>
        <time>2013-04-24T08:14:37Z</time>
      </trkpt>
      <trkpt lat="43.33022" lon="2.52903">
        <ele>248.9</ele>
        <time>2013-04-24T08:14:38Z</time>
      </trkpt>
      <trkpt lat="43.33036" lon="2.52894">
        <ele>251.9</ele>
        <time>2013-04-24T08:14:52Z</time>
      </trkpt>
      <trkpt lat="43.33044" lon="2.52891">
        <ele>253.6</ele>
        <time>2013-04-24T08:15:00Z</time>
      </trkpt>
      <trkpt lat="43.33052" lon="2.52891">
        <ele>255</ele>
        <time>2013-04-24T08:15:07Z</time>
      </trkpt>
      <trkpt lat="43.3306" lon="2.52891">
        <ele>256.4</ele>
        <time>2013-04-24T08:15:13Z</time>
      </trkpt>
      <trkpt lat="43.33069" lon="2.52894">
        <ele>257.9</ele>
        <time>2013-04-24T08:15:20Z</time>
      </trkpt>
      <trkpt lat="43.33076" lon="2.52895">
        <ele>259.3</ele>
        <time>2013-04-24T08:15:27Z</time>
      </trkpt>
      <trkpt lat="43.33085" lon="2.52897">
        <ele>260.7</ele>
        <time>2013-04-24T08:15:35Z</time>
      </trkpt>
      <trkpt lat="43.33092" lon="2.52901">
        <ele>261.9</ele>
        <time>2013-04-24T08:15:42Z</time>
      </trkpt>
      <trkpt lat="43.33094" lon="2.52902">
        <ele>262.2</ele>
        <time>2013-04-24T08:15:43Z</time>
      </trkpt>
      <trkpt lat="43.33104" lon="2.52916">
        <ele>263.8</ele>
        <time>2013-04-24T08:15:55Z</time>
      </trkpt>
      <trkpt lat="43.3311" lon="2.52926">
        <ele>265</ele>
        <time>2013-04-24T08:16:02Z</time>
      </trkpt>
      <trkpt lat="43.33114" lon="2.52935">
        <ele>265.9</ele>
        <time>2013-04-24T08:16:08Z</time>
      </trkpt>
      <trkpt lat="43.33117" lon="2.52946">
        <ele>266.7</ele>
        <time>2013-04-24T08:16:14Z</time>
      </trkpt>
      <trkpt lat="43.33116" lon="2.52957">
        <ele>266.8</ele>
        <time>2013-04-24T08:16:20Z</time>
      </trkpt>
      <trkpt lat="43.33113" lon="2.52968">
        <ele>266.6</ele>
        <time>2013-04-24T08:16:27Z</time>
      </trkpt>
      <trkpt lat="43.33109" lon="2.52978">
        <ele>266</ele>
        <time>2013-04-24T08:16:34Z</time>
      </trkpt>
      <trkpt lat="43.33105" lon="2.52988">
        <ele>265.6</ele>
        <time>2013-04-24T08:16:40Z</time>
      </trkpt>
      <trkpt lat="43.33101" lon="2.52998">
        <ele>265.1</ele>
        <time>2013-04-24T08:16:47Z</time>
      </trkpt>
      <trkpt lat="43.331" lon="2.53">
        <ele>265.1</ele>
        <time>2013-04-24T08:16:48Z</time>
      </trkpt>
      <trkpt lat="43.33095" lon="2.53019">
        <ele>264.9</ele>
        <time>2013-04-24T08:17:01Z</time>
      </trkpt>
      <trkpt lat="43.33091" lon="2.5303">
        <ele>264.7</ele>
        <time>2013-04-24T08:17:08Z</time>
      </trkpt>
      <trkpt lat="43.33087" lon="2.5304">
        <ele>264.5</ele>
        <time>2013-04-24T08:17:15Z</time>
      </trkpt>
      <trkpt lat="43.33085" lon="2.53051">
        <ele>264.6</ele>
        <time>2013-04-24T08:17:22Z</time>
      </trkpt>
      <trkpt lat="43.33081" lon="2.53061">
        <ele>264.5</ele>
        <time>2013-04-24T08:17:29Z</time>
      </trkpt>
      <trkpt lat="43.33078" lon="2.53072">
        <ele>264.5</ele>
        <time>2013-04-24T08:17:36Z</time>
      </trkpt>
      <trkpt lat="43.33076" lon="2.53083">
        <ele>264.7</ele>
        <time>2013-04-24T08:17:43Z</time>
      </trkpt>
      <trkpt lat="43.33073" lon="2.53093">
        <ele>264.6</ele>
        <time>2013-04-24T08:17:50Z</time>
      </trkpt>
      <trkpt lat="43.33073" lon="2.53095">
        <ele>264.6</ele>
        <time>2013-04-24T08:17:51Z</time>
      </trkpt>
      <trkpt lat="43.33068" lon="2.53115">
        <ele>264.6</ele>
        <time>2013-04-24T08:18:04Z</time>
      </trkpt>
      <trkpt lat="43.33071" lon="2.53127">
        <ele>265.4</ele>
        <time>2013-04-24T08:18:17Z</time>
      </trkpt>
      <trkpt lat="43.33073" lon="2.53138">
        <ele>266.2</ele>
        <time>2013-04-24T08:18:23Z</time>
      </trkpt>
      <trkpt lat="43.33074" lon="2.53149">
        <ele>266.7</ele>
        <time>2013-04-24T08:18:30Z</time>
      </trkpt>
      <trkpt lat="43.33074" lon="2.5316">
        <ele>267.2</ele>
        <time>2013-04-24T08:18:37Z</time>
      </trkpt>
      <trkpt lat="43.33074" lon="2.53172">
        <ele>267.3</ele>
        <time>2013-04-24T08:18:43Z</time>
      </trkpt>
      <trkpt lat="43.33075" lon="2.53183">
        <ele>267.2</ele>
        <time>2013-04-24T08:18:50Z</time>
      </trkpt>
      <trkpt lat="43.33076" lon="2.53194">
        <ele>267.2</ele>
        <time>2013-04-24T08:18:57Z</time>
      </trkpt>
      <trkpt lat="43.33076" lon="2.53196">
        <ele>267.1</ele>
        <time>2013-04-24T08:18:58Z</time>
      </trkpt>
      <trkpt lat="43.33079" lon="2.53216">
        <ele>267.1</ele>
        <time>2013-04-24T08:19:10Z</time>
      </trkpt>
      <trkpt lat="43.3308" lon="2.53227">
        <ele>267.1</ele>
        <time>2013-04-24T08:19:16Z</time>
      </trkpt>
      <trkpt lat="43.33082" lon="2.53239">
        <ele>267.1</ele>
        <time>2013-04-24T08:19:23Z</time>
      </trkpt>
      <trkpt lat="43.33084" lon="2.53249">
        <ele>267.1</ele>
        <time>2013-04-24T08:19:29Z</time>
      </trkpt>
      <trkpt lat="43.33089" lon="2.53259">
        <ele>267.2</ele>
        <time>2013-04-24T08:19:36Z</time>
      </trkpt>
      <trkpt lat="43.33093" lon="2.5327">
        <ele>267.2</ele>
        <time>2013-04-24T08:19:43Z</time>
      </trkpt>
      <trkpt lat="43.33098" lon="2.53279">
        <ele>267.4</ele>
        <time>2013-04-24T08:19:50Z</time>
      </trkpt>
      <trkpt lat="43.33104" lon="2.53287">
        <ele>267.7</ele>
        <time>2013-04-24T08:19:59Z</time>
      </trkpt>
      <trkpt lat="43.33105" lon="2.53288">
        <ele>267.7</ele>
        <time>2013-04-24T08:20:00Z</time>
      </trkpt>
      <trkpt lat="43.33117" lon="2.53304">
        <ele>268.5</ele>
        <time>2013-04-24T08:20:16Z</time>
      </trkpt>
      <trkpt lat="43.33123" lon="2.53311">
        <ele>269</ele>
        <time>2013-04-24T08:20:24Z</time>
      </trkpt>
      <trkpt lat="43.3313" lon="2.53318">
        <ele>269.5</ele>
        <time>2013-04-24T08:20:31Z</time>
      </trkpt>
      <trkpt lat="43.33137" lon="2.53322">
        <ele>270.2</ele>
        <time>2013-04-24T08:20:43Z</time>
      </trkpt>
      <trkpt lat="43.3313" lon="2.53315">
        <ele>269.6</ele>
        <time>2013-04-24T08:23:13Z</time>
      </trkpt>
      <trkpt lat="43.33129" lon="2.53314">
        <ele>269.5</ele>
        <time>2013-04-24T08:23:14Z</time>
      </trkpt>
      <trkpt lat="43.33114" lon="2.53313">
        <ele>268.2</ele>
        <time>2013-04-24T08:23:28Z</time>
      </trkpt>
      <trkpt lat="43.33107" lon="2.53309">
        <ele>267.6</ele>
        <time>2013-04-24T08:23:36Z</time>
      </trkpt>
      <trkpt lat="43.33115" lon="2.5331">
        <ele>268.3</ele>
        <time>2013-04-24T08:24:18Z</time>
      </trkpt>
      <trkpt lat="43.33116" lon="2.53311">
        <ele>268.4</ele>
        <time>2013-04-24T08:24:19Z</time>
      </trkpt>
      <trkpt lat="43.33128" lon="2.53323">
        <ele>269.3</ele>
        <time>2013-04-24T08:24:30Z</time>
      </trkpt>
      <trkpt lat="43.33136" lon="2.53327">
        <ele>270.1</ele>
        <time>2013-04-24T08:24:37Z</time>
      </trkpt>
      <trkpt lat="43.33145" lon="2.5333">
        <ele>270.9</ele>
        <time>2013-04-24T08:24:43Z</time>
      </trkpt>
      <trkpt lat="43.33153" lon="2.53328">
        <ele>271.7</ele>
        <time>2013-04-24T08:24:48Z</time>
      </trkpt>
      <trkpt lat="43.33161" lon="2.53326">
        <ele>272.4</ele>
        <time>2013-04-24T08:24:53Z</time>
      </trkpt>
      <trkpt lat="43.3317" lon="2.53325">
        <ele>273.3</ele>
        <time>2013-04-24T08:25:00Z</time>
      </trkpt>
      <trkpt lat="43.33178" lon="2.53324">
        <ele>274.5</ele>
        <time>2013-04-24T08:25:06Z</time>
      </trkpt>
      <trkpt lat="43.33187" lon="2.53325">
        <ele>275.7</ele>
        <time>2013-04-24T08:25:13Z</time>
      </trkpt>
      <trkpt lat="43.33188" lon="2.53335">
        <ele>276.2</ele>
        <time>2013-04-24T08:25:19Z</time>
      </trkpt>
      <trkpt lat="43.33186" lon="2.53346">
        <ele>276.5</ele>
        <time>2013-04-24T08:25:24Z</time>
      </trkpt>
      <trkpt lat="43.33186" lon="2.53348">
        <ele>276.5</ele>
        <time>2013-04-24T08:25:25Z</time>
      </trkpt>
      <trkpt lat="43.33182" lon="2.53369">
        <ele>277</ele>
        <time>2013-04-24T08:25:36Z</time>
      </trkpt>
      <trkpt lat="43.33181" lon="2.53381">
        <ele>277.3</ele>
        <time>2013-04-24T08:25:43Z</time>
      </trkpt>
      <trkpt lat="43.33178" lon="2.53392">
        <ele>277.5</ele>
        <time>2013-04-24T08:25:49Z</time>
      </trkpt>
      <trkpt lat="43.33178" lon="2.53403">
        <ele>278.1</ele>
        <time>2013-04-24T08:25:57Z</time>
      </trkpt>
      <trkpt lat="43.33178" lon="2.53413">
        <ele>278.6</ele>
        <time>2013-04-24T08:26:04Z</time>
      </trkpt>
      <trkpt lat="43.3318" lon="2.53424">
        <ele>279.1</ele>
        <time>2013-04-24T08:26:10Z</time>
      </trkpt>
      <trkpt lat="43.33183" lon="2.53435">
        <ele>279.5</ele>
        <time>2013-04-24T08:26:16Z</time>
      </trkpt>
      <trkpt lat="43.33187" lon="2.53445">
        <ele>280.2</ele>
        <time>2013-04-24T08:26:23Z</time>
      </trkpt>
      <trkpt lat="43.33191" lon="2.53455">
        <ele>280.7</ele>
        <time>2013-04-24T08:26:30Z</time>
      </trkpt>
      <trkpt lat="43.33192" lon="2.53456">
        <ele>280.8</ele>
        <time>2013-04-24T08:26:31Z</time>
      </trkpt>
      <trkpt lat="43.33203" lon="2.53472">
        <ele>282.4</ele>
        <time>2013-04-24T08:26:53Z</time>
      </trkpt>
      <trkpt lat="43.33207" lon="2.53483">
        <ele>282.9</ele>
        <time>2013-04-24T08:27:01Z</time>
      </trkpt>
      <trkpt lat="43.33214" lon="2.5349">
        <ele>283.9</ele>
        <time>2013-04-24T08:27:08Z</time>
      </trkpt>
      <trkpt lat="43.3322" lon="2.53496">
        <ele>284.8</ele>
        <time>2013-04-24T08:27:14Z</time>
      </trkpt>
      <trkpt lat="43.33227" lon="2.53503">
        <ele>285.6</ele>
        <time>2013-04-24T08:27:21Z</time>
      </trkpt>
      <trkpt lat="43.33234" lon="2.53511">
        <ele>286.3</ele>
        <time>2013-04-24T08:27:28Z</time>
      </trkpt>
      <trkpt lat="43.3324" lon="2.53517">
        <ele>287.1</ele>
        <time>2013-04-24T08:27:34Z</time>
      </trkpt>
      <trkpt lat="43.33242" lon="2.53517">
        <ele>287.3</ele>
        <time>2013-04-24T08:27:35Z</time>
      </trkpt>
      <trkpt lat="43.33255" lon="2.53528">
        <ele>288.9</ele>
        <time>2013-04-24T08:27:49Z</time>
      </trkpt>
      <trkpt lat="43.33263" lon="2.53532">
        <ele>290</ele>
        <time>2013-04-24T08:27:58Z</time>
      </trkpt>
      <trkpt lat="43.33271" lon="2.53533">
        <ele>291.2</ele>
        <time>2013-04-24T08:28:08Z</time>
      </trkpt>
      <trkpt lat="43.33279" lon="2.53532">
        <ele>292.6</ele>
        <time>2013-04-24T08:28:14Z</time>
      </trkpt>
      <trkpt lat="43.33288" lon="2.53532">
        <ele>294</ele>
        <time>2013-04-24T08:28:21Z</time>
      </trkpt>
      <trkpt lat="43.33296" lon="2.53537">
        <ele>295.2</ele>
        <time>2013-04-24T08:28:29Z</time>
      </trkpt>
      <trkpt lat="43.33301" lon="2.53545">
        <ele>296</ele>
        <time>2013-04-24T08:28:35Z</time>
      </trkpt>
      <trkpt lat="43.33302" lon="2.53547">
        <ele>296.1</ele>
        <time>2013-04-24T08:28:36Z</time>
      </trkpt>
      <trkpt lat="43.3331" lon="2.53563">
        <ele>297.6</ele>
        <time>2013-04-24T08:28:46Z</time>
      </trkpt>
      <trkpt lat="43.33312" lon="2.53575">
        <ele>297.9</ele>
        <time>2013-04-24T08:28:53Z</time>
      </trkpt>
      <trkpt lat="43.33312" lon="2.53587">
        <ele>298</ele>
        <time>2013-04-24T08:29:01Z</time>
      </trkpt>
      <trkpt lat="43.33312" lon="2.53598">
        <ele>298.4</ele>
        <time>2013-04-24T08:29:08Z</time>
      </trkpt>
      <trkpt lat="43.33313" lon="2.5361">
        <ele>299</ele>
        <time>2013-04-24T08:29:16Z</time>
      </trkpt>
      <trkpt lat="43.33314" lon="2.5362">
        <ele>299.5</ele>
        <time>2013-04-24T08:29:29Z</time>
      </trkpt>
      <trkpt lat="43.33317" lon="2.5363">
        <ele>300.3</ele>
        <time>2013-04-24T08:29:35Z</time>
      </trkpt>
      <trkpt lat="43.33321" lon="2.5364">
        <ele>301.3</ele>
        <time>2013-04-24T08:29:42Z</time>
      </trkpt>
      <trkpt lat="43.33322" lon="2.53642">
        <ele>301.4</ele>
        <time>2013-04-24T08:29:43Z</time>
      </trkpt>
      <trkpt lat="43.33326" lon="2.53661">
        <ele>302.7</ele>
        <time>2013-04-24T08:29:56Z</time>
      </trkpt>
      <trkpt lat="43.33329" lon="2.53672">
        <ele>303.3</ele>
        <time>2013-04-24T08:30:03Z</time>
      </trkpt>
      <trkpt lat="43.33332" lon="2.53684">
        <ele>303.6</ele>
        <time>2013-04-24T08:30:09Z</time>
      </trkpt>
      <trkpt lat="43.33333" lon="2.53695">
        <ele>303.7</ele>
        <time>2013-04-24T08:30:17Z</time>
      </trkpt>
      <trkpt lat="43.33335" lon="2.53707">
        <ele>303.8</ele>
        <time>2013-04-24T08:30:26Z</time>
      </trkpt>
      <trkpt lat="43.3334" lon="2.53716">
        <ele>304.2</ele>
        <time>2013-04-24T08:30:49Z</time>
      </trkpt>
      <trkpt lat="43.3334" lon="2.53718">
        <ele>304.3</ele>
        <time>2013-04-24T08:30:50Z</time>
      </trkpt>
      <trkpt lat="43.33345" lon="2.53738">
        <ele>304.6</ele>
        <time>2013-04-24T08:31:02Z</time>
      </trkpt>
      <trkpt lat="43.33348" lon="2.53748">
        <ele>305</ele>
        <time>2013-04-24T08:31:07Z</time>
      </trkpt>
      <trkpt lat="43.33351" lon="2.53759">
        <ele>305.1</ele>
        <time>2013-04-24T08:31:13Z</time>
      </trkpt>
      <trkpt lat="43.33355" lon="2.53769">
        <ele>305.1</ele>
        <time>2013-04-24T08:31:19Z</time>
      </trkpt>
      <trkpt lat="43.33356" lon="2.5378">
        <ele>304.9</ele>
        <time>2013-04-24T08:31:26Z</time>
      </trkpt>
      <trkpt lat="43.33357" lon="2.53791">
        <ele>304.7</ele>
        <time>2013-04-24T08:31:33Z</time>
      </trkpt>
      <trkpt lat="43.33361" lon="2.53801">
        <ele>304.9</ele>
        <time>2013-04-24T08:31:41Z</time>
      </trkpt>
      <trkpt lat="43.33367" lon="2.5381">
        <ele>305.3</ele>
        <time>2013-04-24T08:33:49Z</time>
      </trkpt>
      <trkpt lat="43.33368" lon="2.53811">
        <ele>305.4</ele>
        <time>2013-04-24T08:33:50Z</time>
      </trkpt>
      <trkpt lat="43.33383" lon="2.53818">
        <ele>307.2</ele>
        <time>2013-04-24T08:34:03Z</time>
      </trkpt>
      <trkpt lat="43.33392" lon="2.53817">
        <ele>308.3</ele>
        <time>2013-04-24T08:34:10Z</time>
      </trkpt>
      <trkpt lat="43.33399" lon="2.53814">
        <ele>309.3</ele>
        <time>2013-04-24T08:34:16Z</time>
      </trkpt>
      <trkpt lat="43.33405" lon="2.53807">
        <ele>310.4</ele>
        <time>2013-04-24T08:34:22Z</time>
      </trkpt>
      <trkpt lat="43.33411" lon="2.53798">
        <ele>311.5</ele>
        <time>2013-04-24T08:34:27Z</time>
      </trkpt>
      <trkpt lat="43.33417" lon="2.5379">
        <ele>312.6</ele>
        <time>2013-04-24T08:34:36Z</time>
      </trkpt>
      <trkpt lat="43.33423" lon="2.53781">
        <ele>313.5</ele>
        <time>2013-04-24T08:34:43Z</time>
      </trkpt>
      <trkpt lat="43.33427" lon="2.53772">
        <ele>314.3</ele>
        <time>2013-04-24T08:34:51Z</time>
      </trkpt>
      <trkpt lat="43.33428" lon="2.53771">
        <ele>314.5</ele>
        <time>2013-04-24T08:34:52Z</time>
      </trkpt>
      <trkpt lat="43.33442" lon="2.5376">
        <ele>316.2</ele>
        <time>2013-04-24T08:35:06Z</time>
      </trkpt>
      <trkpt lat="43.3345" lon="2.53763">
        <ele>317</ele>
        <time>2013-04-24T08:35:15Z</time>
      </trkpt>
      <trkpt lat="43.33456" lon="2.5377">
        <ele>317.4</ele>
        <time>2013-04-24T08:35:21Z</time>
      </trkpt>
      <trkpt lat="43.33464" lon="2.53778">
        <ele>318.1</ele>
        <time>2013-04-24T08:35:30Z</time>
      </trkpt>
      <trkpt lat="43.33471" lon="2.53783">
        <ele>318.8</ele>
        <time>2013-04-24T08:35:37Z</time>
      </trkpt>
      <trkpt lat="43.33479" lon="2.53789">
        <ele>319.6</ele>
        <time>2013-04-24T08:35:44Z</time>
      </trkpt>
      <trkpt lat="43.33485" lon="2.53797">
        <ele>320.2</ele>
        <time>2013-04-24T08:35:50Z</time>
      </trkpt>
      <trkpt lat="43.33493" lon="2.53801">
        <ele>321.1</ele>
        <time>2013-04-24T08:35:59Z</time>
      </trkpt>
      <trkpt lat="43.33493" lon="2.53801">
        <ele>321.2</ele>
        <time>2013-04-24T08:36:00Z</time>
      </trkpt>
      <trkpt lat="43.33508" lon="2.53811">
        <ele>322.6</ele>
        <time>2013-04-24T08:36:12Z</time>
      </trkpt>
      <trkpt lat="43.33515" lon="2.53815">
        <ele>323.2</ele>
        <time>2013-04-24T08:36:19Z</time>
      </trkpt>
      <trkpt lat="43.33522" lon="2.5382">
        <ele>323.8</ele>
        <time>2013-04-24T08:36:26Z</time>
      </trkpt>
      <trkpt lat="43.33529" lon="2.53821">
        <ele>324.4</ele>
        <time>2013-04-24T08:36:33Z</time>
      </trkpt>
      <trkpt lat="43.33537" lon="2.53827">
        <ele>325.1</ele>
        <time>2013-04-24T08:36:38Z</time>
      </trkpt>
      <trkpt lat="43.33544" lon="2.53835">
        <ele>325.7</ele>
        <time>2013-04-24T08:36:47Z</time>
      </trkpt>
      <trkpt lat="43.33541" lon="2.53846">
        <ele>326</ele>
        <time>2013-04-24T08:36:56Z</time>
      </trkpt>
      <trkpt lat="43.33539" lon="2.53858">
        <ele>326.4</ele>
        <time>2013-04-24T08:37:05Z</time>
      </trkpt>
      <trkpt lat="43.33539" lon="2.53859">
        <ele>326.5</ele>
        <time>2013-04-24T08:37:06Z</time>
      </trkpt>
      <trkpt lat="43.33537" lon="2.53882">
        <ele>327.4</ele>
        <time>2013-04-24T08:37:22Z</time>
      </trkpt>
      <trkpt lat="43.33539" lon="2.53892">
        <ele>328.1</ele>
        <time>2013-04-24T08:37:28Z</time>
      </trkpt>
      <trkpt lat="43.3354" lon="2.53904">
        <ele>328.7</ele>
        <time>2013-04-24T08:37:35Z</time>
      </trkpt>
      <trkpt lat="43.33545" lon="2.53914">
        <ele>329.6</ele>
        <time>2013-04-24T08:37:43Z</time>
      </trkpt>
      <trkpt lat="43.33548" lon="2.53923">
        <ele>330</ele>
        <time>2013-04-24T08:37:52Z</time>
      </trkpt>
      <trkpt lat="43.33552" lon="2.53933">
        <ele>330.3</ele>
        <time>2013-04-24T08:37:58Z</time>
      </trkpt>
      <trkpt lat="43.33554" lon="2.53944">
        <ele>330.3</ele>
        <time>2013-04-24T08:38:07Z</time>
      </trkpt>
      <trkpt lat="43.33555" lon="2.53946">
        <ele>330.4</ele>
        <time>2013-04-24T08:38:08Z</time>
      </trkpt>
      <trkpt lat="43.33566" lon="2.53962">
        <ele>331.3</ele>
        <time>2013-04-24T08:38:27Z</time>
      </trkpt>
      <trkpt lat="43.33574" lon="2.5396">
        <ele>332.1</ele>
        <time>2013-04-24T08:38:37Z</time>
      </trkpt>
      <trkpt lat="43.3358" lon="2.53953">
        <ele>332.7</ele>
        <time>2013-04-24T08:38:41Z</time>
      </trkpt>
      <trkpt lat="43.33586" lon="2.53944">
        <ele>333.2</ele>
        <time>2013-04-24T08:38:47Z</time>
      </trkpt>
      <trkpt lat="43.33592" lon="2.53935">
        <ele>333.6</ele>
        <time>2013-04-24T08:38:57Z</time>
      </trkpt>
      <trkpt lat="43.33598" lon="2.53927">
        <ele>334.2</ele>
        <time>2013-04-24T08:39:05Z</time>
      </trkpt>
      <trkpt lat="43.33602" lon="2.53921">
        <ele>334.7</ele>
        <time>2013-04-24T08:40:40Z</time>
      </trkpt>
      <trkpt lat="43.33607" lon="2.53916">
        <ele>335.2</ele>
        <time>2013-04-24T08:40:41Z</time>
      </trkpt>
      <trkpt lat="43.33605" lon="2.53906">
        <ele>334.6</ele>
        <time>2013-04-24T08:43:44Z</time>
      </trkpt>
      <trkpt lat="43.33597" lon="2.539">
        <ele>333.6</ele>
        <time>2013-04-24T08:43:45Z</time>
      </trkpt>
      <trkpt lat="43.33598" lon="2.53927">
        <ele>334.2</ele>
        <time>2013-04-24T08:44:10Z</time>
      </trkpt>
      <trkpt lat="43.33592" lon="2.53935">
        <ele>333.7</ele>
        <time>2013-04-24T08:44:20Z</time>
      </trkpt>
      <trkpt lat="43.33587" lon="2.53943">
        <ele>333.2</ele>
        <time>2013-04-24T08:44:28Z</time>
      </trkpt>
      <trkpt lat="43.3358" lon="2.5395">
        <ele>332.7</ele>
        <time>2013-04-24T08:44:36Z</time>
      </trkpt>
      <trkpt lat="43.33574" lon="2.53958">
        <ele>332.1</ele>
        <time>2013-04-24T08:44:46Z</time>
      </trkpt>
      <trkpt lat="43.33573" lon="2.53959">
        <ele>332</ele>
        <time>2013-04-24T08:44:47Z</time>
      </trkpt>
      <trkpt lat="43.33571" lon="2.53977">
        <ele>331.8</ele>
        <time>2013-04-24T08:45:33Z</time>
      </trkpt>
      <trkpt lat="43.33576" lon="2.53987">
        <ele>332.2</ele>
        <time>2013-04-24T08:45:44Z</time>
      </trkpt>
      <trkpt lat="43.3358" lon="2.53997">
        <ele>332.7</ele>
        <time>2013-04-24T08:45:54Z</time>
      </trkpt>
      <trkpt lat="43.33581" lon="2.53998">
        <ele>332.7</ele>
        <time>2013-04-24T08:45:55Z</time>
      </trkpt>
      <trkpt lat="43.3359" lon="2.54015">
        <ele>330.8</ele>
        <time>2013-04-24T08:46:13Z</time>
      </trkpt>
      <trkpt lat="43.33597" lon="2.54024">
        <ele>329.2</ele>
        <time>2013-04-24T08:46:24Z</time>
      </trkpt>
      <trkpt lat="43.33603" lon="2.54032">
        <ele>327.5</ele>
        <time>2013-04-24T08:46:33Z</time>
      </trkpt>
      <trkpt lat="43.33608" lon="2.54042">
        <ele>325.4</ele>
        <time>2013-04-24T08:46:43Z</time>
      </trkpt>
      <trkpt lat="43.33613" lon="2.54051">
        <ele>323.1</ele>
        <time>2013-04-24T08:46:50Z</time>
      </trkpt>
      <trkpt lat="43.3362" lon="2.54058">
        <ele>321</ele>
        <time>2013-04-24T08:46:58Z</time>
      </trkpt>
      <trkpt lat="43.33621" lon="2.54059">
        <ele>320.8</ele>
        <time>2013-04-24T08:46:59Z</time>
      </trkpt>
      <trkpt lat="43.33632" lon="2.54075">
        <ele>315.8</ele>
        <time>2013-04-24T08:47:17Z</time>
      </trkpt>
      <trkpt lat="43.33639" lon="2.54082">
        <ele>313.1</ele>
        <time>2013-04-24T08:47:25Z</time>
      </trkpt>
      <trkpt lat="43.33646" lon="2.54088">
        <ele>309.6</ele>
        <time>2013-04-24T08:47:33Z</time>
      </trkpt>
      <trkpt lat="43.33654" lon="2.54091">
        <ele>306.8</ele>
        <time>2013-04-24T08:47:41Z</time>
      </trkpt>
      <trkpt lat="43.33663" lon="2.5409">
        <ele>305.7</ele>
        <time>2013-04-24T08:47:53Z</time>
      </trkpt>
      <trkpt lat="43.3367" lon="2.54087">
        <ele>305.9</ele>
        <time>2013-04-24T08:51:17Z</time>
      </trkpt>
      <trkpt lat="43.33671" lon="2.54084">
        <ele>306.8</ele>
        <time>2013-04-24T08:51:18Z</time>
      </trkpt>
      <trkpt lat="43.33685" lon="2.5408">
        <ele>304.9</ele>
        <time>2013-04-24T08:51:30Z</time>
      </trkpt>
      <trkpt lat="43.33693" lon="2.54076">
        <ele>304.2</ele>
        <time>2013-04-24T08:51:37Z</time>
      </trkpt>
      <trkpt lat="43.337" lon="2.54071">
        <ele>304</ele>
        <time>2013-04-24T08:51:42Z</time>
      </trkpt>
      <trkpt lat="43.33707" lon="2.54066">
        <ele>304</ele>
        <time>2013-04-24T08:51:49Z</time>
      </trkpt>
      <trkpt lat="43.33712" lon="2.54058">
        <ele>305.4</ele>
        <time>2013-04-24T08:51:55Z</time>
      </trkpt>
      <trkpt lat="43.33719" lon="2.54053">
        <ele>305.8</ele>
        <time>2013-04-24T08:52:00Z</time>
      </trkpt>
      <trkpt lat="43.33725" lon="2.54044">
        <ele>307.7</ele>
        <time>2013-04-24T08:52:08Z</time>
      </trkpt>
      <trkpt lat="43.33728" lon="2.54033">
        <ele>310.5</ele>
        <time>2013-04-24T08:52:17Z</time>
      </trkpt>
      <trkpt lat="43.33732" lon="2.54024">
        <ele>312.8</ele>
        <time>2013-04-24T08:52:34Z</time>
      </trkpt>
      <trkpt lat="43.33733" lon="2.54022">
        <ele>313.3</ele>
        <time>2013-04-24T08:52:35Z</time>
      </trkpt>
      <trkpt lat="43.33737" lon="2.54004">
        <ele>319.1</ele>
        <time>2013-04-24T08:52:52Z</time>
      </trkpt>
      <trkpt lat="43.33743" lon="2.53996">
        <ele>320.5</ele>
        <time>2013-04-24T08:52:59Z</time>
      </trkpt>
      <trkpt lat="43.33751" lon="2.53994">
        <ele>319.7</ele>
        <time>2013-04-24T08:53:09Z</time>
      </trkpt>
      <trkpt lat="43.3376" lon="2.53991">
        <ele>317.3</ele>
        <time>2013-04-24T08:53:18Z</time>
      </trkpt>
      <trkpt lat="43.33768" lon="2.53994">
        <ele>313</ele>
        <time>2013-04-24T08:58:28Z</time>
      </trkpt>
      <trkpt lat="43.33769" lon="2.53994">
        <ele>312.5</ele>
        <time>2013-04-24T08:58:29Z</time>
      </trkpt>
      <trkpt lat="43.33779" lon="2.5401">
        <ele>303</ele>
        <time>2013-04-24T08:59:09Z</time>
      </trkpt>
      <trkpt lat="43.33784" lon="2.54021">
        <ele>297.9</ele>
        <time>2013-04-24T08:59:20Z</time>
      </trkpt>
      <trkpt lat="43.33792" lon="2.54017">
        <ele>295.9</ele>
        <time>2013-04-24T08:59:36Z</time>
      </trkpt>
      <trkpt lat="43.33793" lon="2.54017">
        <ele>295.6</ele>
        <time>2013-04-24T08:59:37Z</time>
      </trkpt>
      <trkpt lat="43.33805" lon="2.54011">
        <ele>292.7</ele>
        <time>2013-04-24T09:00:54Z</time>
      </trkpt>
      <trkpt lat="43.33811" lon="2.54003">
        <ele>292.4</ele>
        <time>2013-04-24T09:00:55Z</time>
      </trkpt>
      <trkpt lat="43.33817" lon="2.53995">
        <ele>292.2</ele>
        <time>2013-04-24T09:01:05Z</time>
      </trkpt>
      <trkpt lat="43.33822" lon="2.53986">
        <ele>293.1</ele>
        <time>2013-04-24T09:01:12Z</time>
      </trkpt>
      <trkpt lat="43.33823" lon="2.5398">
        <ele>294.5</ele>
        <time>2013-04-24T09:01:25Z</time>
      </trkpt>
      <trkpt lat="43.33827" lon="2.53971">
        <ele>295.5</ele>
        <time>2013-04-24T09:01:28Z</time>
      </trkpt>
      <trkpt lat="43.33819" lon="2.53976">
        <ele>297.4</ele>
        <time>2013-04-24T09:01:48Z</time>
      </trkpt>
      <trkpt lat="43.33815" lon="2.53965">
        <ele>302.2</ele>
        <time>2013-04-24T09:02:02Z</time>
      </trkpt>
      <trkpt lat="43.33816" lon="2.53961">
        <ele>303.1</ele>
        <time>2013-04-24T09:02:03Z</time>
      </trkpt>
      <trkpt lat="43.33826" lon="2.53946">
        <ele>303.8</ele>
        <time>2013-04-24T09:02:16Z</time>
      </trkpt>
      <trkpt lat="43.33825" lon="2.53934">
        <ele>307.6</ele>
        <time>2013-04-24T09:03:04Z</time>
      </trkpt>
      <trkpt lat="43.33825" lon="2.53933">
        <ele>307.7</ele>
        <time>2013-04-24T09:03:05Z</time>
      </trkpt>
      <trkpt lat="43.33838" lon="2.5392">
        <ele>305.7</ele>
        <time>2013-04-24T09:03:21Z</time>
      </trkpt>
      <trkpt lat="43.33843" lon="2.5391">
        <ele>306.6</ele>
        <time>2013-04-24T09:03:32Z</time>
      </trkpt>
      <trkpt lat="43.33838" lon="2.53919">
        <ele>306.3</ele>
        <time>2013-04-24T09:04:00Z</time>
      </trkpt>
      <trkpt lat="43.33846" lon="2.53914">
        <ele>303.8</ele>
        <time>2013-04-24T09:04:41Z</time>
      </trkpt>
      <trkpt lat="43.33847" lon="2.53913">
        <ele>303.7</ele>
        <time>2013-04-24T09:04:42Z</time>
      </trkpt>
      <trkpt lat="43.33857" lon="2.53898">
        <ele>303</ele>
        <time>2013-04-24T09:04:58Z</time>
      </trkpt>
      <trkpt lat="43.33866" lon="2.53896">
        <ele>299.1</ele>
        <time>2013-04-24T09:05:05Z</time>
      </trkpt>
      <trkpt lat="43.33867" lon="2.53885">
        <ele>301.9</ele>
        <time>2013-04-24T09:05:17Z</time>
      </trkpt>
      <trkpt lat="43.33872" lon="2.53876">
        <ele>301.7</ele>
        <time>2013-04-24T09:05:35Z</time>
      </trkpt>
      <trkpt lat="43.33878" lon="2.53868">
        <ele>301</ele>
        <time>2013-04-24T09:05:41Z</time>
      </trkpt>
      <trkpt lat="43.33884" lon="2.5386">
        <ele>299.7</ele>
        <time>2013-04-24T09:05:51Z</time>
      </trkpt>
      <trkpt lat="43.33885" lon="2.5386">
        <ele>298.8</ele>
        <time>2013-04-24T09:05:52Z</time>
      </trkpt>
      <trkpt lat="43.33891" lon="2.53846">
        <ele>299.2</ele>
        <time>2013-04-24T09:06:15Z</time>
      </trkpt>
      <trkpt lat="43.33892" lon="2.53835">
        <ele>301.8</ele>
        <time>2013-04-24T09:06:49Z</time>
      </trkpt>
      <trkpt lat="43.33888" lon="2.53824">
        <ele>307.9</ele>
        <time>2013-04-24T09:07:20Z</time>
      </trkpt>
      <trkpt lat="43.33888" lon="2.53823">
        <ele>308.5</ele>
        <time>2013-04-24T09:07:21Z</time>
      </trkpt>
      <trkpt lat="43.33884" lon="2.53802">
        <ele>318.3</ele>
        <time>2013-04-24T09:07:44Z</time>
      </trkpt>
      <trkpt lat="43.33881" lon="2.5379">
        <ele>323.5</ele>
        <time>2013-04-24T09:07:59Z</time>
      </trkpt>
      <trkpt lat="43.33883" lon="2.5378">
        <ele>326.2</ele>
        <time>2013-04-24T09:08:04Z</time>
      </trkpt>
      <trkpt lat="43.33876" lon="2.53774">
        <ele>331.5</ele>
        <time>2013-04-24T09:08:11Z</time>
      </trkpt>
      <trkpt lat="43.33868" lon="2.53769">
        <ele>336.2</ele>
        <time>2013-04-24T09:08:22Z</time>
      </trkpt>
      <trkpt lat="43.33867" lon="2.53768">
        <ele>336.9</ele>
        <time>2013-04-24T09:08:23Z</time>
      </trkpt>
      <trkpt lat="43.33853" lon="2.53762">
        <ele>344.2</ele>
        <time>2013-04-24T09:08:38Z</time>
      </trkpt>
      <trkpt lat="43.33844" lon="2.53758">
        <ele>348.4</ele>
        <time>2013-04-24T09:08:48Z</time>
      </trkpt>
      <trkpt lat="43.33843" lon="2.53746">
        <ele>350.7</ele>
        <time>2013-04-24T09:08:59Z</time>
      </trkpt>
      <trkpt lat="43.3384" lon="2.53736">
        <ele>352.5</ele>
        <time>2013-04-24T09:09:06Z</time>
      </trkpt>
      <trkpt lat="43.33834" lon="2.53727">
        <ele>354.7</ele>
        <time>2013-04-24T09:09:14Z</time>
      </trkpt>
      <trkpt lat="43.33827" lon="2.53721">
        <ele>354.6</ele>
        <time>2013-04-24T09:09:21Z</time>
      </trkpt>
      <trkpt lat="43.33824" lon="2.5371">
        <ele>354.7</ele>
        <time>2013-04-24T09:09:29Z</time>
      </trkpt>
      <trkpt lat="43.33825" lon="2.53709">
        <ele>354.8</ele>
        <time>2013-04-24T09:09:30Z</time>
      </trkpt>
      <trkpt lat="43.33821" lon="2.5369">
        <ele>354.9</ele>
        <time>2013-04-24T09:09:44Z</time>
      </trkpt>
      <trkpt lat="43.33817" lon="2.53679">
        <ele>354.8</ele>
        <time>2013-04-24T09:09:53Z</time>
      </trkpt>
      <trkpt lat="43.33817" lon="2.53667">
        <ele>355</ele>
        <time>2013-04-24T09:10:03Z</time>
      </trkpt>
      <trkpt lat="43.33819" lon="2.53656">
        <ele>354.8</ele>
        <time>2013-04-24T09:10:10Z</time>
      </trkpt>
      <trkpt lat="43.3382" lon="2.53646">
        <ele>354.6</ele>
        <time>2013-04-24T09:10:19Z</time>
      </trkpt>
      <trkpt lat="43.33813" lon="2.53639">
        <ele>353.5</ele>
        <time>2013-04-24T09:10:29Z</time>
      </trkpt>
      <trkpt lat="43.33805" lon="2.53638">
        <ele>352.7</ele>
        <time>2013-04-24T09:10:35Z</time>
      </trkpt>
      <trkpt lat="43.33804" lon="2.53638">
        <ele>352.6</ele>
        <time>2013-04-24T09:10:36Z</time>
      </trkpt>
      <trkpt lat="43.33789" lon="2.53639">
        <ele>351</ele>
        <time>2013-04-24T09:10:48Z</time>
      </trkpt>
      <trkpt lat="43.3378" lon="2.53636">
        <ele>350.1</ele>
        <time>2013-04-24T09:10:56Z</time>
      </trkpt>
      <trkpt lat="43.33773" lon="2.53629">
        <ele>349.3</ele>
        <time>2013-04-24T09:11:08Z</time>
      </trkpt>
      <trkpt lat="43.33766" lon="2.53623">
        <ele>348.6</ele>
        <time>2013-04-24T09:11:57Z</time>
      </trkpt>
      <trkpt lat="43.33765" lon="2.53622">
        <ele>348.4</ele>
        <time>2013-04-24T09:11:58Z</time>
      </trkpt>
      <trkpt lat="43.33771" lon="2.53611">
        <ele>348.9</ele>
        <time>2013-04-24T09:12:36Z</time>
      </trkpt>
      <trkpt lat="43.33767" lon="2.53622">
        <ele>348.6</ele>
        <time>2013-04-24T09:13:00Z</time>
      </trkpt>
      <trkpt lat="43.33765" lon="2.53622">
        <ele>348.4</ele>
        <time>2013-04-24T09:13:01Z</time>
      </trkpt>
      <trkpt lat="43.33771" lon="2.53611">
        <ele>348.9</ele>
        <time>2013-04-24T09:15:42Z</time>
      </trkpt>
      <trkpt lat="43.3378" lon="2.53593">
        <ele>349.3</ele>
        <time>2013-04-24T09:15:58Z</time>
      </trkpt>
      <trkpt lat="43.3378" lon="2.53581">
        <ele>349.4</ele>
        <time>2013-04-24T09:16:07Z</time>
      </trkpt>
      <trkpt lat="43.33781" lon="2.53569">
        <ele>350.3</ele>
        <time>2013-04-24T09:16:14Z</time>
      </trkpt>
      <trkpt lat="43.33783" lon="2.53558">
        <ele>351.2</ele>
        <time>2013-04-24T09:16:20Z</time>
      </trkpt>
      <trkpt lat="43.33786" lon="2.53548">
        <ele>352.2</ele>
        <time>2013-04-24T09:16:30Z</time>
      </trkpt>
      <trkpt lat="43.33789" lon="2.53537">
        <ele>353.2</ele>
        <time>2013-04-24T09:16:36Z</time>
      </trkpt>
      <trkpt lat="43.33793" lon="2.53526">
        <ele>354.3</ele>
        <time>2013-04-24T09:16:43Z</time>
      </trkpt>
      <trkpt lat="43.33794" lon="2.53525">
        <ele>354.4</ele>
        <time>2013-04-24T09:16:44Z</time>
      </trkpt>
      <trkpt lat="43.33792" lon="2.53502">
        <ele>356</ele>
        <time>2013-04-24T09:16:58Z</time>
      </trkpt>
      <trkpt lat="43.3379" lon="2.5349">
        <ele>356.3</ele>
        <time>2013-04-24T09:17:03Z</time>
      </trkpt>
      <trkpt lat="43.3379" lon="2.53478">
        <ele>356.8</ele>
        <time>2013-04-24T09:17:08Z</time>
      </trkpt>
      <trkpt lat="43.33792" lon="2.53468">
        <ele>357.4</ele>
        <time>2013-04-24T09:17:16Z</time>
      </trkpt>
      <trkpt lat="43.33794" lon="2.53456">
        <ele>358.1</ele>
        <time>2013-04-24T09:17:24Z</time>
      </trkpt>
      <trkpt lat="43.33796" lon="2.53444">
        <ele>358.8</ele>
        <time>2013-04-24T09:17:34Z</time>
      </trkpt>
      <trkpt lat="43.33801" lon="2.53435">
        <ele>359.7</ele>
        <time>2013-04-24T09:17:44Z</time>
      </trkpt>
      <trkpt lat="43.33801" lon="2.53433">
        <ele>359.8</ele>
        <time>2013-04-24T09:17:45Z</time>
      </trkpt>
      <trkpt lat="43.33798" lon="2.53413">
        <ele>360.3</ele>
        <time>2013-04-24T09:18:00Z</time>
      </trkpt>
      <trkpt lat="43.33803" lon="2.53403">
        <ele>360.9</ele>
        <time>2013-04-24T09:18:07Z</time>
      </trkpt>
      <trkpt lat="43.33805" lon="2.53392">
        <ele>361.2</ele>
        <time>2013-04-24T09:18:14Z</time>
      </trkpt>
      <trkpt lat="43.33809" lon="2.53381">
        <ele>361.9</ele>
        <time>2013-04-24T09:18:21Z</time>
      </trkpt>
      <trkpt lat="43.33813" lon="2.53372">
        <ele>362.5</ele>
        <time>2013-04-24T09:18:27Z</time>
      </trkpt>
      <trkpt lat="43.33816" lon="2.5336">
        <ele>363.1</ele>
        <time>2013-04-24T09:18:34Z</time>
      </trkpt>
      <trkpt lat="43.33818" lon="2.5335">
        <ele>363.5</ele>
        <time>2013-04-24T09:18:42Z</time>
      </trkpt>
      <trkpt lat="43.3382" lon="2.53339">
        <ele>364</ele>
        <time>2013-04-24T09:18:50Z</time>
      </trkpt>
      <trkpt lat="43.33821" lon="2.53337">
        <ele>364.1</ele>
        <time>2013-04-24T09:18:51Z</time>
      </trkpt>
      <trkpt lat="43.33832" lon="2.53325">
        <ele>365.4</ele>
        <time>2013-04-24T09:19:02Z</time>
      </trkpt>
      <trkpt lat="43.3384" lon="2.5332">
        <ele>366</ele>
        <time>2013-04-24T09:19:09Z</time>
      </trkpt>
      <trkpt lat="43.33848" lon="2.53319">
        <ele>366.9</ele>
        <time>2013-04-24T09:19:17Z</time>
      </trkpt>
      <trkpt lat="43.33857" lon="2.53319">
        <ele>367.9</ele>
        <time>2013-04-24T09:19:22Z</time>
      </trkpt>
      <trkpt lat="43.3385" lon="2.53328">
        <ele>367.5</ele>
        <time>2013-04-24T09:19:31Z</time>
      </trkpt>
      <trkpt lat="43.33846" lon="2.53334">
        <ele>367.4</ele>
        <time>2013-04-24T09:19:33Z</time>
      </trkpt>
      <trkpt lat="43.33845" lon="2.53345">
        <ele>367</ele>
        <time>2013-04-24T09:19:39Z</time>
      </trkpt>
      <trkpt lat="43.33851" lon="2.53348">
        <ele>367.5</ele>
        <time>2013-04-24T09:19:45Z</time>
      </trkpt>
      <trkpt lat="43.33855" lon="2.53347">
        <ele>368.1</ele>
        <time>2013-04-24T09:19:46Z</time>
      </trkpt>
      <trkpt lat="43.33864" lon="2.53345">
        <ele>369</ele>
        <time>2013-04-24T09:19:49Z</time>
      </trkpt>
      <trkpt lat="43.33871" lon="2.5335">
        <ele>369.7</ele>
        <time>2013-04-24T09:19:53Z</time>
      </trkpt>
      <trkpt lat="43.33872" lon="2.53351">
        <ele>369.8</ele>
        <time>2013-04-24T09:19:54Z</time>
      </trkpt>
      <trkpt lat="43.33878" lon="2.53371">
        <ele>370</ele>
        <time>2013-04-24T09:20:12Z</time>
      </trkpt>
      <trkpt lat="43.33882" lon="2.53381">
        <ele>370.1</ele>
        <time>2013-04-24T09:20:20Z</time>
      </trkpt>
      <trkpt lat="43.33886" lon="2.53392">
        <ele>370.3</ele>
        <time>2013-04-24T09:20:29Z</time>
      </trkpt>
      <trkpt lat="43.33893" lon="2.534">
        <ele>370.9</ele>
        <time>2013-04-24T09:20:37Z</time>
      </trkpt>
      <trkpt lat="43.33898" lon="2.53409">
        <ele>371.2</ele>
        <time>2013-04-24T09:20:45Z</time>
      </trkpt>
      <trkpt lat="43.33902" lon="2.53419">
        <ele>371.3</ele>
        <time>2013-04-24T09:20:53Z</time>
      </trkpt>
      <trkpt lat="43.33909" lon="2.53427">
        <ele>371.3</ele>
        <time>2013-04-24T09:21:00Z</time>
      </trkpt>
      <trkpt lat="43.33909" lon="2.53428">
        <ele>371.2</ele>
        <time>2013-04-24T09:21:01Z</time>
      </trkpt>
      <trkpt lat="43.33918" lon="2.53446">
        <ele>370.3</ele>
        <time>2013-04-24T09:21:15Z</time>
      </trkpt>
      <trkpt lat="43.33924" lon="2.53452">
        <ele>370.3</ele>
        <time>2013-04-24T09:21:21Z</time>
      </trkpt>
      <trkpt lat="43.3393" lon="2.53459">
        <ele>370.2</ele>
        <time>2013-04-24T09:21:27Z</time>
      </trkpt>
      <trkpt lat="43.33936" lon="2.53467">
        <ele>370.1</ele>
        <time>2013-04-24T09:21:34Z</time>
      </trkpt>
      <trkpt lat="43.33943" lon="2.53474">
        <ele>370.3</ele>
        <time>2013-04-24T09:21:42Z</time>
      </trkpt>
      <trkpt lat="43.3395" lon="2.53481">
        <ele>370.6</ele>
        <time>2013-04-24T09:21:52Z</time>
      </trkpt>
      <trkpt lat="43.33959" lon="2.53483">
        <ele>371.5</ele>
        <time>2013-04-24T09:21:59Z</time>
      </trkpt>
      <trkpt lat="43.33965" lon="2.53492">
        <ele>371.8</ele>
        <time>2013-04-24T09:22:11Z</time>
      </trkpt>
      <trkpt lat="43.33966" lon="2.53494">
        <ele>371.8</ele>
        <time>2013-04-24T09:22:12Z</time>
      </trkpt>
      <trkpt lat="43.33979" lon="2.53484">
        <ele>373.8</ele>
        <time>2013-04-24T09:22:22Z</time>
      </trkpt>
      <trkpt lat="43.33986" lon="2.53482">
        <ele>374.7</ele>
        <time>2013-04-24T09:22:25Z</time>
      </trkpt>
      <trkpt lat="43.33993" lon="2.53476">
        <ele>375.5</ele>
        <time>2013-04-24T09:22:28Z</time>
      </trkpt>
      <trkpt lat="43.34" lon="2.53474">
        <ele>376.4</ele>
        <time>2013-04-24T09:22:32Z</time>
      </trkpt>
      <trkpt lat="43.34009" lon="2.53471">
        <ele>377.8</ele>
        <time>2013-04-24T09:22:39Z</time>
      </trkpt>
      <trkpt lat="43.34016" lon="2.53469">
        <ele>379</ele>
        <time>2013-04-24T09:22:44Z</time>
      </trkpt>
      <trkpt lat="43.34022" lon="2.53461">
        <ele>380</ele>
        <time>2013-04-24T09:22:53Z</time>
      </trkpt>
      <trkpt lat="43.34024" lon="2.53451">
        <ele>380.5</ele>
        <time>2013-04-24T09:22:59Z</time>
      </trkpt>
      <trkpt lat="43.34031" lon="2.53446">
        <ele>381.6</ele>
        <time>2013-04-24T09:23:05Z</time>
      </trkpt>
      <trkpt lat="43.34038" lon="2.53442">
        <ele>382.6</ele>
        <time>2013-04-24T09:23:12Z</time>
      </trkpt>
      <trkpt lat="43.3404" lon="2.53441">
        <ele>383</ele>
        <time>2013-04-24T09:23:13Z</time>
      </trkpt>
      <trkpt lat="43.34054" lon="2.5344">
        <ele>385.1</ele>
        <time>2013-04-24T09:23:22Z</time>
      </trkpt>
      <trkpt lat="43.34062" lon="2.53437">
        <ele>386.3</ele>
        <time>2013-04-24T09:23:28Z</time>
      </trkpt>
      <trkpt lat="43.34068" lon="2.53446">
        <ele>387.3</ele>
        <time>2013-04-24T09:23:30Z</time>
      </trkpt>
      <trkpt lat="43.34074" lon="2.5344">
        <ele>388.1</ele>
        <time>2013-04-24T09:23:36Z</time>
      </trkpt>
      <trkpt lat="43.34076" lon="2.53429">
        <ele>388.2</ele>
        <time>2013-04-24T09:23:40Z</time>
      </trkpt>
      <trkpt lat="43.3408" lon="2.53418">
        <ele>388.5</ele>
        <time>2013-04-24T09:23:49Z</time>
      </trkpt>
      <trkpt lat="43.34081" lon="2.53406">
        <ele>388.8</ele>
        <time>2013-04-24T09:23:56Z</time>
      </trkpt>
      <trkpt lat="43.34077" lon="2.53396">
        <ele>388.4</ele>
        <time>2013-04-24T09:24:02Z</time>
      </trkpt>
      <trkpt lat="43.3408" lon="2.53385">
        <ele>388.9</ele>
        <time>2013-04-24T09:24:13Z</time>
      </trkpt>
      <trkpt lat="43.34081" lon="2.53384">
        <ele>389.1</ele>
        <time>2013-04-24T09:24:14Z</time>
      </trkpt>
      <trkpt lat="43.34082" lon="2.53362">
        <ele>389.5</ele>
        <time>2013-04-24T09:24:28Z</time>
      </trkpt>
      <trkpt lat="43.34084" lon="2.53351">
        <ele>389.9</ele>
        <time>2013-04-24T09:24:35Z</time>
      </trkpt>
      <trkpt lat="43.34086" lon="2.5334">
        <ele>390.5</ele>
        <time>2013-04-24T09:24:41Z</time>
      </trkpt>
      <trkpt lat="43.34088" lon="2.53328">
        <ele>390.8</ele>
        <time>2013-04-24T09:24:49Z</time>
      </trkpt>
      <trkpt lat="43.34092" lon="2.53317">
        <ele>391.6</ele>
        <time>2013-04-24T09:24:58Z</time>
      </trkpt>
      <trkpt lat="43.34093" lon="2.53306">
        <ele>391.7</ele>
        <time>2013-04-24T09:25:08Z</time>
      </trkpt>
      <trkpt lat="43.34097" lon="2.53296">
        <ele>392.3</ele>
        <time>2013-04-24T09:25:14Z</time>
      </trkpt>
      <trkpt lat="43.34097" lon="2.53294">
        <ele>392.4</ele>
        <time>2013-04-24T09:25:15Z</time>
      </trkpt>
      <trkpt lat="43.34105" lon="2.53276">
        <ele>393.5</ele>
        <time>2013-04-24T09:25:30Z</time>
      </trkpt>
      <trkpt lat="43.34109" lon="2.53266">
        <ele>394.2</ele>
        <time>2013-04-24T09:25:40Z</time>
      </trkpt>
      <trkpt lat="43.34116" lon="2.53258">
        <ele>395.2</ele>
        <time>2013-04-24T09:25:51Z</time>
      </trkpt>
      <trkpt lat="43.34124" lon="2.53253">
        <ele>396.3</ele>
        <time>2013-04-24T09:25:58Z</time>
      </trkpt>
      <trkpt lat="43.34132" lon="2.53252">
        <ele>397.6</ele>
        <time>2013-04-24T09:26:05Z</time>
      </trkpt>
      <trkpt lat="43.34138" lon="2.53244">
        <ele>398.8</ele>
        <time>2013-04-24T09:26:14Z</time>
      </trkpt>
      <trkpt lat="43.34144" lon="2.53237">
        <ele>399.9</ele>
        <time>2013-04-24T09:26:21Z</time>
      </trkpt>
      <trkpt lat="43.34145" lon="2.53236">
        <ele>400.1</ele>
        <time>2013-04-24T09:26:22Z</time>
      </trkpt>
      <trkpt lat="43.3416" lon="2.53231">
        <ele>402.3</ele>
        <time>2013-04-24T09:26:33Z</time>
      </trkpt>
      <trkpt lat="43.34168" lon="2.53232">
        <ele>403.4</ele>
        <time>2013-04-24T09:26:38Z</time>
      </trkpt>
      <trkpt lat="43.34176" lon="2.53228">
        <ele>404.6</ele>
        <time>2013-04-24T09:26:47Z</time>
      </trkpt>
      <trkpt lat="43.34184" lon="2.53229">
        <ele>405.8</ele>
        <time>2013-04-24T09:26:56Z</time>
      </trkpt>
      <trkpt lat="43.34192" lon="2.53234">
        <ele>406.8</ele>
        <time>2013-04-24T09:27:04Z</time>
      </trkpt>
      <trkpt lat="43.34199" lon="2.53239">
        <ele>407.8</ele>
        <time>2013-04-24T09:27:09Z</time>
      </trkpt>
      <trkpt lat="43.34202" lon="2.5325">
        <ele>408.2</ele>
        <time>2013-04-24T09:27:20Z</time>
      </trkpt>
      <trkpt lat="43.34203" lon="2.53262">
        <ele>408.6</ele>
        <time>2013-04-24T09:27:30Z</time>
      </trkpt>
      <trkpt lat="43.34203" lon="2.53263">
        <ele>408.7</ele>
        <time>2013-04-24T09:27:31Z</time>
      </trkpt>
      <trkpt lat="43.34206" lon="2.53284">
        <ele>410</ele>
        <time>2013-04-24T09:27:48Z</time>
      </trkpt>
      <trkpt lat="43.3421" lon="2.53295">
        <ele>411.1</ele>
        <time>2013-04-24T09:27:58Z</time>
      </trkpt>
      <trkpt lat="43.34209" lon="2.53305">
        <ele>411.4</ele>
        <time>2013-04-24T09:28:02Z</time>
      </trkpt>
      <trkpt lat="43.34209" lon="2.53317">
        <ele>411.9</ele>
        <time>2013-04-24T09:28:06Z</time>
      </trkpt>
      <trkpt lat="43.34214" lon="2.53327">
        <ele>413.2</ele>
        <time>2013-04-24T09:28:10Z</time>
      </trkpt>
      <trkpt lat="43.34218" lon="2.53337">
        <ele>414.2</ele>
        <time>2013-04-24T09:28:16Z</time>
      </trkpt>
      <trkpt lat="43.34209" lon="2.53339">
        <ele>412.6</ele>
        <time>2013-04-24T09:28:25Z</time>
      </trkpt>
      <trkpt lat="43.34209" lon="2.5335">
        <ele>412.7</ele>
        <time>2013-04-24T09:28:33Z</time>
      </trkpt>
      <trkpt lat="43.34209" lon="2.53351">
        <ele>412.7</ele>
        <time>2013-04-24T09:28:34Z</time>
      </trkpt>
      <trkpt lat="43.34211" lon="2.53373">
        <ele>413.2</ele>
        <time>2013-04-24T09:28:52Z</time>
      </trkpt>
      <trkpt lat="43.34213" lon="2.53384">
        <ele>413.7</ele>
        <time>2013-04-24T09:29:00Z</time>
      </trkpt>
      <trkpt lat="43.34211" lon="2.53395">
        <ele>413.3</ele>
        <time>2013-04-24T09:29:09Z</time>
      </trkpt>
      <trkpt lat="43.34209" lon="2.53407">
        <ele>413.1</ele>
        <time>2013-04-24T09:29:19Z</time>
      </trkpt>
      <trkpt lat="43.34209" lon="2.53419">
        <ele>413</ele>
        <time>2013-04-24T09:29:26Z</time>
      </trkpt>
      <trkpt lat="43.34207" lon="2.53431">
        <ele>411.7</ele>
        <time>2013-04-24T09:29:34Z</time>
      </trkpt>
      <trkpt lat="43.34207" lon="2.53432">
        <ele>411.5</ele>
        <time>2013-04-24T09:29:35Z</time>
      </trkpt>
      <trkpt lat="43.34205" lon="2.53454">
        <ele>409.6</ele>
        <time>2013-04-24T09:29:49Z</time>
      </trkpt>
      <trkpt lat="43.34205" lon="2.53465">
        <ele>408.8</ele>
        <time>2013-04-24T09:29:55Z</time>
      </trkpt>
      <trkpt lat="43.34205" lon="2.53476">
        <ele>407.9</ele>
        <time>2013-04-24T09:30:02Z</time>
      </trkpt>
      <trkpt lat="43.34208" lon="2.53487">
        <ele>407.1</ele>
        <time>2013-04-24T09:30:10Z</time>
      </trkpt>
      <trkpt lat="43.34212" lon="2.53497">
        <ele>406.4</ele>
        <time>2013-04-24T09:30:18Z</time>
      </trkpt>
      <trkpt lat="43.34217" lon="2.53505">
        <ele>404.7</ele>
        <time>2013-04-24T09:30:24Z</time>
      </trkpt>
      <trkpt lat="43.34225" lon="2.53508">
        <ele>403.7</ele>
        <time>2013-04-24T09:30:30Z</time>
      </trkpt>
      <trkpt lat="43.34233" lon="2.5351">
        <ele>402.7</ele>
        <time>2013-04-24T09:30:37Z</time>
      </trkpt>
      <trkpt lat="43.34234" lon="2.5351">
        <ele>402.7</ele>
        <time>2013-04-24T09:30:38Z</time>
      </trkpt>
      <trkpt lat="43.34249" lon="2.53505">
        <ele>404.1</ele>
        <time>2013-04-24T09:30:51Z</time>
      </trkpt>
      <trkpt lat="43.34257" lon="2.53501">
        <ele>405.3</ele>
        <time>2013-04-24T09:30:58Z</time>
      </trkpt>
      <trkpt lat="43.34265" lon="2.53498">
        <ele>405.2</ele>
        <time>2013-04-24T09:31:07Z</time>
      </trkpt>
      <trkpt lat="43.34274" lon="2.53498">
        <ele>404.6</ele>
        <time>2013-04-24T09:31:14Z</time>
      </trkpt>
      <trkpt lat="43.34282" lon="2.53497">
        <ele>404.2</ele>
        <time>2013-04-24T09:31:22Z</time>
      </trkpt>
      <trkpt lat="43.3429" lon="2.53496">
        <ele>403.7</ele>
        <time>2013-04-24T09:31:28Z</time>
      </trkpt>
      <trkpt lat="43.34299" lon="2.53495">
        <ele>403.5</ele>
        <time>2013-04-24T09:31:37Z</time>
      </trkpt>
      <trkpt lat="43.34307" lon="2.53492">
        <ele>403.7</ele>
        <time>2013-04-24T09:31:46Z</time>
      </trkpt>
      <trkpt lat="43.34308" lon="2.53491">
        <ele>403.7</ele>
        <time>2013-04-24T09:31:47Z</time>
      </trkpt>
      <trkpt lat="43.34324" lon="2.53487">
        <ele>404.1</ele>
        <time>2013-04-24T09:32:02Z</time>
      </trkpt>
      <trkpt lat="43.34331" lon="2.53486">
        <ele>404</ele>
        <time>2013-04-24T09:32:09Z</time>
      </trkpt>
      <trkpt lat="43.3434" lon="2.53482">
        <ele>406</ele>
        <time>2013-04-24T09:32:16Z</time>
      </trkpt>
      <trkpt lat="43.34348" lon="2.5348">
        <ele>407.9</ele>
        <time>2013-04-24T09:32:25Z</time>
      </trkpt>
      <trkpt lat="43.34356" lon="2.53479">
        <ele>409.6</ele>
        <time>2013-04-24T09:32:32Z</time>
      </trkpt>
      <trkpt lat="43.34364" lon="2.53477">
        <ele>411.4</ele>
        <time>2013-04-24T09:32:39Z</time>
      </trkpt>
      <trkpt lat="43.34373" lon="2.53475">
        <ele>413.1</ele>
        <time>2013-04-24T09:32:46Z</time>
      </trkpt>
      <trkpt lat="43.34381" lon="2.53471">
        <ele>415.5</ele>
        <time>2013-04-24T09:33:08Z</time>
      </trkpt>
      <trkpt lat="43.34382" lon="2.5347">
        <ele>415.9</ele>
        <time>2013-04-24T09:33:09Z</time>
      </trkpt>
      <trkpt lat="43.34396" lon="2.53465">
        <ele>419.5</ele>
        <time>2013-04-24T09:33:21Z</time>
      </trkpt>
      <trkpt lat="43.34404" lon="2.53462">
        <ele>421.4</ele>
        <time>2013-04-24T09:33:29Z</time>
      </trkpt>
      <trkpt lat="43.34412" lon="2.5346">
        <ele>423.2</ele>
        <time>2013-04-24T09:33:35Z</time>
      </trkpt>
      <trkpt lat="43.34421" lon="2.53458">
        <ele>425.1</ele>
        <time>2013-04-24T09:33:42Z</time>
      </trkpt>
      <trkpt lat="43.34428" lon="2.53456">
        <ele>427.3</ele>
        <time>2013-04-24T09:33:49Z</time>
      </trkpt>
      <trkpt lat="43.34436" lon="2.53452">
        <ele>430.1</ele>
        <time>2013-04-24T09:33:56Z</time>
      </trkpt>
      <trkpt lat="43.34444" lon="2.53452">
        <ele>431.9</ele>
        <time>2013-04-24T09:34:05Z</time>
      </trkpt>
      <trkpt lat="43.34453" lon="2.53452">
        <ele>433.8</ele>
        <time>2013-04-24T09:34:14Z</time>
      </trkpt>
      <trkpt lat="43.34454" lon="2.53452">
        <ele>433.9</ele>
        <time>2013-04-24T09:34:15Z</time>
      </trkpt>
      <trkpt lat="43.34469" lon="2.53455">
        <ele>436.4</ele>
        <time>2013-04-24T09:34:31Z</time>
      </trkpt>
      <trkpt lat="43.34477" lon="2.53453">
        <ele>438.6</ele>
        <time>2013-04-24T09:34:35Z</time>
      </trkpt>
      <trkpt lat="43.34485" lon="2.53454">
        <ele>440.2</ele>
        <time>2013-04-24T09:34:43Z</time>
      </trkpt>
      <trkpt lat="43.34494" lon="2.53455">
        <ele>441.8</ele>
        <time>2013-04-24T09:34:52Z</time>
      </trkpt>
      <trkpt lat="43.34502" lon="2.53458">
        <ele>443.2</ele>
        <time>2013-04-24T09:34:59Z</time>
      </trkpt>
      <trkpt lat="43.3451" lon="2.53457">
        <ele>445.3</ele>
        <time>2013-04-24T09:35:04Z</time>
      </trkpt>
      <trkpt lat="43.34518" lon="2.53457">
        <ele>447.2</ele>
        <time>2013-04-24T09:35:11Z</time>
      </trkpt>
      <trkpt lat="43.34527" lon="2.53457">
        <ele>449.4</ele>
        <time>2013-04-24T09:35:18Z</time>
      </trkpt>
      <trkpt lat="43.34528" lon="2.53458">
        <ele>449.6</ele>
        <time>2013-04-24T09:35:19Z</time>
      </trkpt>
      <trkpt lat="43.34543" lon="2.53463">
        <ele>452.4</ele>
        <time>2013-04-24T09:35:33Z</time>
      </trkpt>
      <trkpt lat="43.34551" lon="2.53468">
        <ele>453.4</ele>
        <time>2013-04-24T09:35:41Z</time>
      </trkpt>
      <trkpt lat="43.34559" lon="2.53472">
        <ele>454.5</ele>
        <time>2013-04-24T09:35:49Z</time>
      </trkpt>
      <trkpt lat="43.34567" lon="2.53474">
        <ele>456.1</ele>
        <time>2013-04-24T09:35:56Z</time>
      </trkpt>
      <trkpt lat="43.34574" lon="2.5348">
        <ele>456.7</ele>
        <time>2013-04-24T09:36:03Z</time>
      </trkpt>
      <trkpt lat="43.3458" lon="2.53488">
        <ele>456.6</ele>
        <time>2013-04-24T09:36:10Z</time>
      </trkpt>
      <trkpt lat="43.34586" lon="2.53495">
        <ele>456.8</ele>
        <time>2013-04-24T09:36:17Z</time>
      </trkpt>
      <trkpt lat="43.3459" lon="2.53505">
        <ele>456.2</ele>
        <time>2013-04-24T09:36:24Z</time>
      </trkpt>
      <trkpt lat="43.34592" lon="2.53505">
        <ele>456.5</ele>
        <time>2013-04-24T09:36:25Z</time>
      </trkpt>
      <trkpt lat="43.34604" lon="2.53519">
        <ele>457.4</ele>
        <time>2013-04-24T09:36:41Z</time>
      </trkpt>
      <trkpt lat="43.34611" lon="2.53526">
        <ele>458.1</ele>
        <time>2013-04-24T09:36:50Z</time>
      </trkpt>
      <trkpt lat="43.34616" lon="2.53535">
        <ele>457.7</ele>
        <time>2013-04-24T09:36:55Z</time>
      </trkpt>
      <trkpt lat="43.34621" lon="2.53543">
        <ele>457.8</ele>
        <time>2013-04-24T09:37:02Z</time>
      </trkpt>
      <trkpt lat="43.34627" lon="2.53551">
        <ele>458</ele>
        <time>2013-04-24T09:37:08Z</time>
      </trkpt>
      <trkpt lat="43.34631" lon="2.53561">
        <ele>457</ele>
        <time>2013-04-24T09:37:15Z</time>
      </trkpt>
      <trkpt lat="43.34636" lon="2.53571">
        <ele>456.6</ele>
        <time>2013-04-24T09:37:21Z</time>
      </trkpt>
      <trkpt lat="43.34643" lon="2.53575">
        <ele>458</ele>
        <time>2013-04-24T09:37:27Z</time>
      </trkpt>
      <trkpt lat="43.34645" lon="2.53575">
        <ele>458.3</ele>
        <time>2013-04-24T09:37:28Z</time>
      </trkpt>
      <trkpt lat="43.34658" lon="2.53585">
        <ele>460.3</ele>
        <time>2013-04-24T09:37:41Z</time>
      </trkpt>
      <trkpt lat="43.34664" lon="2.53591">
        <ele>460.3</ele>
        <time>2013-04-24T09:37:49Z</time>
      </trkpt>
      <trkpt lat="43.34672" lon="2.53596">
        <ele>460.5</ele>
        <time>2013-04-24T09:37:56Z</time>
      </trkpt>
      <trkpt lat="43.34679" lon="2.53602">
        <ele>459.9</ele>
        <time>2013-04-24T09:38:04Z</time>
      </trkpt>
      <trkpt lat="43.34686" lon="2.53609">
        <ele>459</ele>
        <time>2013-04-24T09:38:13Z</time>
      </trkpt>
      <trkpt lat="43.34693" lon="2.53614">
        <ele>458.8</ele>
        <time>2013-04-24T09:38:20Z</time>
      </trkpt>
      <trkpt lat="43.347" lon="2.53619">
        <ele>458.3</ele>
        <time>2013-04-24T09:38:27Z</time>
      </trkpt>
      <trkpt lat="43.34708" lon="2.53622">
        <ele>458.4</ele>
        <time>2013-04-24T09:38:33Z</time>
      </trkpt>
      <trkpt lat="43.34709" lon="2.53622">
        <ele>458.5</ele>
        <time>2013-04-24T09:38:34Z</time>
      </trkpt>
      <trkpt lat="43.34724" lon="2.53629">
        <ele>458.7</ele>
        <time>2013-04-24T09:38:48Z</time>
      </trkpt>
      <trkpt lat="43.34732" lon="2.53635">
        <ele>458.1</ele>
        <time>2013-04-24T09:38:56Z</time>
      </trkpt>
      <trkpt lat="43.34738" lon="2.53642">
        <ele>456.8</ele>
        <time>2013-04-24T09:39:03Z</time>
      </trkpt>
      <trkpt lat="43.34746" lon="2.53646">
        <ele>456.6</ele>
        <time>2013-04-24T09:39:10Z</time>
      </trkpt>
      <trkpt lat="43.34754" lon="2.5365">
        <ele>456</ele>
        <time>2013-04-24T09:39:16Z</time>
      </trkpt>
      <trkpt lat="43.34762" lon="2.53651">
        <ele>456.1</ele>
        <time>2013-04-24T09:39:24Z</time>
      </trkpt>
      <trkpt lat="43.34768" lon="2.53659">
        <ele>454.2</ele>
        <time>2013-04-24T09:39:32Z</time>
      </trkpt>
      <trkpt lat="43.34773" lon="2.53669">
        <ele>451.2</ele>
        <time>2013-04-24T09:39:40Z</time>
      </trkpt>
      <trkpt lat="43.34774" lon="2.5367">
        <ele>450.9</ele>
        <time>2013-04-24T09:39:41Z</time>
      </trkpt>
      <trkpt lat="43.34787" lon="2.5368">
        <ele>448.2</ele>
        <time>2013-04-24T09:39:54Z</time>
      </trkpt>
      <trkpt lat="43.34796" lon="2.5368">
        <ele>448.6</ele>
        <time>2013-04-24T09:40:01Z</time>
      </trkpt>
      <trkpt lat="43.34804" lon="2.5368">
        <ele>448.8</ele>
        <time>2013-04-24T09:40:09Z</time>
      </trkpt>
      <trkpt lat="43.34812" lon="2.53678">
        <ele>449.7</ele>
        <time>2013-04-24T09:40:15Z</time>
      </trkpt>
      <trkpt lat="43.34821" lon="2.53677">
        <ele>450.3</ele>
        <time>2013-04-24T09:40:23Z</time>
      </trkpt>
      <trkpt lat="43.3483" lon="2.53678">
        <ele>450.6</ele>
        <time>2013-04-24T09:40:31Z</time>
      </trkpt>
      <trkpt lat="43.34838" lon="2.53679">
        <ele>450.7</ele>
        <time>2013-04-24T09:40:39Z</time>
      </trkpt>
      <trkpt lat="43.34846" lon="2.53677">
        <ele>451.7</ele>
        <time>2013-04-24T09:40:46Z</time>
      </trkpt>
      <trkpt lat="43.34848" lon="2.53676">
        <ele>452.1</ele>
        <time>2013-04-24T09:40:47Z</time>
      </trkpt>
      <trkpt lat="43.34863" lon="2.53675">
        <ele>453.4</ele>
        <time>2013-04-24T09:40:59Z</time>
      </trkpt>
      <trkpt lat="43.34872" lon="2.53674">
        <ele>454.3</ele>
        <time>2013-04-24T09:41:06Z</time>
      </trkpt>
      <trkpt lat="43.3488" lon="2.53673">
        <ele>454.9</ele>
        <time>2013-04-24T09:41:13Z</time>
      </trkpt>
      <trkpt lat="43.34888" lon="2.53675">
        <ele>454.9</ele>
        <time>2013-04-24T09:41:20Z</time>
      </trkpt>
      <trkpt lat="43.34897" lon="2.53675">
        <ele>455.4</ele>
        <time>2013-04-24T09:41:27Z</time>
      </trkpt>
      <trkpt lat="43.34906" lon="2.53675">
        <ele>455.9</ele>
        <time>2013-04-24T09:41:35Z</time>
      </trkpt>
      <trkpt lat="43.34914" lon="2.53677">
        <ele>455.8</ele>
        <time>2013-04-24T09:41:43Z</time>
      </trkpt>
      <trkpt lat="43.34923" lon="2.5368">
        <ele>454.6</ele>
        <time>2013-04-24T09:41:51Z</time>
      </trkpt>
      <trkpt lat="43.34925" lon="2.53679">
        <ele>454.8</ele>
        <time>2013-04-24T09:41:52Z</time>
      </trkpt>
      <trkpt lat="43.3494" lon="2.53678">
        <ele>454.5</ele>
        <time>2013-04-24T09:42:06Z</time>
      </trkpt>
      <trkpt lat="43.34948" lon="2.53681">
        <ele>453</ele>
        <time>2013-04-24T09:42:14Z</time>
      </trkpt>
      <trkpt lat="43.34957" lon="2.53681">
        <ele>452.7</ele>
        <time>2013-04-24T09:42:20Z</time>
      </trkpt>
      <trkpt lat="43.34964" lon="2.53679">
        <ele>452.9</ele>
        <time>2013-04-24T09:42:27Z</time>
      </trkpt>
      <trkpt lat="43.34973" lon="2.53678">
        <ele>452.5</ele>
        <time>2013-04-24T09:42:33Z</time>
      </trkpt>
      <trkpt lat="43.34981" lon="2.53681">
        <ele>451.2</ele>
        <time>2013-04-24T09:42:40Z</time>
      </trkpt>
      <trkpt lat="43.34989" lon="2.53684">
        <ele>450.2</ele>
        <time>2013-04-24T09:42:47Z</time>
      </trkpt>
      <trkpt lat="43.34998" lon="2.53686">
        <ele>449.2</ele>
        <time>2013-04-24T09:42:54Z</time>
      </trkpt>
      <trkpt lat="43.34999" lon="2.53686">
        <ele>449</ele>
        <time>2013-04-24T09:42:55Z</time>
      </trkpt>
      <trkpt lat="43.35013" lon="2.5369">
        <ele>448.8</ele>
        <time>2013-04-24T09:43:07Z</time>
      </trkpt>
      <trkpt lat="43.35021" lon="2.5369">
        <ele>449.1</ele>
        <time>2013-04-24T09:43:13Z</time>
      </trkpt>
      <trkpt lat="43.35029" lon="2.53689">
        <ele>449.9</ele>
        <time>2013-04-24T09:43:20Z</time>
      </trkpt>
      <trkpt lat="43.35038" lon="2.53686">
        <ele>451</ele>
        <time>2013-04-24T09:43:25Z</time>
      </trkpt>
      <trkpt lat="43.35046" lon="2.53683">
        <ele>451.9</ele>
        <time>2013-04-24T09:43:30Z</time>
      </trkpt>
      <trkpt lat="43.35054" lon="2.53679">
        <ele>453</ele>
        <time>2013-04-24T09:43:37Z</time>
      </trkpt>
      <trkpt lat="43.35061" lon="2.53675">
        <ele>454.1</ele>
        <time>2013-04-24T09:43:44Z</time>
      </trkpt>
      <trkpt lat="43.35068" lon="2.53668">
        <ele>455.5</ele>
        <time>2013-04-24T09:43:51Z</time>
      </trkpt>
      <trkpt lat="43.35076" lon="2.53663">
        <ele>456.7</ele>
        <time>2013-04-24T09:43:58Z</time>
      </trkpt>
      <trkpt lat="43.35077" lon="2.53662">
        <ele>456.8</ele>
        <time>2013-04-24T09:43:59Z</time>
      </trkpt>
      <trkpt lat="43.35093" lon="2.5366">
        <ele>457.9</ele>
        <time>2013-04-24T09:44:12Z</time>
      </trkpt>
      <trkpt lat="43.35101" lon="2.53662">
        <ele>458</ele>
        <time>2013-04-24T09:44:22Z</time>
      </trkpt>
      <trkpt lat="43.35108" lon="2.53668">
        <ele>457.3</ele>
        <time>2013-04-24T09:44:29Z</time>
      </trkpt>
      <trkpt lat="43.35115" lon="2.53674">
        <ele>457.1</ele>
        <time>2013-04-24T09:44:36Z</time>
      </trkpt>
      <trkpt lat="43.35124" lon="2.53676">
        <ele>457.6</ele>
        <time>2013-04-24T09:44:43Z</time>
      </trkpt>
      <trkpt lat="43.35132" lon="2.53676">
        <ele>458.2</ele>
        <time>2013-04-24T09:44:48Z</time>
      </trkpt>
      <trkpt lat="43.3514" lon="2.53676">
        <ele>458.7</ele>
        <time>2013-04-24T09:44:54Z</time>
      </trkpt>
      <trkpt lat="43.35149" lon="2.53675">
        <ele>459.5</ele>
        <time>2013-04-24T09:45:01Z</time>
      </trkpt>
      <trkpt lat="43.35149" lon="2.53675">
        <ele>459.5</ele>
        <time>2013-04-24T09:45:02Z</time>
      </trkpt>
      <trkpt lat="43.35165" lon="2.53665">
        <ele>461.2</ele>
        <time>2013-04-24T09:45:17Z</time>
      </trkpt>
      <trkpt lat="43.35173" lon="2.53659">
        <ele>462.8</ele>
        <time>2013-04-24T09:45:25Z</time>
      </trkpt>
      <trkpt lat="43.35179" lon="2.53651">
        <ele>464.5</ele>
        <time>2013-04-24T09:45:35Z</time>
      </trkpt>
      <trkpt lat="43.35187" lon="2.53647">
        <ele>465.7</ele>
        <time>2013-04-24T09:45:44Z</time>
      </trkpt>
      <trkpt lat="43.35191" lon="2.5364">
        <ele>467</ele>
        <time>2013-04-24T09:45:50Z</time>
      </trkpt>
      <trkpt lat="43.35198" lon="2.53637">
        <ele>467.8</ele>
        <time>2013-04-24T09:45:52Z</time>
      </trkpt>
      <trkpt lat="43.35206" lon="2.53631">
        <ele>468.9</ele>
        <time>2013-04-24T09:45:56Z</time>
      </trkpt>
      <trkpt lat="43.35212" lon="2.53628">
        <ele>469.7</ele>
        <time>2013-04-24T09:45:58Z</time>
      </trkpt>
      <trkpt lat="43.35218" lon="2.53634">
        <ele>469.4</ele>
        <time>2013-04-24T09:46:01Z</time>
      </trkpt>
      <trkpt lat="43.35226" lon="2.53638">
        <ele>469.5</ele>
        <time>2013-04-24T09:46:04Z</time>
      </trkpt>
      <trkpt lat="43.35228" lon="2.53638">
        <ele>469.6</ele>
        <time>2013-04-24T09:46:05Z</time>
      </trkpt>
      <trkpt lat="43.35241" lon="2.53631">
        <ele>471.1</ele>
        <time>2013-04-24T09:46:14Z</time>
      </trkpt>
      <trkpt lat="43.35248" lon="2.53623">
        <ele>472</ele>
        <time>2013-04-24T09:46:19Z</time>
      </trkpt>
      <trkpt lat="43.35255" lon="2.53621">
        <ele>472.4</ele>
        <time>2013-04-24T09:46:24Z</time>
      </trkpt>
      <trkpt lat="43.35258" lon="2.53628">
        <ele>472</ele>
        <time>2013-04-24T09:46:30Z</time>
      </trkpt>
      <trkpt lat="43.35252" lon="2.53638">
        <ele>471.2</ele>
        <time>2013-04-24T09:46:31Z</time>
      </trkpt>
      <trkpt lat="43.35259" lon="2.53644">
        <ele>471</ele>
        <time>2013-04-24T09:46:43Z</time>
      </trkpt>
      <trkpt lat="43.35267" lon="2.53645">
        <ele>471.2</ele>
        <time>2013-04-24T09:46:54Z</time>
      </trkpt>
      <trkpt lat="43.35276" lon="2.53645">
        <ele>471.5</ele>
        <time>2013-04-24T09:47:01Z</time>
      </trkpt>
      <trkpt lat="43.35284" lon="2.53647">
        <ele>471.7</ele>
        <time>2013-04-24T09:47:06Z</time>
      </trkpt>
      <trkpt lat="43.35285" lon="2.53647">
        <ele>471.7</ele>
        <time>2013-04-24T09:47:07Z</time>
      </trkpt>
      <trkpt lat="43.35301" lon="2.53651">
        <ele>472.1</ele>
        <time>2013-04-24T09:47:20Z</time>
      </trkpt>
      <trkpt lat="43.35307" lon="2.53659">
        <ele>472.1</ele>
        <time>2013-04-24T09:47:28Z</time>
      </trkpt>
      <trkpt lat="43.35314" lon="2.53665">
        <ele>472.2</ele>
        <time>2013-04-24T09:47:35Z</time>
      </trkpt>
      <trkpt lat="43.35321" lon="2.5367">
        <ele>472.5</ele>
        <time>2013-04-24T09:47:42Z</time>
      </trkpt>
      <trkpt lat="43.35327" lon="2.53678">
        <ele>472.9</ele>
        <time>2013-04-24T09:47:49Z</time>
      </trkpt>
      <trkpt lat="43.35335" lon="2.53684">
        <ele>473.1</ele>
        <time>2013-04-24T09:47:57Z</time>
      </trkpt>
      <trkpt lat="43.35341" lon="2.53692">
        <ele>472.7</ele>
        <time>2013-04-24T09:48:03Z</time>
      </trkpt>
      <trkpt lat="43.35347" lon="2.53698">
        <ele>472.2</ele>
        <time>2013-04-24T09:48:09Z</time>
      </trkpt>
      <trkpt lat="43.35349" lon="2.53698">
        <ele>472.1</ele>
        <time>2013-04-24T09:48:10Z</time>
      </trkpt>
      <trkpt lat="43.35353" lon="2.53717">
        <ele>471.9</ele>
        <time>2013-04-24T09:48:30Z</time>
      </trkpt>
      <trkpt lat="43.35353" lon="2.53729">
        <ele>472</ele>
        <time>2013-04-24T09:48:50Z</time>
      </trkpt>
      <trkpt lat="43.3535" lon="2.53741">
        <ele>472.3</ele>
        <time>2013-04-24T09:48:55Z</time>
      </trkpt>
      <trkpt lat="43.35353" lon="2.53752">
        <ele>472.2</ele>
        <time>2013-04-24T09:49:16Z</time>
      </trkpt>
      <trkpt lat="43.35353" lon="2.53753">
        <ele>472.2</ele>
        <time>2013-04-24T09:49:17Z</time>
      </trkpt>
      <trkpt lat="43.35358" lon="2.53724">
        <ele>471.5</ele>
        <time>2013-04-24T09:50:24Z</time>
      </trkpt>
      <trkpt lat="43.35348" lon="2.53745">
        <ele>472.6</ele>
        <time>2013-04-24T09:51:01Z</time>
      </trkpt>
      <trkpt lat="43.35356" lon="2.5374">
        <ele>471.8</ele>
        <time>2013-04-24T09:51:04Z</time>
      </trkpt>
      <trkpt lat="43.35364" lon="2.53738">
        <ele>471</ele>
        <time>2013-04-24T09:51:24Z</time>
      </trkpt>
      <trkpt lat="43.35365" lon="2.53738">
        <ele>470.9</ele>
        <time>2013-04-24T09:51:25Z</time>
      </trkpt>
      <trkpt lat="43.3537" lon="2.53726">
        <ele>470.5</ele>
        <time>2013-04-24T09:52:31Z</time>
      </trkpt>
      <trkpt lat="43.35369" lon="2.53725">
        <ele>470.5</ele>
        <time>2013-04-24T09:52:32Z</time>
      </trkpt>
      <trkpt lat="43.3537" lon="2.53727">
        <ele>470.5</ele>
        <time>2013-04-24T09:53:25Z</time>
      </trkpt>
      <trkpt lat="43.35362" lon="2.53733">
        <ele>471.2</ele>
        <time>2013-04-24T09:53:36Z</time>
      </trkpt>
      <trkpt lat="43.35361" lon="2.53734">
        <ele>471.3</ele>
        <time>2013-04-24T09:53:37Z</time>
      </trkpt>
      <trkpt lat="43.35371" lon="2.53714">
        <ele>470.3</ele>
        <time>2013-04-24T09:53:59Z</time>
      </trkpt>
      <trkpt lat="43.35354" lon="2.53723">
        <ele>471.8</ele>
        <time>2013-04-24T09:54:33Z</time>
      </trkpt>
      <trkpt lat="43.35345" lon="2.53725">
        <ele>472.6</ele>
        <time>2013-04-24T09:54:42Z</time>
      </trkpt>
      <trkpt lat="43.35345" lon="2.53725">
        <ele>472.7</ele>
        <time>2013-04-24T09:54:43Z</time>
      </trkpt>
      <trkpt lat="43.3533" lon="2.5373">
        <ele>473.6</ele>
        <time>2013-04-24T09:54:57Z</time>
      </trkpt>
      <trkpt lat="43.35323" lon="2.53736">
        <ele>473.5</ele>
        <time>2013-04-24T09:55:03Z</time>
      </trkpt>
      <trkpt lat="43.35316" lon="2.53744">
        <ele>473.5</ele>
        <time>2013-04-24T09:55:08Z</time>
      </trkpt>
      <trkpt lat="43.35309" lon="2.53749">
        <ele>473.4</ele>
        <time>2013-04-24T09:55:14Z</time>
      </trkpt>
      <trkpt lat="43.35301" lon="2.53754">
        <ele>473.4</ele>
        <time>2013-04-24T09:55:22Z</time>
      </trkpt>
      <trkpt lat="43.35293" lon="2.53758">
        <ele>473.5</ele>
        <time>2013-04-24T09:55:29Z</time>
      </trkpt>
      <trkpt lat="43.35286" lon="2.53763">
        <ele>473.7</ele>
        <time>2013-04-24T09:55:36Z</time>
      </trkpt>
      <trkpt lat="43.35279" lon="2.53769">
        <ele>473.8</ele>
        <time>2013-04-24T09:55:44Z</time>
      </trkpt>
      <trkpt lat="43.35277" lon="2.53769">
        <ele>473.8</ele>
        <time>2013-04-24T09:55:45Z</time>
      </trkpt>
      <trkpt lat="43.35266" lon="2.53779">
        <ele>474.3</ele>
        <time>2013-04-24T09:55:56Z</time>
      </trkpt>
      <trkpt lat="43.3526" lon="2.53788">
        <ele>474.8</ele>
        <time>2013-04-24T09:56:02Z</time>
      </trkpt>
      <trkpt lat="43.35255" lon="2.53797">
        <ele>475.4</ele>
        <time>2013-04-24T09:56:08Z</time>
      </trkpt>
      <trkpt lat="43.3525" lon="2.53805">
        <ele>475.8</ele>
        <time>2013-04-24T09:56:15Z</time>
      </trkpt>
      <trkpt lat="43.35247" lon="2.53815">
        <ele>476.1</ele>
        <time>2013-04-24T09:56:22Z</time>
      </trkpt>
      <trkpt lat="43.35243" lon="2.53825">
        <ele>476.1</ele>
        <time>2013-04-24T09:56:28Z</time>
      </trkpt>
      <trkpt lat="43.35239" lon="2.53836">
        <ele>476</ele>
        <time>2013-04-24T09:56:36Z</time>
      </trkpt>
      <trkpt lat="43.35233" lon="2.53844">
        <ele>475.2</ele>
        <time>2013-04-24T09:56:42Z</time>
      </trkpt>
      <trkpt lat="43.35229" lon="2.53853">
        <ele>474.6</ele>
        <time>2013-04-24T09:56:48Z</time>
      </trkpt>
      <trkpt lat="43.35228" lon="2.53855">
        <ele>474.5</ele>
        <time>2013-04-24T09:56:49Z</time>
      </trkpt>
      <trkpt lat="43.35227" lon="2.53875">
        <ele>475</ele>
        <time>2013-04-24T09:57:00Z</time>
      </trkpt>
      <trkpt lat="43.35225" lon="2.53887">
        <ele>475</ele>
        <time>2013-04-24T09:57:06Z</time>
      </trkpt>
      <trkpt lat="43.35224" lon="2.53897">
        <ele>475.1</ele>
        <time>2013-04-24T09:57:12Z</time>
      </trkpt>
      <trkpt lat="43.35224" lon="2.5391">
        <ele>475.5</ele>
        <time>2013-04-24T09:57:19Z</time>
      </trkpt>
      <trkpt lat="43.35222" lon="2.53922">
        <ele>474.9</ele>
        <time>2013-04-24T09:57:26Z</time>
      </trkpt>
      <trkpt lat="43.35223" lon="2.53934">
        <ele>473.9</ele>
        <time>2013-04-24T09:57:33Z</time>
      </trkpt>
      <trkpt lat="43.35221" lon="2.53944">
        <ele>472.3</ele>
        <time>2013-04-24T09:57:39Z</time>
      </trkpt>
      <trkpt lat="43.35219" lon="2.53956">
        <ele>470.9</ele>
        <time>2013-04-24T09:57:45Z</time>
      </trkpt>
      <trkpt lat="43.3522" lon="2.53967">
        <ele>470</ele>
        <time>2013-04-24T09:57:52Z</time>
      </trkpt>
      <trkpt lat="43.3522" lon="2.53969">
        <ele>469.8</ele>
        <time>2013-04-24T09:57:53Z</time>
      </trkpt>
      <trkpt lat="43.3522" lon="2.53988">
        <ele>467.7</ele>
        <time>2013-04-24T09:58:04Z</time>
      </trkpt>
      <trkpt lat="43.35219" lon="2.53999">
        <ele>466.6</ele>
        <time>2013-04-24T09:58:10Z</time>
      </trkpt>
      <trkpt lat="43.35219" lon="2.5401">
        <ele>464.7</ele>
        <time>2013-04-24T09:58:15Z</time>
      </trkpt>
      <trkpt lat="43.35219" lon="2.54021">
        <ele>462.4</ele>
        <time>2013-04-24T09:58:21Z</time>
      </trkpt>
      <trkpt lat="43.35217" lon="2.54033">
        <ele>459.9</ele>
        <time>2013-04-24T09:58:28Z</time>
      </trkpt>
      <trkpt lat="43.35217" lon="2.54046">
        <ele>457.6</ele>
        <time>2013-04-24T09:58:35Z</time>
      </trkpt>
      <trkpt lat="43.35217" lon="2.54057">
        <ele>455.4</ele>
        <time>2013-04-24T09:58:42Z</time>
      </trkpt>
      <trkpt lat="43.35219" lon="2.54069">
        <ele>453.4</ele>
        <time>2013-04-24T09:58:49Z</time>
      </trkpt>
      <trkpt lat="43.35225" lon="2.54078">
        <ele>451.9</ele>
        <time>2013-04-24T09:58:56Z</time>
      </trkpt>
      <trkpt lat="43.35226" lon="2.54079">
        <ele>451.7</ele>
        <time>2013-04-24T09:58:57Z</time>
      </trkpt>
      <trkpt lat="43.35238" lon="2.54091">
        <ele>449</ele>
        <time>2013-04-24T09:59:09Z</time>
      </trkpt>
      <trkpt lat="43.35246" lon="2.54096">
        <ele>447.6</ele>
        <time>2013-04-24T09:59:16Z</time>
      </trkpt>
      <trkpt lat="43.35254" lon="2.54098">
        <ele>447.4</ele>
        <time>2013-04-24T09:59:23Z</time>
      </trkpt>
      <trkpt lat="43.35262" lon="2.541">
        <ele>447.7</ele>
        <time>2013-04-24T09:59:32Z</time>
      </trkpt>
      <trkpt lat="43.35271" lon="2.54101">
        <ele>448.3</ele>
        <time>2013-04-24T09:59:40Z</time>
      </trkpt>
      <trkpt lat="43.35279" lon="2.54103">
        <ele>448.9</ele>
        <time>2013-04-24T09:59:47Z</time>
      </trkpt>
      <trkpt lat="43.35287" lon="2.54105">
        <ele>449.2</ele>
        <time>2013-04-24T09:59:53Z</time>
      </trkpt>
      <trkpt lat="43.35295" lon="2.54107">
        <ele>449.7</ele>
        <time>2013-04-24T10:00:00Z</time>
      </trkpt>
      <trkpt lat="43.35296" lon="2.54107">
        <ele>449.7</ele>
        <time>2013-04-24T10:00:01Z</time>
      </trkpt>
      <trkpt lat="43.35312" lon="2.54112">
        <ele>449.9</ele>
        <time>2013-04-24T10:00:16Z</time>
      </trkpt>
      <trkpt lat="43.35319" lon="2.54116">
        <ele>449.7</ele>
        <time>2013-04-24T10:00:23Z</time>
      </trkpt>
      <trkpt lat="43.35328" lon="2.54119">
        <ele>449.7</ele>
        <time>2013-04-24T10:00:30Z</time>
      </trkpt>
      <trkpt lat="43.35336" lon="2.54121">
        <ele>450.8</ele>
        <time>2013-04-24T10:00:37Z</time>
      </trkpt>
      <trkpt lat="43.35344" lon="2.54124">
        <ele>451.4</ele>
        <time>2013-04-24T10:00:44Z</time>
      </trkpt>
      <trkpt lat="43.35353" lon="2.54128">
        <ele>452.4</ele>
        <time>2013-04-24T10:00:51Z</time>
      </trkpt>
      <trkpt lat="43.35361" lon="2.54132">
        <ele>453.2</ele>
        <time>2013-04-24T10:00:58Z</time>
      </trkpt>
      <trkpt lat="43.35368" lon="2.54138">
        <ele>453.1</ele>
        <time>2013-04-24T10:01:06Z</time>
      </trkpt>
      <trkpt lat="43.3537" lon="2.54139">
        <ele>453.1</ele>
        <time>2013-04-24T10:01:07Z</time>
      </trkpt>
      <trkpt lat="43.35385" lon="2.54143">
        <ele>456</ele>
        <time>2013-04-24T10:01:18Z</time>
      </trkpt>
      <trkpt lat="43.35393" lon="2.54145">
        <ele>457.7</ele>
        <time>2013-04-24T10:01:24Z</time>
      </trkpt>
      <trkpt lat="43.35401" lon="2.54146">
        <ele>459.5</ele>
        <time>2013-04-24T10:01:30Z</time>
      </trkpt>
      <trkpt lat="43.35409" lon="2.54148">
        <ele>461.2</ele>
        <time>2013-04-24T10:01:36Z</time>
      </trkpt>
      <trkpt lat="43.35417" lon="2.54154">
        <ele>461.8</ele>
        <time>2013-04-24T10:01:43Z</time>
      </trkpt>
      <trkpt lat="43.35423" lon="2.54161">
        <ele>461.5</ele>
        <time>2013-04-24T10:01:51Z</time>
      </trkpt>
      <trkpt lat="43.3543" lon="2.54169">
        <ele>460.8</ele>
        <time>2013-04-24T10:01:58Z</time>
      </trkpt>
      <trkpt lat="43.35434" lon="2.5418">
        <ele>457.8</ele>
        <time>2013-04-24T10:02:08Z</time>
      </trkpt>
      <trkpt lat="43.35434" lon="2.54181">
        <ele>457.5</ele>
        <time>2013-04-24T10:02:09Z</time>
      </trkpt>
      <trkpt lat="43.35445" lon="2.54196">
        <ele>454.6</ele>
        <time>2013-04-24T10:02:24Z</time>
      </trkpt>
      <trkpt lat="43.35451" lon="2.54205">
        <ele>452.9</ele>
        <time>2013-04-24T10:02:32Z</time>
      </trkpt>
      <trkpt lat="43.35457" lon="2.54215">
        <ele>451</ele>
        <time>2013-04-24T10:02:39Z</time>
      </trkpt>
      <trkpt lat="43.35461" lon="2.54224">
        <ele>449.1</ele>
        <time>2013-04-24T10:02:46Z</time>
      </trkpt>
      <trkpt lat="43.35468" lon="2.54232">
        <ele>448.2</ele>
        <time>2013-04-24T10:02:54Z</time>
      </trkpt>
      <trkpt lat="43.35474" lon="2.54237">
        <ele>448.2</ele>
        <time>2013-04-24T10:03:02Z</time>
      </trkpt>
      <trkpt lat="43.35481" lon="2.54245">
        <ele>447.6</ele>
        <time>2013-04-24T10:03:10Z</time>
      </trkpt>
      <trkpt lat="43.35481" lon="2.54246">
        <ele>447.2</ele>
        <time>2013-04-24T10:03:11Z</time>
      </trkpt>
      <trkpt lat="43.35491" lon="2.54262">
        <ele>444.8</ele>
        <time>2013-04-24T10:03:23Z</time>
      </trkpt>
      <trkpt lat="43.35498" lon="2.5427">
        <ele>444.3</ele>
        <time>2013-04-24T10:03:29Z</time>
      </trkpt>
      <trkpt lat="43.35502" lon="2.5428">
        <ele>442.4</ele>
        <time>2013-04-24T10:03:37Z</time>
      </trkpt>
      <trkpt lat="43.35507" lon="2.54288">
        <ele>441.6</ele>
        <time>2013-04-24T10:03:43Z</time>
      </trkpt>
      <trkpt lat="43.35511" lon="2.54297">
        <ele>439.8</ele>
        <time>2013-04-24T10:03:49Z</time>
      </trkpt>
      <trkpt lat="43.35517" lon="2.54306">
        <ele>439</ele>
        <time>2013-04-24T10:03:56Z</time>
      </trkpt>
      <trkpt lat="43.35524" lon="2.54314">
        <ele>438.8</ele>
        <time>2013-04-24T10:04:02Z</time>
      </trkpt>
      <trkpt lat="43.3553" lon="2.54323">
        <ele>438</ele>
        <time>2013-04-24T10:04:10Z</time>
      </trkpt>
      <trkpt lat="43.35536" lon="2.54331">
        <ele>437.4</ele>
        <time>2013-04-24T10:04:19Z</time>
      </trkpt>
      <trkpt lat="43.35536" lon="2.54332">
        <ele>437.3</ele>
        <time>2013-04-24T10:04:20Z</time>
      </trkpt>
      <trkpt lat="43.35549" lon="2.54344">
        <ele>437.4</ele>
        <time>2013-04-24T10:04:32Z</time>
      </trkpt>
      <trkpt lat="43.35556" lon="2.54351">
        <ele>437.4</ele>
        <time>2013-04-24T10:04:39Z</time>
      </trkpt>
      <trkpt lat="43.35563" lon="2.54358">
        <ele>436.9</ele>
        <time>2013-04-24T10:04:46Z</time>
      </trkpt>
      <trkpt lat="43.3557" lon="2.54365">
        <ele>436.8</ele>
        <time>2013-04-24T10:04:54Z</time>
      </trkpt>
      <trkpt lat="43.35577" lon="2.54372">
        <ele>436.7</ele>
        <time>2013-04-24T10:05:01Z</time>
      </trkpt>
      <trkpt lat="43.35583" lon="2.54379">
        <ele>436.1</ele>
        <time>2013-04-24T10:05:06Z</time>
      </trkpt>
      <trkpt lat="43.35589" lon="2.54387">
        <ele>435.3</ele>
        <time>2013-04-24T10:05:13Z</time>
      </trkpt>
      <trkpt lat="43.35597" lon="2.54393">
        <ele>435.8</ele>
        <time>2013-04-24T10:05:20Z</time>
      </trkpt>
      <trkpt lat="43.35598" lon="2.54394">
        <ele>435.7</ele>
        <time>2013-04-24T10:05:21Z</time>
      </trkpt>
      <trkpt lat="43.3561" lon="2.54405">
        <ele>435.8</ele>
        <time>2013-04-24T10:05:34Z</time>
      </trkpt>
      <trkpt lat="43.35618" lon="2.5441">
        <ele>436.3</ele>
        <time>2013-04-24T10:05:41Z</time>
      </trkpt>
      <trkpt lat="43.35624" lon="2.54417">
        <ele>435.7</ele>
        <time>2013-04-24T10:05:48Z</time>
      </trkpt>
      <trkpt lat="43.35631" lon="2.54425">
        <ele>435.4</ele>
        <time>2013-04-24T10:05:56Z</time>
      </trkpt>
      <trkpt lat="43.35637" lon="2.54433">
        <ele>434.8</ele>
        <time>2013-04-24T10:06:03Z</time>
      </trkpt>
      <trkpt lat="43.35643" lon="2.54441">
        <ele>434.8</ele>
        <time>2013-04-24T10:06:11Z</time>
      </trkpt>
      <trkpt lat="43.3565" lon="2.54449">
        <ele>434.8</ele>
        <time>2013-04-24T10:06:18Z</time>
      </trkpt>
      <trkpt lat="43.35656" lon="2.54458">
        <ele>434.4</ele>
        <time>2013-04-24T10:06:26Z</time>
      </trkpt>
      <trkpt lat="43.35657" lon="2.54459">
        <ele>434.5</ele>
        <time>2013-04-24T10:06:27Z</time>
      </trkpt>
      <trkpt lat="43.35669" lon="2.54474">
        <ele>435</ele>
        <time>2013-04-24T10:06:40Z</time>
      </trkpt>
      <trkpt lat="43.35674" lon="2.54482">
        <ele>435.1</ele>
        <time>2013-04-24T10:06:47Z</time>
      </trkpt>
      <trkpt lat="43.3568" lon="2.54491">
        <ele>435.3</ele>
        <time>2013-04-24T10:06:54Z</time>
      </trkpt>
      <trkpt lat="43.35686" lon="2.54498">
        <ele>435.8</ele>
        <time>2013-04-24T10:07:01Z</time>
      </trkpt>
      <trkpt lat="43.35692" lon="2.54506">
        <ele>436.4</ele>
        <time>2013-04-24T10:07:08Z</time>
      </trkpt>
      <trkpt lat="43.35698" lon="2.54512">
        <ele>437.4</ele>
        <time>2013-04-24T10:07:15Z</time>
      </trkpt>
      <trkpt lat="43.35704" lon="2.54519">
        <ele>437.7</ele>
        <time>2013-04-24T10:07:22Z</time>
      </trkpt>
      <trkpt lat="43.3571" lon="2.54527">
        <ele>438.4</ele>
        <time>2013-04-24T10:07:29Z</time>
      </trkpt>
      <trkpt lat="43.35711" lon="2.54528">
        <ele>438.6</ele>
        <time>2013-04-24T10:07:30Z</time>
      </trkpt>
      <trkpt lat="43.35721" lon="2.54545">
        <ele>438</ele>
        <time>2013-04-24T10:07:44Z</time>
      </trkpt>
      <trkpt lat="43.35725" lon="2.54555">
        <ele>437.2</ele>
        <time>2013-04-24T10:07:51Z</time>
      </trkpt>
      <trkpt lat="43.35728" lon="2.54565">
        <ele>435.8</ele>
        <time>2013-04-24T10:07:59Z</time>
      </trkpt>
      <trkpt lat="43.35732" lon="2.54575">
        <ele>435</ele>
        <time>2013-04-24T10:08:05Z</time>
      </trkpt>
      <trkpt lat="43.35735" lon="2.54587">
        <ele>433.4</ele>
        <time>2013-04-24T10:08:13Z</time>
      </trkpt>
      <trkpt lat="43.35739" lon="2.54597">
        <ele>432.2</ele>
        <time>2013-04-24T10:08:21Z</time>
      </trkpt>
      <trkpt lat="43.35743" lon="2.54609">
        <ele>430.8</ele>
        <time>2013-04-24T10:08:28Z</time>
      </trkpt>
      <trkpt lat="43.35747" lon="2.54618">
        <ele>430.3</ele>
        <time>2013-04-24T10:08:34Z</time>
      </trkpt>
      <trkpt lat="43.35748" lon="2.54619">
        <ele>430.2</ele>
        <time>2013-04-24T10:08:35Z</time>
      </trkpt>
      <trkpt lat="43.35756" lon="2.54637">
        <ele>428</ele>
        <time>2013-04-24T10:08:48Z</time>
      </trkpt>
      <trkpt lat="43.3576" lon="2.54647">
        <ele>426.2</ele>
        <time>2013-04-24T10:08:55Z</time>
      </trkpt>
      <trkpt lat="43.35764" lon="2.54657">
        <ele>424.3</ele>
        <time>2013-04-24T10:09:01Z</time>
      </trkpt>
      <trkpt lat="43.35767" lon="2.54668">
        <ele>421.8</ele>
        <time>2013-04-24T10:09:08Z</time>
      </trkpt>
      <trkpt lat="43.35771" lon="2.54677">
        <ele>419.9</ele>
        <time>2013-04-24T10:09:15Z</time>
      </trkpt>
      <trkpt lat="43.35775" lon="2.54687">
        <ele>418.1</ele>
        <time>2013-04-24T10:09:21Z</time>
      </trkpt>
      <trkpt lat="43.35779" lon="2.54696">
        <ele>416.4</ele>
        <time>2013-04-24T10:09:27Z</time>
      </trkpt>
      <trkpt lat="43.35783" lon="2.54707">
        <ele>413.8</ele>
        <time>2013-04-24T10:09:34Z</time>
      </trkpt>
      <trkpt lat="43.35787" lon="2.54716">
        <ele>411.9</ele>
        <time>2013-04-24T10:09:41Z</time>
      </trkpt>
      <trkpt lat="43.35788" lon="2.54717">
        <ele>411.5</ele>
        <time>2013-04-24T10:09:42Z</time>
      </trkpt>
      <trkpt lat="43.35798" lon="2.54733">
        <ele>408.1</ele>
        <time>2013-04-24T10:09:55Z</time>
      </trkpt>
      <trkpt lat="43.35802" lon="2.54742">
        <ele>406</ele>
        <time>2013-04-24T10:10:02Z</time>
      </trkpt>
      <trkpt lat="43.35806" lon="2.54752">
        <ele>403</ele>
        <time>2013-04-24T10:10:09Z</time>
      </trkpt>
      <trkpt lat="43.35808" lon="2.54763">
        <ele>398.5</ele>
        <time>2013-04-24T10:10:16Z</time>
      </trkpt>
      <trkpt lat="43.35811" lon="2.54774">
        <ele>394.3</ele>
        <time>2013-04-24T10:10:23Z</time>
      </trkpt>
      <trkpt lat="43.35815" lon="2.54784">
        <ele>390.1</ele>
        <time>2013-04-24T10:10:30Z</time>
      </trkpt>
      <trkpt lat="43.35819" lon="2.54794">
        <ele>386.3</ele>
        <time>2013-04-24T10:10:37Z</time>
      </trkpt>
      <trkpt lat="43.35825" lon="2.54803">
        <ele>382.7</ele>
        <time>2013-04-24T10:10:45Z</time>
      </trkpt>
      <trkpt lat="43.35825" lon="2.54804">
        <ele>382.3</ele>
        <time>2013-04-24T10:10:46Z</time>
      </trkpt>
      <trkpt lat="43.35839" lon="2.54815">
        <ele>377.5</ele>
        <time>2013-04-24T10:11:00Z</time>
      </trkpt>
      <trkpt lat="43.35847" lon="2.54816">
        <ele>376.6</ele>
        <time>2013-04-24T10:11:07Z</time>
      </trkpt>
      <trkpt lat="43.35855" lon="2.5481">
        <ele>378.4</ele>
        <time>2013-04-24T10:11:15Z</time>
      </trkpt>
      <trkpt lat="43.35864" lon="2.54807">
        <ele>379.1</ele>
        <time>2013-04-24T10:11:24Z</time>
      </trkpt>
      <trkpt lat="43.35871" lon="2.54805">
        <ele>379.6</ele>
        <time>2013-04-24T10:11:34Z</time>
      </trkpt>
      <trkpt lat="43.35879" lon="2.54803">
        <ele>379.9</ele>
        <time>2013-04-24T10:11:43Z</time>
      </trkpt>
      <trkpt lat="43.35888" lon="2.548">
        <ele>380.9</ele>
        <time>2013-04-24T10:11:52Z</time>
      </trkpt>
      <trkpt lat="43.35889" lon="2.54799">
        <ele>380.9</ele>
        <time>2013-04-24T10:11:53Z</time>
      </trkpt>
      <trkpt lat="43.35904" lon="2.54792">
        <ele>383</ele>
        <time>2013-04-24T10:12:09Z</time>
      </trkpt>
      <trkpt lat="43.35912" lon="2.54788">
        <ele>383.9</ele>
        <time>2013-04-24T10:12:18Z</time>
      </trkpt>
      <trkpt lat="43.3592" lon="2.54785">
        <ele>385.7</ele>
        <time>2013-04-24T10:12:26Z</time>
      </trkpt>
      <trkpt lat="43.35928" lon="2.54785">
        <ele>387.6</ele>
        <time>2013-04-24T10:12:34Z</time>
      </trkpt>
      <trkpt lat="43.35937" lon="2.54781">
        <ele>390.9</ele>
        <time>2013-04-24T10:12:42Z</time>
      </trkpt>
      <trkpt lat="43.35944" lon="2.54778">
        <ele>393.8</ele>
        <time>2013-04-24T10:12:49Z</time>
      </trkpt>
      <trkpt lat="43.35951" lon="2.54772">
        <ele>397.7</ele>
        <time>2013-04-24T10:12:57Z</time>
      </trkpt>
      <trkpt lat="43.35952" lon="2.54771">
        <ele>398.2</ele>
        <time>2013-04-24T10:12:58Z</time>
      </trkpt>
      <trkpt lat="43.35965" lon="2.54759">
        <ele>405.8</ele>
        <time>2013-04-24T10:13:12Z</time>
      </trkpt>
      <trkpt lat="43.35972" lon="2.54753">
        <ele>410.2</ele>
        <time>2013-04-24T10:13:17Z</time>
      </trkpt>
      <trkpt lat="43.3598" lon="2.54747">
        <ele>414.1</ele>
        <time>2013-04-24T10:13:23Z</time>
      </trkpt>
      <trkpt lat="43.35985" lon="2.54737">
        <ele>419.5</ele>
        <time>2013-04-24T10:13:32Z</time>
      </trkpt>
      <trkpt lat="43.35993" lon="2.54742">
        <ele>419.1</ele>
        <time>2013-04-24T10:13:35Z</time>
      </trkpt>
      <trkpt lat="43.36" lon="2.54749">
        <ele>417.6</ele>
        <time>2013-04-24T10:13:39Z</time>
      </trkpt>
      <trkpt lat="43.36008" lon="2.54749">
        <ele>418.5</ele>
        <time>2013-04-24T10:13:50Z</time>
      </trkpt>
      <trkpt lat="43.36016" lon="2.54745">
        <ele>420.8</ele>
        <time>2013-04-24T10:13:59Z</time>
      </trkpt>
      <trkpt lat="43.36017" lon="2.54746">
        <ele>420.5</ele>
        <time>2013-04-24T10:14:00Z</time>
      </trkpt>
      <trkpt lat="43.36029" lon="2.54759">
        <ele>416.1</ele>
        <time>2013-04-24T10:14:14Z</time>
      </trkpt>
      <trkpt lat="43.36035" lon="2.54766">
        <ele>414.3</ele>
        <time>2013-04-24T10:14:22Z</time>
      </trkpt>
      <trkpt lat="43.36042" lon="2.54772">
        <ele>412.6</ele>
        <time>2013-04-24T10:14:29Z</time>
      </trkpt>
      <trkpt lat="43.3605" lon="2.54775">
        <ele>412.5</ele>
        <time>2013-04-24T10:14:38Z</time>
      </trkpt>
      <trkpt lat="43.36058" lon="2.54779">
        <ele>412</ele>
        <time>2013-04-24T10:14:47Z</time>
      </trkpt>
      <trkpt lat="43.36066" lon="2.5478">
        <ele>412.6</ele>
        <time>2013-04-24T10:14:58Z</time>
      </trkpt>
      <trkpt lat="43.36074" lon="2.54778">
        <ele>414.2</ele>
        <time>2013-04-24T10:15:06Z</time>
      </trkpt>
      <trkpt lat="43.36077" lon="2.54779">
        <ele>414.3</ele>
        <time>2013-04-24T10:15:07Z</time>
      </trkpt>
      <trkpt lat="43.36091" lon="2.54778">
        <ele>414</ele>
        <time>2013-04-24T10:15:26Z</time>
      </trkpt>
      <trkpt lat="43.36099" lon="2.54774">
        <ele>413.9</ele>
        <time>2013-04-24T10:15:34Z</time>
      </trkpt>
      <trkpt lat="43.36108" lon="2.54778">
        <ele>411.3</ele>
        <time>2013-04-24T10:15:43Z</time>
      </trkpt>
      <trkpt lat="43.36113" lon="2.54786">
        <ele>407.9</ele>
        <time>2013-04-24T10:15:51Z</time>
      </trkpt>
      <trkpt lat="43.36117" lon="2.54797">
        <ele>404.2</ele>
        <time>2013-04-24T10:15:59Z</time>
      </trkpt>
      <trkpt lat="43.36122" lon="2.54807">
        <ele>400.7</ele>
        <time>2013-04-24T10:16:08Z</time>
      </trkpt>
      <trkpt lat="43.36122" lon="2.54808">
        <ele>400.4</ele>
        <time>2013-04-24T10:16:09Z</time>
      </trkpt>
      <trkpt lat="43.3613" lon="2.54826">
        <ele>394.3</ele>
        <time>2013-04-24T10:16:24Z</time>
      </trkpt>
      <trkpt lat="43.36135" lon="2.54836">
        <ele>391.6</ele>
        <time>2013-04-24T10:16:32Z</time>
      </trkpt>
      <trkpt lat="43.36142" lon="2.54842">
        <ele>390.1</ele>
        <time>2013-04-24T10:16:40Z</time>
      </trkpt>
      <trkpt lat="43.3615" lon="2.54836">
        <ele>389.8</ele>
        <time>2013-04-24T10:16:49Z</time>
      </trkpt>
      <trkpt lat="43.36155" lon="2.54827">
        <ele>391.1</ele>
        <time>2013-04-24T10:16:57Z</time>
      </trkpt>
      <trkpt lat="43.36159" lon="2.54817">
        <ele>392.8</ele>
        <time>2013-04-24T10:17:05Z</time>
      </trkpt>
      <trkpt lat="43.36165" lon="2.54808">
        <ele>394.2</ele>
        <time>2013-04-24T10:17:13Z</time>
      </trkpt>
      <trkpt lat="43.36165" lon="2.54807">
        <ele>394.4</ele>
        <time>2013-04-24T10:17:14Z</time>
      </trkpt>
      <trkpt lat="43.36173" lon="2.54788">
        <ele>399.1</ele>
        <time>2013-04-24T10:17:30Z</time>
      </trkpt>
      <trkpt lat="43.36179" lon="2.54779">
        <ele>401.6</ele>
        <time>2013-04-24T10:17:40Z</time>
      </trkpt>
      <trkpt lat="43.3618" lon="2.54768">
        <ele>403.8</ele>
        <time>2013-04-24T10:17:49Z</time>
      </trkpt>
      <trkpt lat="43.36174" lon="2.54761">
        <ele>404.9</ele>
        <time>2013-04-24T10:17:53Z</time>
      </trkpt>
      <trkpt lat="43.36169" lon="2.54753">
        <ele>406.5</ele>
        <time>2013-04-24T10:17:58Z</time>
      </trkpt>
      <trkpt lat="43.36162" lon="2.54747">
        <ele>409.3</ele>
        <time>2013-04-24T10:18:04Z</time>
      </trkpt>
      <trkpt lat="43.36165" lon="2.54742">
        <ele>411</ele>
        <time>2013-04-24T10:18:08Z</time>
      </trkpt>
      <trkpt lat="43.36175" lon="2.54741">
        <ele>411.6</ele>
        <time>2013-04-24T10:18:09Z</time>
      </trkpt>
      <trkpt lat="43.36183" lon="2.54736">
        <ele>414</ele>
        <time>2013-04-24T10:18:13Z</time>
      </trkpt>
      <trkpt lat="43.36191" lon="2.54735">
        <ele>414.2</ele>
        <time>2013-04-24T10:18:14Z</time>
      </trkpt>
      <trkpt lat="43.36193" lon="2.54735">
        <ele>414.5</ele>
        <time>2013-04-24T10:18:15Z</time>
      </trkpt>
      <trkpt lat="43.36205" lon="2.54723">
        <ele>419.9</ele>
        <time>2013-04-24T10:18:23Z</time>
      </trkpt>
      <trkpt lat="43.36211" lon="2.54716">
        <ele>423.1</ele>
        <time>2013-04-24T10:18:34Z</time>
      </trkpt>
      <trkpt lat="43.36211" lon="2.54714">
        <ele>423.9</ele>
        <time>2013-04-24T10:20:05Z</time>
      </trkpt>
      <trkpt lat="43.36242" lon="2.548">
        <ele>405.6</ele>
        <time>2013-04-24T10:21:33Z</time>
      </trkpt>
      <trkpt lat="43.36241" lon="2.54803">
        <ele>405.3</ele>
        <time>2013-04-24T10:21:34Z</time>
      </trkpt>
      <trkpt lat="43.36248" lon="2.54814">
        <ele>405.6</ele>
        <time>2013-04-24T10:21:35Z</time>
      </trkpt>
      <trkpt lat="43.3625" lon="2.54818">
        <ele>405.7</ele>
        <time>2013-04-24T10:21:36Z</time>
      </trkpt>
      <trkpt lat="43.36257" lon="2.54827">
        <ele>407.2</ele>
        <time>2013-04-24T10:21:37Z</time>
      </trkpt>
      <trkpt lat="43.36297" lon="2.5488">
        <ele>436.4</ele>
        <time>2013-04-24T10:21:43Z</time>
      </trkpt>
      <trkpt lat="43.36291" lon="2.54876">
        <ele>433.1</ele>
        <time>2013-04-24T10:21:50Z</time>
      </trkpt>
      <trkpt lat="43.36285" lon="2.54877">
        <ele>431.2</ele>
        <time>2013-04-24T10:21:52Z</time>
      </trkpt>
      <trkpt lat="43.3628" lon="2.5488">
        <ele>430.3</ele>
        <time>2013-04-24T10:21:55Z</time>
      </trkpt>
      <trkpt lat="43.36287" lon="2.54889">
        <ele>436.2</ele>
        <time>2013-04-24T10:21:56Z</time>
      </trkpt>
      <trkpt lat="43.36288" lon="2.549">
        <ele>440.6</ele>
        <time>2013-04-24T10:22:00Z</time>
      </trkpt>
      <trkpt lat="43.36293" lon="2.54909">
        <ele>446.2</ele>
        <time>2013-04-24T10:22:05Z</time>
      </trkpt>
      <trkpt lat="43.36473" lon="2.54637">
        <ele>488.5</ele>
        <time>2013-04-24T10:22:13Z</time>
      </trkpt>
      <trkpt lat="43.36465" lon="2.5464">
        <ele>485.6</ele>
        <time>2013-04-24T10:22:16Z</time>
      </trkpt>
      <trkpt lat="43.36457" lon="2.54648">
        <ele>480.1</ele>
        <time>2013-04-24T10:22:18Z</time>
      </trkpt>
      <trkpt lat="43.36458" lon="2.5466">
        <ele>475.3</ele>
        <time>2013-04-24T10:22:24Z</time>
      </trkpt>
      <trkpt lat="43.36466" lon="2.54665">
        <ele>475</ele>
        <time>2013-04-24T10:22:34Z</time>
      </trkpt>
      <trkpt lat="43.36467" lon="2.54666">
        <ele>475.1</ele>
        <time>2013-04-24T10:22:35Z</time>
      </trkpt>
      <trkpt lat="43.3648" lon="2.54673">
        <ele>475.5</ele>
        <time>2013-04-24T10:22:51Z</time>
      </trkpt>
      <trkpt lat="43.36488" lon="2.54678">
        <ele>475.7</ele>
        <time>2013-04-24T10:23:03Z</time>
      </trkpt>
      <trkpt lat="43.36496" lon="2.54679">
        <ele>477.6</ele>
        <time>2013-04-24T10:23:18Z</time>
      </trkpt>
      <trkpt lat="43.36505" lon="2.54681">
        <ele>479.7</ele>
        <time>2013-04-24T10:23:31Z</time>
      </trkpt>
      <trkpt lat="43.36513" lon="2.54682">
        <ele>483.6</ele>
        <time>2013-04-24T10:23:42Z</time>
      </trkpt>
      <trkpt lat="43.36514" lon="2.54682">
        <ele>483.8</ele>
        <time>2013-04-24T10:23:43Z</time>
      </trkpt>
      <trkpt lat="43.3653" lon="2.54686">
        <ele>490.1</ele>
        <time>2013-04-24T10:25:52Z</time>
      </trkpt>
      <trkpt lat="43.36531" lon="2.54686">
        <ele>490.4</ele>
        <time>2013-04-24T10:25:53Z</time>
      </trkpt>
      <trkpt lat="43.36546" lon="2.54695">
        <ele>494.6</ele>
        <time>2013-04-24T10:26:06Z</time>
      </trkpt>
      <trkpt lat="43.36554" lon="2.547">
        <ele>496.5</ele>
        <time>2013-04-24T10:26:14Z</time>
      </trkpt>
      <trkpt lat="43.3656" lon="2.54707">
        <ele>497</ele>
        <time>2013-04-24T10:26:20Z</time>
      </trkpt>
      <trkpt lat="43.36567" lon="2.54713">
        <ele>498.3</ele>
        <time>2013-04-24T10:26:27Z</time>
      </trkpt>
      <trkpt lat="43.36574" lon="2.54719">
        <ele>499.3</ele>
        <time>2013-04-24T10:26:33Z</time>
      </trkpt>
      <trkpt lat="43.3658" lon="2.54727">
        <ele>499.9</ele>
        <time>2013-04-24T10:26:41Z</time>
      </trkpt>
      <trkpt lat="43.36586" lon="2.54735">
        <ele>499.8</ele>
        <time>2013-04-24T10:26:48Z</time>
      </trkpt>
      <trkpt lat="43.36591" lon="2.54745">
        <ele>498.2</ele>
        <time>2013-04-24T10:26:56Z</time>
      </trkpt>
      <trkpt lat="43.36592" lon="2.54745">
        <ele>498.3</ele>
        <time>2013-04-24T10:26:57Z</time>
      </trkpt>
      <trkpt lat="43.36602" lon="2.54763">
        <ele>497</ele>
        <time>2013-04-24T10:27:12Z</time>
      </trkpt>
      <trkpt lat="43.36606" lon="2.54772">
        <ele>496.2</ele>
        <time>2013-04-24T10:27:19Z</time>
      </trkpt>
      <trkpt lat="43.36611" lon="2.54782">
        <ele>495.3</ele>
        <time>2013-04-24T10:27:25Z</time>
      </trkpt>
      <trkpt lat="43.36614" lon="2.54792">
        <ele>493.9</ele>
        <time>2013-04-24T10:27:31Z</time>
      </trkpt>
      <trkpt lat="43.36617" lon="2.54803">
        <ele>492.5</ele>
        <time>2013-04-24T10:27:39Z</time>
      </trkpt>
      <trkpt lat="43.3662" lon="2.54815">
        <ele>490.5</ele>
        <time>2013-04-24T10:27:48Z</time>
      </trkpt>
      <trkpt lat="43.36625" lon="2.54825">
        <ele>489.4</ele>
        <time>2013-04-24T10:27:55Z</time>
      </trkpt>
      <trkpt lat="43.36628" lon="2.54836">
        <ele>488.7</ele>
        <time>2013-04-24T10:28:03Z</time>
      </trkpt>
      <trkpt lat="43.36628" lon="2.54838">
        <ele>489.1</ele>
        <time>2013-04-24T10:28:04Z</time>
      </trkpt>
      <trkpt lat="43.36612" lon="2.54831">
        <ele>484.9</ele>
        <time>2013-04-24T10:28:30Z</time>
      </trkpt>
      <trkpt lat="43.36604" lon="2.54826">
        <ele>483.8</ele>
        <time>2013-04-24T10:28:36Z</time>
      </trkpt>
      <trkpt lat="43.36595" lon="2.54823">
        <ele>482.3</ele>
        <time>2013-04-24T10:28:43Z</time>
      </trkpt>
      <trkpt lat="43.36587" lon="2.54823">
        <ele>480.3</ele>
        <time>2013-04-24T10:28:51Z</time>
      </trkpt>
      <trkpt lat="43.36579" lon="2.54822">
        <ele>478.5</ele>
        <time>2013-04-24T10:28:59Z</time>
      </trkpt>
      <trkpt lat="43.36571" lon="2.54825">
        <ele>476.5</ele>
        <time>2013-04-24T10:29:06Z</time>
      </trkpt>
      <trkpt lat="43.3657" lon="2.54825">
        <ele>476.2</ele>
        <time>2013-04-24T10:29:07Z</time>
      </trkpt>
      <trkpt lat="43.36555" lon="2.5483">
        <ele>472.6</ele>
        <time>2013-04-24T10:29:23Z</time>
      </trkpt>
      <trkpt lat="43.36547" lon="2.54832">
        <ele>471</ele>
        <time>2013-04-24T10:29:31Z</time>
      </trkpt>
      <trkpt lat="43.36539" lon="2.54834">
        <ele>469.7</ele>
        <time>2013-04-24T10:29:38Z</time>
      </trkpt>
      <trkpt lat="43.36531" lon="2.54838">
        <ele>469.8</ele>
        <time>2013-04-24T10:29:45Z</time>
      </trkpt>
      <trkpt lat="43.36523" lon="2.54841">
        <ele>469.5</ele>
        <time>2013-04-24T10:29:52Z</time>
      </trkpt>
      <trkpt lat="43.36514" lon="2.54843">
        <ele>468.9</ele>
        <time>2013-04-24T10:30:00Z</time>
      </trkpt>
      <trkpt lat="43.36507" lon="2.54849">
        <ele>470</ele>
        <time>2013-04-24T10:30:09Z</time>
      </trkpt>
      <trkpt lat="43.36505" lon="2.54849">
        <ele>470.1</ele>
        <time>2013-04-24T10:30:10Z</time>
      </trkpt>
      <trkpt lat="43.36491" lon="2.54859">
        <ele>472.3</ele>
        <time>2013-04-24T10:30:25Z</time>
      </trkpt>
      <trkpt lat="43.36484" lon="2.54867">
        <ele>474.9</ele>
        <time>2013-04-24T10:30:34Z</time>
      </trkpt>
      <trkpt lat="43.36478" lon="2.54876">
        <ele>478.1</ele>
        <time>2013-04-24T10:30:41Z</time>
      </trkpt>
      <trkpt lat="43.36471" lon="2.54883">
        <ele>480.1</ele>
        <time>2013-04-24T10:30:50Z</time>
      </trkpt>
      <trkpt lat="43.36465" lon="2.5489">
        <ele>482.3</ele>
        <time>2013-04-24T10:30:58Z</time>
      </trkpt>
      <trkpt lat="43.36459" lon="2.54898">
        <ele>485.4</ele>
        <time>2013-04-24T10:31:06Z</time>
      </trkpt>
      <trkpt lat="43.36454" lon="2.54908">
        <ele>489</ele>
        <time>2013-04-24T10:31:14Z</time>
      </trkpt>
      <trkpt lat="43.36454" lon="2.5491">
        <ele>489.4</ele>
        <time>2013-04-24T10:31:15Z</time>
      </trkpt>
      <trkpt lat="43.3644" lon="2.54923">
        <ele>492.4</ele>
        <time>2013-04-24T10:31:29Z</time>
      </trkpt>
      <trkpt lat="43.36433" lon="2.54929">
        <ele>492.9</ele>
        <time>2013-04-24T10:31:38Z</time>
      </trkpt>
      <trkpt lat="43.36426" lon="2.54937">
        <ele>493.5</ele>
        <time>2013-04-24T10:31:46Z</time>
      </trkpt>
      <trkpt lat="43.3642" lon="2.54946">
        <ele>494</ele>
        <time>2013-04-24T10:31:55Z</time>
      </trkpt>
      <trkpt lat="43.36415" lon="2.54955">
        <ele>494.4</ele>
        <time>2013-04-24T10:32:03Z</time>
      </trkpt>
      <trkpt lat="43.3641" lon="2.54964">
        <ele>494.5</ele>
        <time>2013-04-24T10:32:11Z</time>
      </trkpt>
      <trkpt lat="43.36409" lon="2.54976">
        <ele>496.1</ele>
        <time>2013-04-24T10:32:21Z</time>
      </trkpt>
      <trkpt lat="43.36409" lon="2.54978">
        <ele>496.3</ele>
        <time>2013-04-24T10:32:22Z</time>
      </trkpt>
      <trkpt lat="43.36418" lon="2.54996">
        <ele>501.7</ele>
        <time>2013-04-24T10:32:39Z</time>
      </trkpt>
      <trkpt lat="43.36426" lon="2.55">
        <ele>504.5</ele>
        <time>2013-04-24T10:32:46Z</time>
      </trkpt>
      <trkpt lat="43.36434" lon="2.55001">
        <ele>506.6</ele>
        <time>2013-04-24T10:34:28Z</time>
      </trkpt>
      <trkpt lat="43.36436" lon="2.55002">
        <ele>506.9</ele>
        <time>2013-04-24T10:34:29Z</time>
      </trkpt>
      <trkpt lat="43.36451" lon="2.55006">
        <ele>509.8</ele>
        <time>2013-04-24T10:34:45Z</time>
      </trkpt>
      <trkpt lat="43.3646" lon="2.55008">
        <ele>511.6</ele>
        <time>2013-04-24T10:34:53Z</time>
      </trkpt>
      <trkpt lat="43.36468" lon="2.55008">
        <ele>514.1</ele>
        <time>2013-04-24T10:35:01Z</time>
      </trkpt>
      <trkpt lat="43.36476" lon="2.55013">
        <ele>514.8</ele>
        <time>2013-04-24T10:35:11Z</time>
      </trkpt>
      <trkpt lat="43.36483" lon="2.55018">
        <ele>515.6</ele>
        <time>2013-04-24T10:35:19Z</time>
      </trkpt>
      <trkpt lat="43.3649" lon="2.55022">
        <ele>516.9</ele>
        <time>2013-04-24T10:35:27Z</time>
      </trkpt>
      <trkpt lat="43.36499" lon="2.55023">
        <ele>519.4</ele>
        <time>2013-04-24T10:35:34Z</time>
      </trkpt>
      <trkpt lat="43.365" lon="2.55024">
        <ele>519.6</ele>
        <time>2013-04-24T10:35:35Z</time>
      </trkpt>
      <trkpt lat="43.36515" lon="2.5503">
        <ele>522.5</ele>
        <time>2013-04-24T10:35:52Z</time>
      </trkpt>
      <trkpt lat="43.36523" lon="2.55035">
        <ele>524</ele>
        <time>2013-04-24T10:36:00Z</time>
      </trkpt>
      <trkpt lat="43.36532" lon="2.55035">
        <ele>526.6</ele>
        <time>2013-04-24T10:36:09Z</time>
      </trkpt>
      <trkpt lat="43.36541" lon="2.55037">
        <ele>529.1</ele>
        <time>2013-04-24T10:36:19Z</time>
      </trkpt>
      <trkpt lat="43.36548" lon="2.55042">
        <ele>531</ele>
        <time>2013-04-24T10:36:28Z</time>
      </trkpt>
      <trkpt lat="43.36555" lon="2.55048">
        <ele>533.2</ele>
        <time>2013-04-24T10:36:37Z</time>
      </trkpt>
      <trkpt lat="43.36556" lon="2.55049">
        <ele>533.5</ele>
        <time>2013-04-24T10:36:38Z</time>
      </trkpt>
      <trkpt lat="43.3657" lon="2.55058">
        <ele>538.8</ele>
        <time>2013-04-24T10:36:54Z</time>
      </trkpt>
      <trkpt lat="43.36577" lon="2.55065">
        <ele>541.9</ele>
        <time>2013-04-24T10:37:03Z</time>
      </trkpt>
      <trkpt lat="43.36583" lon="2.55072">
        <ele>545</ele>
        <time>2013-04-24T10:37:10Z</time>
      </trkpt>
      <trkpt lat="43.36589" lon="2.5508">
        <ele>547.4</ele>
        <time>2013-04-24T10:37:18Z</time>
      </trkpt>
      <trkpt lat="43.36593" lon="2.5509">
        <ele>547.6</ele>
        <time>2013-04-24T10:37:26Z</time>
      </trkpt>
      <trkpt lat="43.36598" lon="2.551">
        <ele>546.5</ele>
        <time>2013-04-24T10:37:34Z</time>
      </trkpt>
      <trkpt lat="43.36604" lon="2.55106">
        <ele>547.2</ele>
        <time>2013-04-24T10:37:41Z</time>
      </trkpt>
      <trkpt lat="43.36605" lon="2.55107">
        <ele>547.3</ele>
        <time>2013-04-24T10:37:42Z</time>
      </trkpt>
      <trkpt lat="43.36619" lon="2.55119">
        <ele>550.4</ele>
        <time>2013-04-24T10:37:59Z</time>
      </trkpt>
      <trkpt lat="43.36625" lon="2.55128">
        <ele>551.1</ele>
        <time>2013-04-24T10:38:07Z</time>
      </trkpt>
      <trkpt lat="43.36631" lon="2.55136">
        <ele>552.4</ele>
        <time>2013-04-24T10:38:15Z</time>
      </trkpt>
      <trkpt lat="43.36635" lon="2.55146">
        <ele>552.5</ele>
        <time>2013-04-24T10:38:23Z</time>
      </trkpt>
      <trkpt lat="43.36637" lon="2.55158">
        <ele>551.9</ele>
        <time>2013-04-24T10:38:32Z</time>
      </trkpt>
      <trkpt lat="43.3664" lon="2.5517">
        <ele>551.3</ele>
        <time>2013-04-24T10:38:40Z</time>
      </trkpt>
      <trkpt lat="43.36643" lon="2.5518">
        <ele>549.2</ele>
        <time>2013-04-24T10:38:48Z</time>
      </trkpt>
      <trkpt lat="43.36643" lon="2.55181">
        <ele>549</ele>
        <time>2013-04-24T10:38:49Z</time>
      </trkpt>
      <trkpt lat="43.36651" lon="2.55202">
        <ele>545.5</ele>
        <time>2013-04-24T10:39:06Z</time>
      </trkpt>
      <trkpt lat="43.36656" lon="2.55211">
        <ele>545.1</ele>
        <time>2013-04-24T10:39:15Z</time>
      </trkpt>
      <trkpt lat="43.36661" lon="2.55221">
        <ele>544.1</ele>
        <time>2013-04-24T10:39:24Z</time>
      </trkpt>
      <trkpt lat="43.36667" lon="2.55227">
        <ele>544.6</ele>
        <time>2013-04-24T10:39:31Z</time>
      </trkpt>
      <trkpt lat="43.36674" lon="2.55234">
        <ele>544.2</ele>
        <time>2013-04-24T10:39:39Z</time>
      </trkpt>
      <trkpt lat="43.36681" lon="2.55241">
        <ele>544</ele>
        <time>2013-04-24T10:39:47Z</time>
      </trkpt>
      <trkpt lat="43.36689" lon="2.55247">
        <ele>544.2</ele>
        <time>2013-04-24T10:39:55Z</time>
      </trkpt>
      <trkpt lat="43.3669" lon="2.55247">
        <ele>544.3</ele>
        <time>2013-04-24T10:39:56Z</time>
      </trkpt>
      <trkpt lat="43.36704" lon="2.55257">
        <ele>545.6</ele>
        <time>2013-04-24T10:40:14Z</time>
      </trkpt>
      <trkpt lat="43.36712" lon="2.55262">
        <ele>546.2</ele>
        <time>2013-04-24T10:40:23Z</time>
      </trkpt>
      <trkpt lat="43.3672" lon="2.55265">
        <ele>547.9</ele>
        <time>2013-04-24T10:40:31Z</time>
      </trkpt>
      <trkpt lat="43.36728" lon="2.55268">
        <ele>549.3</ele>
        <time>2013-04-24T10:40:39Z</time>
      </trkpt>
      <trkpt lat="43.36736" lon="2.55273">
        <ele>550.4</ele>
        <time>2013-04-24T10:40:48Z</time>
      </trkpt>
      <trkpt lat="43.36743" lon="2.5528">
        <ele>550.8</ele>
        <time>2013-04-24T10:40:58Z</time>
      </trkpt>
      <trkpt lat="43.36744" lon="2.5528">
        <ele>550.9</ele>
        <time>2013-04-24T10:40:59Z</time>
      </trkpt>
      <trkpt lat="43.36758" lon="2.55291">
        <ele>549.1</ele>
        <time>2013-04-24T10:41:14Z</time>
      </trkpt>
      <trkpt lat="43.36766" lon="2.55294">
        <ele>547.6</ele>
        <time>2013-04-24T10:41:20Z</time>
      </trkpt>
      <trkpt lat="43.36775" lon="2.55298">
        <ele>545.6</ele>
        <time>2013-04-24T10:41:30Z</time>
      </trkpt>
      <trkpt lat="43.36781" lon="2.55306">
        <ele>542.7</ele>
        <time>2013-04-24T10:41:39Z</time>
      </trkpt>
      <trkpt lat="43.36786" lon="2.55316">
        <ele>539.1</ele>
        <time>2013-04-24T10:41:47Z</time>
      </trkpt>
      <trkpt lat="43.36791" lon="2.55325">
        <ele>535.6</ele>
        <time>2013-04-24T10:41:55Z</time>
      </trkpt>
      <trkpt lat="43.36795" lon="2.55334">
        <ele>532.1</ele>
        <time>2013-04-24T10:42:02Z</time>
      </trkpt>
      <trkpt lat="43.36796" lon="2.55336">
        <ele>531.6</ele>
        <time>2013-04-24T10:42:03Z</time>
      </trkpt>
      <trkpt lat="43.36803" lon="2.55356">
        <ele>523.7</ele>
        <time>2013-04-24T10:42:21Z</time>
      </trkpt>
      <trkpt lat="43.36809" lon="2.55365">
        <ele>519.9</ele>
        <time>2013-04-24T10:42:30Z</time>
      </trkpt>
      <trkpt lat="43.36816" lon="2.55372">
        <ele>517.1</ele>
        <time>2013-04-24T10:42:40Z</time>
      </trkpt>
      <trkpt lat="43.36824" lon="2.55374">
        <ele>515.8</ele>
        <time>2013-04-24T10:42:48Z</time>
      </trkpt>
      <trkpt lat="43.36833" lon="2.55374">
        <ele>515.2</ele>
        <time>2013-04-24T10:42:57Z</time>
      </trkpt>
      <trkpt lat="43.36841" lon="2.55372">
        <ele>515.8</ele>
        <time>2013-04-24T10:43:05Z</time>
      </trkpt>
      <trkpt lat="43.36842" lon="2.55372">
        <ele>516.1</ele>
        <time>2013-04-24T10:43:06Z</time>
      </trkpt>
      <trkpt lat="43.36857" lon="2.55363">
        <ele>519.7</ele>
        <time>2013-04-24T10:43:21Z</time>
      </trkpt>
      <trkpt lat="43.36864" lon="2.55356">
        <ele>522.2</ele>
        <time>2013-04-24T10:43:28Z</time>
      </trkpt>
      <trkpt lat="43.3687" lon="2.55348">
        <ele>525.3</ele>
        <time>2013-04-24T10:43:36Z</time>
      </trkpt>
      <trkpt lat="43.36875" lon="2.55339">
        <ele>528.8</ele>
        <time>2013-04-24T10:43:44Z</time>
      </trkpt>
      <trkpt lat="43.3688" lon="2.5533">
        <ele>532.2</ele>
        <time>2013-04-24T10:43:53Z</time>
      </trkpt>
      <trkpt lat="43.36886" lon="2.55322">
        <ele>535.8</ele>
        <time>2013-04-24T10:44:01Z</time>
      </trkpt>
      <trkpt lat="43.36893" lon="2.55314">
        <ele>539.2</ele>
        <time>2013-04-24T10:44:09Z</time>
      </trkpt>
      <trkpt lat="43.36894" lon="2.55313">
        <ele>539.7</ele>
        <time>2013-04-24T10:44:10Z</time>
      </trkpt>
      <trkpt lat="43.36905" lon="2.55296">
        <ele>546.7</ele>
        <time>2013-04-24T10:44:24Z</time>
      </trkpt>
      <trkpt lat="43.36912" lon="2.55289">
        <ele>550.2</ele>
        <time>2013-04-24T10:44:32Z</time>
      </trkpt>
      <trkpt lat="43.36917" lon="2.55279">
        <ele>554.4</ele>
        <time>2013-04-24T10:44:39Z</time>
      </trkpt>
      <trkpt lat="43.36924" lon="2.55272">
        <ele>558.7</ele>
        <time>2013-04-24T10:44:46Z</time>
      </trkpt>
      <trkpt lat="43.36931" lon="2.55265">
        <ele>563.3</ele>
        <time>2013-04-24T10:44:56Z</time>
      </trkpt>
      <trkpt lat="43.36938" lon="2.55258">
        <ele>567.5</ele>
        <time>2013-04-24T10:45:02Z</time>
      </trkpt>
      <trkpt lat="43.36945" lon="2.55252">
        <ele>571.5</ele>
        <time>2013-04-24T10:45:08Z</time>
      </trkpt>
      <trkpt lat="43.36952" lon="2.55247">
        <ele>574.8</ele>
        <time>2013-04-24T10:45:15Z</time>
      </trkpt>
      <trkpt lat="43.36953" lon="2.55247">
        <ele>575.1</ele>
        <time>2013-04-24T10:45:16Z</time>
      </trkpt>
      <trkpt lat="43.36967" lon="2.55254">
        <ele>575.5</ele>
        <time>2013-04-24T10:45:27Z</time>
      </trkpt>
      <trkpt lat="43.36975" lon="2.55256">
        <ele>576.2</ele>
        <time>2013-04-24T10:45:33Z</time>
      </trkpt>
      <trkpt lat="43.36982" lon="2.55261">
        <ele>575.9</ele>
        <time>2013-04-24T10:45:39Z</time>
      </trkpt>
      <trkpt lat="43.3699" lon="2.55264">
        <ele>576.4</ele>
        <time>2013-04-24T10:45:46Z</time>
      </trkpt>
      <trkpt lat="43.36998" lon="2.55265">
        <ele>577.8</ele>
        <time>2013-04-24T10:45:54Z</time>
      </trkpt>
      <trkpt lat="43.37005" lon="2.55269">
        <ele>575.7</ele>
        <time>2013-04-24T10:46:00Z</time>
      </trkpt>
      <trkpt lat="43.37013" lon="2.55275">
        <ele>572</ele>
        <time>2013-04-24T10:46:07Z</time>
      </trkpt>
      <trkpt lat="43.3702" lon="2.55282">
        <ele>568.2</ele>
        <time>2013-04-24T10:46:14Z</time>
      </trkpt>
      <trkpt lat="43.37025" lon="2.55291">
        <ele>564.2</ele>
        <time>2013-04-24T10:46:21Z</time>
      </trkpt>
      <trkpt lat="43.37026" lon="2.55292">
        <ele>563.7</ele>
        <time>2013-04-24T10:46:22Z</time>
      </trkpt>
      <trkpt lat="43.37037" lon="2.55307">
        <ele>556.4</ele>
        <time>2013-04-24T10:46:37Z</time>
      </trkpt>
      <trkpt lat="43.37043" lon="2.55317">
        <ele>552.3</ele>
        <time>2013-04-24T10:46:44Z</time>
      </trkpt>
      <trkpt lat="43.37047" lon="2.55327">
        <ele>547.9</ele>
        <time>2013-04-24T10:46:51Z</time>
      </trkpt>
      <trkpt lat="43.37053" lon="2.55333">
        <ele>545.2</ele>
        <time>2013-04-24T10:46:56Z</time>
      </trkpt>
      <trkpt lat="43.3706" lon="2.5534">
        <ele>542.2</ele>
        <time>2013-04-24T10:47:02Z</time>
      </trkpt>
      <trkpt lat="43.37067" lon="2.55345">
        <ele>539.8</ele>
        <time>2013-04-24T10:47:09Z</time>
      </trkpt>
      <trkpt lat="43.37075" lon="2.55348">
        <ele>538</ele>
        <time>2013-04-24T10:47:16Z</time>
      </trkpt>
      <trkpt lat="43.37083" lon="2.55345">
        <ele>538.3</ele>
        <time>2013-04-24T10:47:22Z</time>
      </trkpt>
      <trkpt lat="43.37084" lon="2.55344">
        <ele>538.6</ele>
        <time>2013-04-24T10:47:23Z</time>
      </trkpt>
      <trkpt lat="43.37096" lon="2.55332">
        <ele>545.3</ele>
        <time>2013-04-24T10:47:36Z</time>
      </trkpt>
      <trkpt lat="43.37101" lon="2.55323">
        <ele>549</ele>
        <time>2013-04-24T10:47:45Z</time>
      </trkpt>
      <trkpt lat="43.37107" lon="2.55315">
        <ele>552.4</ele>
        <time>2013-04-24T10:47:53Z</time>
      </trkpt>
      <trkpt lat="43.37112" lon="2.55308">
        <ele>555.3</ele>
        <time>2013-04-24T10:47:59Z</time>
      </trkpt>
      <trkpt lat="43.37119" lon="2.553">
        <ele>558.1</ele>
        <time>2013-04-24T10:48:06Z</time>
      </trkpt>
      <trkpt lat="43.37123" lon="2.5529">
        <ele>561.1</ele>
        <time>2013-04-24T10:48:15Z</time>
      </trkpt>
      <trkpt lat="43.37131" lon="2.55284">
        <ele>563.3</ele>
        <time>2013-04-24T10:48:23Z</time>
      </trkpt>
      <trkpt lat="43.37132" lon="2.55283">
        <ele>563.5</ele>
        <time>2013-04-24T10:48:24Z</time>
      </trkpt>
      <trkpt lat="43.37147" lon="2.55279">
        <ele>565.7</ele>
        <time>2013-04-24T10:48:36Z</time>
      </trkpt>
      <trkpt lat="43.37155" lon="2.55277">
        <ele>566.5</ele>
        <time>2013-04-24T10:48:43Z</time>
      </trkpt>
      <trkpt lat="43.37163" lon="2.55276">
        <ele>567.3</ele>
        <time>2013-04-24T10:48:50Z</time>
      </trkpt>
      <trkpt lat="43.37171" lon="2.55276">
        <ele>568.9</ele>
        <time>2013-04-24T10:48:57Z</time>
      </trkpt>
      <trkpt lat="43.37179" lon="2.55276">
        <ele>572</ele>
        <time>2013-04-24T10:49:05Z</time>
      </trkpt>
      <trkpt lat="43.37187" lon="2.55273">
        <ele>575</ele>
        <time>2013-04-24T10:49:12Z</time>
      </trkpt>
      <trkpt lat="43.37194" lon="2.55266">
        <ele>577.9</ele>
        <time>2013-04-24T10:49:20Z</time>
      </trkpt>
      <trkpt lat="43.37201" lon="2.5526">
        <ele>581</ele>
        <time>2013-04-24T10:49:28Z</time>
      </trkpt>
      <trkpt lat="43.37203" lon="2.55259">
        <ele>581.4</ele>
        <time>2013-04-24T10:49:29Z</time>
      </trkpt>
      <trkpt lat="43.37214" lon="2.55244">
        <ele>585</ele>
        <time>2013-04-24T10:49:49Z</time>
      </trkpt>
      <trkpt lat="43.37219" lon="2.55236">
        <ele>585.9</ele>
        <time>2013-04-24T10:49:57Z</time>
      </trkpt>
      <trkpt lat="43.37224" lon="2.55225">
        <ele>586.4</ele>
        <time>2013-04-24T10:50:06Z</time>
      </trkpt>
      <trkpt lat="43.3723" lon="2.55217">
        <ele>587.1</ele>
        <time>2013-04-24T10:50:15Z</time>
      </trkpt>
      <trkpt lat="43.37238" lon="2.55211">
        <ele>588.6</ele>
        <time>2013-04-24T10:50:23Z</time>
      </trkpt>
      <trkpt lat="43.37246" lon="2.55205">
        <ele>589.9</ele>
        <time>2013-04-24T10:53:18Z</time>
      </trkpt>
      <trkpt lat="43.37246" lon="2.55203">
        <ele>589.8</ele>
        <time>2013-04-24T10:53:19Z</time>
      </trkpt>
      <trkpt lat="43.37252" lon="2.55184">
        <ele>588.6</ele>
        <time>2013-04-24T10:53:32Z</time>
      </trkpt>
      <trkpt lat="43.37258" lon="2.55176">
        <ele>589.2</ele>
        <time>2013-04-24T10:53:40Z</time>
      </trkpt>
      <trkpt lat="43.37264" lon="2.55169">
        <ele>589.8</ele>
        <time>2013-04-24T10:53:48Z</time>
      </trkpt>
      <trkpt lat="43.3727" lon="2.5516">
        <ele>590.2</ele>
        <time>2013-04-24T10:53:55Z</time>
      </trkpt>
      <trkpt lat="43.37276" lon="2.55152">
        <ele>590.7</ele>
        <time>2013-04-24T10:54:03Z</time>
      </trkpt>
      <trkpt lat="43.37282" lon="2.55144">
        <ele>591.2</ele>
        <time>2013-04-24T10:54:10Z</time>
      </trkpt>
      <trkpt lat="43.37288" lon="2.55137">
        <ele>591.9</ele>
        <time>2013-04-24T10:54:18Z</time>
      </trkpt>
      <trkpt lat="43.37295" lon="2.55129">
        <ele>592.6</ele>
        <time>2013-04-24T10:54:25Z</time>
      </trkpt>
      <trkpt lat="43.37296" lon="2.55128">
        <ele>592.9</ele>
        <time>2013-04-24T10:54:26Z</time>
      </trkpt>
      <trkpt lat="43.37307" lon="2.55112">
        <ele>593.9</ele>
        <time>2013-04-24T10:54:39Z</time>
      </trkpt>
      <trkpt lat="43.37313" lon="2.55104">
        <ele>594.6</ele>
        <time>2013-04-24T10:54:46Z</time>
      </trkpt>
      <trkpt lat="43.37318" lon="2.55095">
        <ele>595</ele>
        <time>2013-04-24T10:54:52Z</time>
      </trkpt>
      <trkpt lat="43.37324" lon="2.55086">
        <ele>595.4</ele>
        <time>2013-04-24T10:55:00Z</time>
      </trkpt>
      <trkpt lat="43.37329" lon="2.55077">
        <ele>598.1</ele>
        <time>2013-04-24T10:55:09Z</time>
      </trkpt>
      <trkpt lat="43.3733" lon="2.55066">
        <ele>600.1</ele>
        <time>2013-04-24T10:55:16Z</time>
      </trkpt>
      <trkpt lat="43.37324" lon="2.55059">
        <ele>599.4</ele>
        <time>2013-04-24T10:55:24Z</time>
      </trkpt>
      <trkpt lat="43.37316" lon="2.55054">
        <ele>597.8</ele>
        <time>2013-04-24T10:55:35Z</time>
      </trkpt>
      <trkpt lat="43.37315" lon="2.55054">
        <ele>597.6</ele>
        <time>2013-04-24T10:55:36Z</time>
      </trkpt>
      <trkpt lat="43.37303" lon="2.55039">
        <ele>596.2</ele>
        <time>2013-04-24T10:55:51Z</time>
      </trkpt>
      <trkpt lat="43.37298" lon="2.55031">
        <ele>595.8</ele>
        <time>2013-04-24T10:55:57Z</time>
      </trkpt>
      <trkpt lat="43.37293" lon="2.55021">
        <ele>596</ele>
        <time>2013-04-24T10:56:03Z</time>
      </trkpt>
      <trkpt lat="43.37289" lon="2.55011">
        <ele>596</ele>
        <time>2013-04-24T10:56:10Z</time>
      </trkpt>
      <trkpt lat="43.37285" lon="2.55001">
        <ele>596.1</ele>
        <time>2013-04-24T10:56:18Z</time>
      </trkpt>
      <trkpt lat="43.37281" lon="2.54991">
        <ele>596.2</ele>
        <time>2013-04-24T10:56:25Z</time>
      </trkpt>
      <trkpt lat="43.37275" lon="2.54983">
        <ele>595.2</ele>
        <time>2013-04-24T10:56:31Z</time>
      </trkpt>
      <trkpt lat="43.3727" lon="2.54973">
        <ele>595.4</ele>
        <time>2013-04-24T10:56:39Z</time>
      </trkpt>
      <trkpt lat="43.3727" lon="2.54971">
        <ele>595.5</ele>
        <time>2013-04-24T10:56:40Z</time>
      </trkpt>
      <trkpt lat="43.37261" lon="2.54954">
        <ele>595.4</ele>
        <time>2013-04-24T10:56:54Z</time>
      </trkpt>
      <trkpt lat="43.37257" lon="2.54945">
        <ele>595.5</ele>
        <time>2013-04-24T10:57:00Z</time>
      </trkpt>
      <trkpt lat="43.37251" lon="2.54936">
        <ele>595.2</ele>
        <time>2013-04-24T10:57:06Z</time>
      </trkpt>
      <trkpt lat="43.37247" lon="2.54926">
        <ele>595.3</ele>
        <time>2013-04-24T10:57:14Z</time>
      </trkpt>
      <trkpt lat="43.37243" lon="2.54916">
        <ele>595.5</ele>
        <time>2013-04-24T10:57:20Z</time>
      </trkpt>
      <trkpt lat="43.37239" lon="2.54906">
        <ele>594.7</ele>
        <time>2013-04-24T10:57:28Z</time>
      </trkpt>
      <trkpt lat="43.37235" lon="2.54896">
        <ele>594.1</ele>
        <time>2013-04-24T10:57:35Z</time>
      </trkpt>
      <trkpt lat="43.37231" lon="2.54886">
        <ele>593.4</ele>
        <time>2013-04-24T10:57:42Z</time>
      </trkpt>
      <trkpt lat="43.37231" lon="2.54884">
        <ele>593.3</ele>
        <time>2013-04-24T10:57:43Z</time>
      </trkpt>
      <trkpt lat="43.37222" lon="2.54865">
        <ele>592</ele>
        <time>2013-04-24T10:57:57Z</time>
      </trkpt>
      <trkpt lat="43.37218" lon="2.54856">
        <ele>591.4</ele>
        <time>2013-04-24T10:58:04Z</time>
      </trkpt>
      <trkpt lat="43.37213" lon="2.54845">
        <ele>590.8</ele>
        <time>2013-04-24T10:58:11Z</time>
      </trkpt>
      <trkpt lat="43.3721" lon="2.54835">
        <ele>590.9</ele>
        <time>2013-04-24T10:58:18Z</time>
      </trkpt>
      <trkpt lat="43.37205" lon="2.54825">
        <ele>589.5</ele>
        <time>2013-04-24T10:58:25Z</time>
      </trkpt>
      <trkpt lat="43.372" lon="2.54816">
        <ele>588.1</ele>
        <time>2013-04-24T10:58:32Z</time>
      </trkpt>
      <trkpt lat="43.37196" lon="2.54805">
        <ele>586.8</ele>
        <time>2013-04-24T10:58:39Z</time>
      </trkpt>
      <trkpt lat="43.37192" lon="2.54795">
        <ele>585.7</ele>
        <time>2013-04-24T10:58:46Z</time>
      </trkpt>
      <trkpt lat="43.37191" lon="2.54794">
        <ele>585.5</ele>
        <time>2013-04-24T10:58:47Z</time>
      </trkpt>
      <trkpt lat="43.37183" lon="2.54777">
        <ele>583.2</ele>
        <time>2013-04-24T10:59:00Z</time>
      </trkpt>
      <trkpt lat="43.37177" lon="2.54768">
        <ele>581.8</ele>
        <time>2013-04-24T10:59:07Z</time>
      </trkpt>
      <trkpt lat="43.37174" lon="2.54757">
        <ele>580.8</ele>
        <time>2013-04-24T10:59:14Z</time>
      </trkpt>
      <trkpt lat="43.37172" lon="2.54746">
        <ele>579.8</ele>
        <time>2013-04-24T10:59:21Z</time>
      </trkpt>
      <trkpt lat="43.37171" lon="2.54733">
        <ele>578</ele>
        <time>2013-04-24T10:59:29Z</time>
      </trkpt>
      <trkpt lat="43.37174" lon="2.54722">
        <ele>577.5</ele>
        <time>2013-04-24T10:59:38Z</time>
      </trkpt>
      <trkpt lat="43.37177" lon="2.54733">
        <ele>579.7</ele>
        <time>2013-04-24T11:03:27Z</time>
      </trkpt>
      <trkpt lat="43.37177" lon="2.54736">
        <ele>579.9</ele>
        <time>2013-04-24T11:03:28Z</time>
      </trkpt>
      <trkpt lat="43.37183" lon="2.54719">
        <ele>579.3</ele>
        <time>2013-04-24T11:04:42Z</time>
      </trkpt>
      <trkpt lat="43.37173" lon="2.54727">
        <ele>577.9</ele>
        <time>2013-04-24T11:11:26Z</time>
      </trkpt>
      <trkpt lat="43.37172" lon="2.54731">
        <ele>578</ele>
        <time>2013-04-24T11:11:27Z</time>
      </trkpt>
      <trkpt lat="43.37176" lon="2.54715">
        <ele>576.9</ele>
        <time>2013-04-24T11:12:47Z</time>
      </trkpt>
      <trkpt lat="43.37174" lon="2.54728">
        <ele>578.2</ele>
        <time>2013-04-24T11:14:07Z</time>
      </trkpt>
      <trkpt lat="43.37173" lon="2.54721">
        <ele>576.9</ele>
        <time>2013-04-24T11:39:08Z</time>
      </trkpt>
      <trkpt lat="43.37169" lon="2.54709">
        <ele>574.6</ele>
        <time>2013-04-24T11:39:09Z</time>
      </trkpt>
      <trkpt lat="43.37175" lon="2.54718">
        <ele>577</ele>
        <time>2013-04-24T11:39:47Z</time>
      </trkpt>
      <trkpt lat="43.37157" lon="2.547">
        <ele>570.6</ele>
        <time>2013-04-24T11:47:00Z</time>
      </trkpt>
      <trkpt lat="43.37157" lon="2.54699">
        <ele>570.2</ele>
        <time>2013-04-24T11:47:03Z</time>
      </trkpt>
      <trkpt lat="43.3715" lon="2.54692">
        <ele>567.8</ele>
        <time>2013-04-24T11:48:46Z</time>
      </trkpt>
      <trkpt lat="43.37137" lon="2.54681">
        <ele>563</ele>
        <time>2013-04-24T11:49:09Z</time>
      </trkpt>
      <trkpt lat="43.37131" lon="2.54674">
        <ele>560.7</ele>
        <time>2013-04-24T11:49:18Z</time>
      </trkpt>
      <trkpt lat="43.37126" lon="2.54664">
        <ele>558.2</ele>
        <time>2013-04-24T11:49:29Z</time>
      </trkpt>
      <trkpt lat="43.37122" lon="2.54654">
        <ele>555.4</ele>
        <time>2013-04-24T11:49:43Z</time>
      </trkpt>
      <trkpt lat="43.37119" lon="2.54643">
        <ele>552.6</ele>
        <time>2013-04-24T11:49:55Z</time>
      </trkpt>
      <trkpt lat="43.37119" lon="2.54642">
        <ele>552.3</ele>
        <time>2013-04-24T11:49:56Z</time>
      </trkpt>
      <trkpt lat="43.37114" lon="2.54621">
        <ele>547.2</ele>
        <time>2013-04-24T11:50:20Z</time>
      </trkpt>
      <trkpt lat="43.37111" lon="2.54609">
        <ele>544.6</ele>
        <time>2013-04-24T11:50:31Z</time>
      </trkpt>
      <trkpt lat="43.37109" lon="2.54598">
        <ele>542</ele>
        <time>2013-04-24T11:50:40Z</time>
      </trkpt>
      <trkpt lat="43.37106" lon="2.54586">
        <ele>539.4</ele>
        <time>2013-04-24T11:50:52Z</time>
      </trkpt>
      <trkpt lat="43.37104" lon="2.54575">
        <ele>536.1</ele>
        <time>2013-04-24T11:51:02Z</time>
      </trkpt>
      <trkpt lat="43.37103" lon="2.54574">
        <ele>535.5</ele>
        <time>2013-04-24T11:51:03Z</time>
      </trkpt>
      <trkpt lat="43.37099" lon="2.54552">
        <ele>529.1</ele>
        <time>2013-04-24T11:51:20Z</time>
      </trkpt>
      <trkpt lat="43.37097" lon="2.54542">
        <ele>525.9</ele>
        <time>2013-04-24T11:51:30Z</time>
      </trkpt>
      <trkpt lat="43.37095" lon="2.5453">
        <ele>522.5</ele>
        <time>2013-04-24T11:51:42Z</time>
      </trkpt>
      <trkpt lat="43.37094" lon="2.54519">
        <ele>519.3</ele>
        <time>2013-04-24T11:51:57Z</time>
      </trkpt>
      <trkpt lat="43.37092" lon="2.54507">
        <ele>516</ele>
        <time>2013-04-24T11:52:07Z</time>
      </trkpt>
      <trkpt lat="43.37091" lon="2.54506">
        <ele>515.6</ele>
        <time>2013-04-24T11:52:08Z</time>
      </trkpt>
      <trkpt lat="43.3709" lon="2.54484">
        <ele>510.2</ele>
        <time>2013-04-24T11:52:31Z</time>
      </trkpt>
      <trkpt lat="43.37085" lon="2.54473">
        <ele>507.4</ele>
        <time>2013-04-24T11:52:38Z</time>
      </trkpt>
      <trkpt lat="43.37083" lon="2.54462">
        <ele>504.8</ele>
        <time>2013-04-24T11:52:47Z</time>
      </trkpt>
      <trkpt lat="43.37079" lon="2.54451">
        <ele>503.3</ele>
        <time>2013-04-24T11:52:57Z</time>
      </trkpt>
      <trkpt lat="43.37079" lon="2.54439">
        <ele>500.9</ele>
        <time>2013-04-24T11:53:11Z</time>
      </trkpt>
      <trkpt lat="43.37079" lon="2.54438">
        <ele>500.6</ele>
        <time>2013-04-24T11:53:12Z</time>
      </trkpt>
      <trkpt lat="43.37076" lon="2.54416">
        <ele>496.6</ele>
        <time>2013-04-24T11:53:38Z</time>
      </trkpt>
      <trkpt lat="43.37073" lon="2.54405">
        <ele>495</ele>
        <time>2013-04-24T11:53:46Z</time>
      </trkpt>
      <trkpt lat="43.37069" lon="2.54395">
        <ele>493.8</ele>
        <time>2013-04-24T11:53:53Z</time>
      </trkpt>
      <trkpt lat="43.37068" lon="2.54383">
        <ele>491.5</ele>
        <time>2013-04-24T11:53:58Z</time>
      </trkpt>
      <trkpt lat="43.37066" lon="2.54372">
        <ele>489.7</ele>
        <time>2013-04-24T11:54:06Z</time>
      </trkpt>
      <trkpt lat="43.37062" lon="2.54361">
        <ele>488.8</ele>
        <time>2013-04-24T11:54:20Z</time>
      </trkpt>
      <trkpt lat="43.37061" lon="2.54361">
        <ele>488.8</ele>
        <time>2013-04-24T11:54:21Z</time>
      </trkpt>
      <trkpt lat="43.37058" lon="2.54342">
        <ele>485.8</ele>
        <time>2013-04-24T11:54:32Z</time>
      </trkpt>
      <trkpt lat="43.37054" lon="2.54332">
        <ele>484.7</ele>
        <time>2013-04-24T11:54:39Z</time>
      </trkpt>
      <trkpt lat="43.37047" lon="2.54324">
        <ele>484.5</ele>
        <time>2013-04-24T11:54:48Z</time>
      </trkpt>
      <trkpt lat="43.3704" lon="2.54316">
        <ele>484.5</ele>
        <time>2013-04-24T11:54:56Z</time>
      </trkpt>
      <trkpt lat="43.37032" lon="2.54312">
        <ele>485.5</ele>
        <time>2013-04-24T11:55:03Z</time>
      </trkpt>
      <trkpt lat="43.37025" lon="2.54304">
        <ele>485.6</ele>
        <time>2013-04-24T11:55:11Z</time>
      </trkpt>
      <trkpt lat="43.37017" lon="2.543">
        <ele>486.9</ele>
        <time>2013-04-24T11:55:19Z</time>
      </trkpt>
      <trkpt lat="43.37009" lon="2.54295">
        <ele>487.8</ele>
        <time>2013-04-24T11:55:28Z</time>
      </trkpt>
      <trkpt lat="43.37008" lon="2.54295">
        <ele>487.9</ele>
        <time>2013-04-24T11:55:29Z</time>
      </trkpt>
      <trkpt lat="43.36993" lon="2.54291">
        <ele>490.2</ele>
        <time>2013-04-24T11:55:43Z</time>
      </trkpt>
      <trkpt lat="43.36985" lon="2.54291">
        <ele>491.4</ele>
        <time>2013-04-24T11:55:48Z</time>
      </trkpt>
      <trkpt lat="43.36977" lon="2.54292">
        <ele>492.9</ele>
        <time>2013-04-24T11:55:56Z</time>
      </trkpt>
      <trkpt lat="43.3697" lon="2.54296">
        <ele>495.2</ele>
        <time>2013-04-24T11:56:06Z</time>
      </trkpt>
      <trkpt lat="43.36962" lon="2.54299">
        <ele>497.2</ele>
        <time>2013-04-24T11:56:16Z</time>
      </trkpt>
      <trkpt lat="43.36955" lon="2.54306">
        <ele>500.5</ele>
        <time>2013-04-24T11:56:24Z</time>
      </trkpt>
      <trkpt lat="43.36947" lon="2.54302">
        <ele>500.5</ele>
        <time>2013-04-24T11:56:33Z</time>
      </trkpt>
      <trkpt lat="43.36945" lon="2.54301">
        <ele>500.4</ele>
        <time>2013-04-24T11:56:34Z</time>
      </trkpt>
      <trkpt lat="43.36935" lon="2.54284">
        <ele>496.7</ele>
        <time>2013-04-24T11:56:57Z</time>
      </trkpt>
      <trkpt lat="43.36931" lon="2.54274">
        <ele>493.9</ele>
        <time>2013-04-24T11:57:06Z</time>
      </trkpt>
      <trkpt lat="43.36927" lon="2.54263">
        <ele>491.1</ele>
        <time>2013-04-24T11:57:16Z</time>
      </trkpt>
      <trkpt lat="43.36921" lon="2.54255">
        <ele>489.1</ele>
        <time>2013-04-24T11:57:25Z</time>
      </trkpt>
      <trkpt lat="43.36916" lon="2.54246">
        <ele>486.2</ele>
        <time>2013-04-24T11:57:32Z</time>
      </trkpt>
      <trkpt lat="43.36911" lon="2.54237">
        <ele>482.7</ele>
        <time>2013-04-24T11:57:41Z</time>
      </trkpt>
      <trkpt lat="43.3691" lon="2.54236">
        <ele>482.3</ele>
        <time>2013-04-24T11:57:42Z</time>
      </trkpt>
      <trkpt lat="43.36898" lon="2.54223">
        <ele>477.7</ele>
        <time>2013-04-24T11:57:58Z</time>
      </trkpt>
      <trkpt lat="43.3689" lon="2.54217">
        <ele>475.7</ele>
        <time>2013-04-24T11:58:08Z</time>
      </trkpt>
      <trkpt lat="43.36882" lon="2.54213">
        <ele>474.8</ele>
        <time>2013-04-24T11:58:18Z</time>
      </trkpt>
      <trkpt lat="43.36874" lon="2.54208">
        <ele>473.6</ele>
        <time>2013-04-24T11:58:29Z</time>
      </trkpt>
      <trkpt lat="43.36866" lon="2.54208">
        <ele>474</ele>
        <time>2013-04-24T11:58:38Z</time>
      </trkpt>
      <trkpt lat="43.36857" lon="2.54203">
        <ele>472.9</ele>
        <time>2013-04-24T11:58:45Z</time>
      </trkpt>
      <trkpt lat="43.36856" lon="2.54204">
        <ele>473.2</ele>
        <time>2013-04-24T11:58:46Z</time>
      </trkpt>
      <trkpt lat="43.3684" lon="2.542">
        <ele>472.9</ele>
        <time>2013-04-24T12:00:43Z</time>
      </trkpt>
      <trkpt lat="43.36839" lon="2.542">
        <ele>473.1</ele>
        <time>2013-04-24T12:00:44Z</time>
      </trkpt>
      <trkpt lat="43.36825" lon="2.54208">
        <ele>477</ele>
        <time>2013-04-24T12:01:02Z</time>
      </trkpt>
      <trkpt lat="43.36817" lon="2.54214">
        <ele>479.9</ele>
        <time>2013-04-24T12:01:14Z</time>
      </trkpt>
      <trkpt lat="43.36809" lon="2.54217">
        <ele>481.8</ele>
        <time>2013-04-24T12:01:22Z</time>
      </trkpt>
      <trkpt lat="43.368" lon="2.54221">
        <ele>483.8</ele>
        <time>2013-04-24T12:01:33Z</time>
      </trkpt>
      <trkpt lat="43.36792" lon="2.54222">
        <ele>484.8</ele>
        <time>2013-04-24T12:01:43Z</time>
      </trkpt>
      <trkpt lat="43.36784" lon="2.54223">
        <ele>486</ele>
        <time>2013-04-24T12:01:52Z</time>
      </trkpt>
      <trkpt lat="43.36783" lon="2.54224">
        <ele>486.2</ele>
        <time>2013-04-24T12:01:53Z</time>
      </trkpt>
      <trkpt lat="43.36767" lon="2.54228">
        <ele>489.4</ele>
        <time>2013-04-24T12:02:06Z</time>
      </trkpt>
      <trkpt lat="43.36759" lon="2.54231">
        <ele>491.4</ele>
        <time>2013-04-24T12:02:14Z</time>
      </trkpt>
      <trkpt lat="43.36753" lon="2.54236">
        <ele>494.7</ele>
        <time>2013-04-24T12:02:21Z</time>
      </trkpt>
      <trkpt lat="43.36745" lon="2.54241">
        <ele>496.6</ele>
        <time>2013-04-24T12:02:28Z</time>
      </trkpt>
      <trkpt lat="43.36737" lon="2.54245">
        <ele>497.3</ele>
        <time>2013-04-24T12:02:35Z</time>
      </trkpt>
      <trkpt lat="43.3673" lon="2.54252">
        <ele>499.6</ele>
        <time>2013-04-24T12:02:43Z</time>
      </trkpt>
      <trkpt lat="43.36723" lon="2.5426">
        <ele>501.9</ele>
        <time>2013-04-24T12:02:51Z</time>
      </trkpt>
      <trkpt lat="43.36716" lon="2.54266">
        <ele>503.7</ele>
        <time>2013-04-24T12:03:00Z</time>
      </trkpt>
      <trkpt lat="43.36715" lon="2.54267">
        <ele>504</ele>
        <time>2013-04-24T12:03:01Z</time>
      </trkpt>
      <trkpt lat="43.36702" lon="2.5428">
        <ele>507.5</ele>
        <time>2013-04-24T12:03:19Z</time>
      </trkpt>
      <trkpt lat="43.36695" lon="2.54287">
        <ele>509.4</ele>
        <time>2013-04-24T12:03:28Z</time>
      </trkpt>
      <trkpt lat="43.36688" lon="2.54293">
        <ele>511.2</ele>
        <time>2013-04-24T12:03:37Z</time>
      </trkpt>
      <trkpt lat="43.3668" lon="2.54299">
        <ele>512.6</ele>
        <time>2013-04-24T12:03:45Z</time>
      </trkpt>
      <trkpt lat="43.36672" lon="2.54303">
        <ele>513.4</ele>
        <time>2013-04-24T12:03:51Z</time>
      </trkpt>
      <trkpt lat="43.36665" lon="2.5431">
        <ele>515.2</ele>
        <time>2013-04-24T12:04:00Z</time>
      </trkpt>
      <trkpt lat="43.36657" lon="2.54314">
        <ele>515.1</ele>
        <time>2013-04-24T12:04:09Z</time>
      </trkpt>
      <trkpt lat="43.36656" lon="2.54315">
        <ele>515.1</ele>
        <time>2013-04-24T12:04:10Z</time>
      </trkpt>
      <trkpt lat="43.36643" lon="2.54326">
        <ele>517</ele>
        <time>2013-04-24T12:04:25Z</time>
      </trkpt>
      <trkpt lat="43.36635" lon="2.54329">
        <ele>516.2</ele>
        <time>2013-04-24T12:04:32Z</time>
      </trkpt>
      <trkpt lat="43.36627" lon="2.54331">
        <ele>515.2</ele>
        <time>2013-04-24T12:04:39Z</time>
      </trkpt>
      <trkpt lat="43.36619" lon="2.54336">
        <ele>515.6</ele>
        <time>2013-04-24T12:04:48Z</time>
      </trkpt>
      <trkpt lat="43.36612" lon="2.54342">
        <ele>515.9</ele>
        <time>2013-04-24T12:04:54Z</time>
      </trkpt>
      <trkpt lat="43.36606" lon="2.54349">
        <ele>517.3</ele>
        <time>2013-04-24T12:05:01Z</time>
      </trkpt>
      <trkpt lat="43.36597" lon="2.54351">
        <ele>516.4</ele>
        <time>2013-04-24T12:05:08Z</time>
      </trkpt>
      <trkpt lat="43.36589" lon="2.54354">
        <ele>515.7</ele>
        <time>2013-04-24T12:05:20Z</time>
      </trkpt>
      <trkpt lat="43.36588" lon="2.54355">
        <ele>515.8</ele>
        <time>2013-04-24T12:05:21Z</time>
      </trkpt>
      <trkpt lat="43.36574" lon="2.54364">
        <ele>516.7</ele>
        <time>2013-04-24T12:05:36Z</time>
      </trkpt>
      <trkpt lat="43.36565" lon="2.54369">
        <ele>517</ele>
        <time>2013-04-24T12:05:46Z</time>
      </trkpt>
      <trkpt lat="43.36557" lon="2.54371">
        <ele>516.4</ele>
        <time>2013-04-24T12:05:53Z</time>
      </trkpt>
      <trkpt lat="43.36549" lon="2.54377">
        <ele>517.3</ele>
        <time>2013-04-24T12:06:08Z</time>
      </trkpt>
      <trkpt lat="43.36541" lon="2.54373">
        <ele>514.1</ele>
        <time>2013-04-24T12:06:15Z</time>
      </trkpt>
      <trkpt lat="43.36533" lon="2.54368">
        <ele>509.8</ele>
        <time>2013-04-24T12:06:26Z</time>
      </trkpt>
      <trkpt lat="43.36532" lon="2.54368">
        <ele>509.9</ele>
        <time>2013-04-24T12:06:27Z</time>
      </trkpt>
      <trkpt lat="43.36517" lon="2.54374">
        <ele>509.7</ele>
        <time>2013-04-24T12:06:42Z</time>
      </trkpt>
      <trkpt lat="43.36509" lon="2.54379">
        <ele>510.3</ele>
        <time>2013-04-24T12:06:51Z</time>
      </trkpt>
      <trkpt lat="43.365" lon="2.5438">
        <ele>509.2</ele>
        <time>2013-04-24T12:06:58Z</time>
      </trkpt>
      <trkpt lat="43.36492" lon="2.5438">
        <ele>508.3</ele>
        <time>2013-04-24T12:07:04Z</time>
      </trkpt>
      <trkpt lat="43.36484" lon="2.5438">
        <ele>507.4</ele>
        <time>2013-04-24T12:07:12Z</time>
      </trkpt>
      <trkpt lat="43.36475" lon="2.54381">
        <ele>506.6</ele>
        <time>2013-04-24T12:07:20Z</time>
      </trkpt>
      <trkpt lat="43.36467" lon="2.54385">
        <ele>508</ele>
        <time>2013-04-24T12:07:29Z</time>
      </trkpt>
      <trkpt lat="43.36466" lon="2.54386">
        <ele>508.4</ele>
        <time>2013-04-24T12:07:30Z</time>
      </trkpt>
      <trkpt lat="43.3645" lon="2.54387">
        <ele>507.4</ele>
        <time>2013-04-24T12:07:57Z</time>
      </trkpt>
      <trkpt lat="43.36443" lon="2.54393">
        <ele>510.2</ele>
        <time>2013-04-24T12:08:07Z</time>
      </trkpt>
      <trkpt lat="43.36436" lon="2.544">
        <ele>513.6</ele>
        <time>2013-04-24T12:08:24Z</time>
      </trkpt>
      <trkpt lat="43.3643" lon="2.54408">
        <ele>518.3</ele>
        <time>2013-04-24T12:08:41Z</time>
      </trkpt>
      <trkpt lat="43.36429" lon="2.54409">
        <ele>518.5</ele>
        <time>2013-04-24T12:08:42Z</time>
      </trkpt>
      <trkpt lat="43.36415" lon="2.54417">
        <ele>522.8</ele>
        <time>2013-04-24T12:09:00Z</time>
      </trkpt>
      <trkpt lat="43.36407" lon="2.54422">
        <ele>522.6</ele>
        <time>2013-04-24T12:09:08Z</time>
      </trkpt>
      <trkpt lat="43.364" lon="2.54423">
        <ele>522</ele>
        <time>2013-04-24T12:09:14Z</time>
      </trkpt>
      <trkpt lat="43.36392" lon="2.54424">
        <ele>521.3</ele>
        <time>2013-04-24T12:09:18Z</time>
      </trkpt>
      <trkpt lat="43.36383" lon="2.54425">
        <ele>520.5</ele>
        <time>2013-04-24T12:09:26Z</time>
      </trkpt>
      <trkpt lat="43.36377" lon="2.54432">
        <ele>520.9</ele>
        <time>2013-04-24T12:09:36Z</time>
      </trkpt>
      <trkpt lat="43.36369" lon="2.54436">
        <ele>520.8</ele>
        <time>2013-04-24T12:09:43Z</time>
      </trkpt>
      <trkpt lat="43.36368" lon="2.54436">
        <ele>520.6</ele>
        <time>2013-04-24T12:09:44Z</time>
      </trkpt>
      <trkpt lat="43.36353" lon="2.54441">
        <ele>519.9</ele>
        <time>2013-04-24T12:09:57Z</time>
      </trkpt>
      <trkpt lat="43.36345" lon="2.54443">
        <ele>519.4</ele>
        <time>2013-04-24T12:10:05Z</time>
      </trkpt>
      <trkpt lat="43.36337" lon="2.54441">
        <ele>518.4</ele>
        <time>2013-04-24T12:10:11Z</time>
      </trkpt>
      <trkpt lat="43.36328" lon="2.54442">
        <ele>517.5</ele>
        <time>2013-04-24T12:10:19Z</time>
      </trkpt>
      <trkpt lat="43.36319" lon="2.54444">
        <ele>516.8</ele>
        <time>2013-04-24T12:10:25Z</time>
      </trkpt>
      <trkpt lat="43.36311" lon="2.54445">
        <ele>516.2</ele>
        <time>2013-04-24T12:10:34Z</time>
      </trkpt>
      <trkpt lat="43.36302" lon="2.54446">
        <ele>515.4</ele>
        <time>2013-04-24T12:10:43Z</time>
      </trkpt>
      <trkpt lat="43.36294" lon="2.54447">
        <ele>514.6</ele>
        <time>2013-04-24T12:10:51Z</time>
      </trkpt>
      <trkpt lat="43.36293" lon="2.54447">
        <ele>514.5</ele>
        <time>2013-04-24T12:10:52Z</time>
      </trkpt>
      <trkpt lat="43.36278" lon="2.54448">
        <ele>513</ele>
        <time>2013-04-24T12:11:07Z</time>
      </trkpt>
      <trkpt lat="43.36269" lon="2.54448">
        <ele>512.1</ele>
        <time>2013-04-24T12:11:18Z</time>
      </trkpt>
      <trkpt lat="43.36261" lon="2.54445">
        <ele>510.6</ele>
        <time>2013-04-24T12:11:25Z</time>
      </trkpt>
      <trkpt lat="43.36253" lon="2.54442">
        <ele>509.1</ele>
        <time>2013-04-24T12:11:33Z</time>
      </trkpt>
      <trkpt lat="43.36246" lon="2.54445">
        <ele>509.4</ele>
        <time>2013-04-24T12:11:37Z</time>
      </trkpt>
      <trkpt lat="43.36238" lon="2.54449">
        <ele>510.5</ele>
        <time>2013-04-24T12:11:44Z</time>
      </trkpt>
      <trkpt lat="43.36229" lon="2.54449">
        <ele>510.8</ele>
        <time>2013-04-24T12:11:53Z</time>
      </trkpt>
      <trkpt lat="43.36228" lon="2.54449">
        <ele>510.8</ele>
        <time>2013-04-24T12:11:54Z</time>
      </trkpt>
      <trkpt lat="43.36213" lon="2.54449">
        <ele>511.2</ele>
        <time>2013-04-24T12:19:20Z</time>
      </trkpt>
      <trkpt lat="43.36206" lon="2.54453">
        <ele>511.9</ele>
        <time>2013-04-24T12:19:21Z</time>
      </trkpt>
      <trkpt lat="43.36198" lon="2.54441">
        <ele>510.1</ele>
        <time>2013-04-24T12:19:35Z</time>
      </trkpt>
      <trkpt lat="43.36194" lon="2.54431">
        <ele>508.6</ele>
        <time>2013-04-24T12:19:42Z</time>
      </trkpt>
      <trkpt lat="43.36186" lon="2.54423">
        <ele>507.8</ele>
        <time>2013-04-24T12:19:52Z</time>
      </trkpt>
      <trkpt lat="43.36179" lon="2.54418">
        <ele>507.3</ele>
        <time>2013-04-24T12:20:00Z</time>
      </trkpt>
      <trkpt lat="43.36171" lon="2.54415">
        <ele>506.9</ele>
        <time>2013-04-24T12:20:07Z</time>
      </trkpt>
      <trkpt lat="43.36163" lon="2.54411">
        <ele>505.8</ele>
        <time>2013-04-24T12:20:14Z</time>
      </trkpt>
      <trkpt lat="43.36155" lon="2.54406">
        <ele>505.2</ele>
        <time>2013-04-24T12:20:22Z</time>
      </trkpt>
      <trkpt lat="43.36154" lon="2.54405">
        <ele>505</ele>
        <time>2013-04-24T12:20:23Z</time>
      </trkpt>
      <trkpt lat="43.36141" lon="2.54399">
        <ele>504.5</ele>
        <time>2013-04-24T12:20:35Z</time>
      </trkpt>
      <trkpt lat="43.36133" lon="2.54394">
        <ele>503.6</ele>
        <time>2013-04-24T12:20:42Z</time>
      </trkpt>
      <trkpt lat="43.36125" lon="2.54392">
        <ele>504.3</ele>
        <time>2013-04-24T12:20:50Z</time>
      </trkpt>
      <trkpt lat="43.36117" lon="2.54388">
        <ele>504.2</ele>
        <time>2013-04-24T12:20:56Z</time>
      </trkpt>
      <trkpt lat="43.36109" lon="2.54385">
        <ele>504.3</ele>
        <time>2013-04-24T12:21:04Z</time>
      </trkpt>
      <trkpt lat="43.36102" lon="2.54377">
        <ele>502.4</ele>
        <time>2013-04-24T12:21:13Z</time>
      </trkpt>
      <trkpt lat="43.36094" lon="2.54374">
        <ele>502.6</ele>
        <time>2013-04-24T12:21:20Z</time>
      </trkpt>
      <trkpt lat="43.36085" lon="2.54374">
        <ele>504.2</ele>
        <time>2013-04-24T12:21:28Z</time>
      </trkpt>
      <trkpt lat="43.36084" lon="2.54374">
        <ele>504.3</ele>
        <time>2013-04-24T12:21:29Z</time>
      </trkpt>
      <trkpt lat="43.36069" lon="2.54375">
        <ele>506.5</ele>
        <time>2013-04-24T12:21:45Z</time>
      </trkpt>
      <trkpt lat="43.36061" lon="2.54373">
        <ele>506.7</ele>
        <time>2013-04-24T12:21:51Z</time>
      </trkpt>
      <trkpt lat="43.36052" lon="2.54371">
        <ele>507</ele>
        <time>2013-04-24T12:21:58Z</time>
      </trkpt>
      <trkpt lat="43.36044" lon="2.54367">
        <ele>506.7</ele>
        <time>2013-04-24T12:22:06Z</time>
      </trkpt>
      <trkpt lat="43.36036" lon="2.54365">
        <ele>506.9</ele>
        <time>2013-04-24T12:22:12Z</time>
      </trkpt>
      <trkpt lat="43.3603" lon="2.54357">
        <ele>505</ele>
        <time>2013-04-24T12:22:19Z</time>
      </trkpt>
      <trkpt lat="43.36023" lon="2.54352">
        <ele>504.2</ele>
        <time>2013-04-24T12:22:26Z</time>
      </trkpt>
      <trkpt lat="43.36016" lon="2.54345">
        <ele>503.1</ele>
        <time>2013-04-24T12:22:33Z</time>
      </trkpt>
      <trkpt lat="43.36015" lon="2.54345">
        <ele>503.2</ele>
        <time>2013-04-24T12:22:34Z</time>
      </trkpt>
      <trkpt lat="43.36" lon="2.54341">
        <ele>504.3</ele>
        <time>2013-04-24T12:22:45Z</time>
      </trkpt>
      <trkpt lat="43.35992" lon="2.5434">
        <ele>504.7</ele>
        <time>2013-04-24T12:22:50Z</time>
      </trkpt>
      <trkpt lat="43.35983" lon="2.54338">
        <ele>504.7</ele>
        <time>2013-04-24T12:22:56Z</time>
      </trkpt>
      <trkpt lat="43.35975" lon="2.54339">
        <ele>505.8</ele>
        <time>2013-04-24T12:23:04Z</time>
      </trkpt>
      <trkpt lat="43.35966" lon="2.54339">
        <ele>506.5</ele>
        <time>2013-04-24T12:23:12Z</time>
      </trkpt>
      <trkpt lat="43.35958" lon="2.54339">
        <ele>507.2</ele>
        <time>2013-04-24T12:23:18Z</time>
      </trkpt>
      <trkpt lat="43.3595" lon="2.5434">
        <ele>508</ele>
        <time>2013-04-24T12:23:24Z</time>
      </trkpt>
      <trkpt lat="43.35942" lon="2.54335">
        <ele>507.9</ele>
        <time>2013-04-24T12:23:32Z</time>
      </trkpt>
      <trkpt lat="43.35935" lon="2.54328">
        <ele>506.3</ele>
        <time>2013-04-24T12:23:40Z</time>
      </trkpt>
      <trkpt lat="43.35933" lon="2.54328">
        <ele>506.4</ele>
        <time>2013-04-24T12:23:41Z</time>
      </trkpt>
      <trkpt lat="43.35917" lon="2.54328">
        <ele>508.2</ele>
        <time>2013-04-24T12:23:51Z</time>
      </trkpt>
      <trkpt lat="43.35909" lon="2.54324">
        <ele>506.8</ele>
        <time>2013-04-24T12:23:58Z</time>
      </trkpt>
      <trkpt lat="43.35901" lon="2.54321">
        <ele>505.6</ele>
        <time>2013-04-24T12:24:05Z</time>
      </trkpt>
      <trkpt lat="43.35894" lon="2.54318">
        <ele>504.3</ele>
        <time>2013-04-24T12:24:12Z</time>
      </trkpt>
      <trkpt lat="43.35886" lon="2.54318">
        <ele>504</ele>
        <time>2013-04-24T12:24:18Z</time>
      </trkpt>
      <trkpt lat="43.35878" lon="2.54314">
        <ele>502.9</ele>
        <time>2013-04-24T12:24:24Z</time>
      </trkpt>
      <trkpt lat="43.3587" lon="2.54309">
        <ele>501.3</ele>
        <time>2013-04-24T12:24:31Z</time>
      </trkpt>
      <trkpt lat="43.35863" lon="2.54303">
        <ele>499.8</ele>
        <time>2013-04-24T12:24:38Z</time>
      </trkpt>
      <trkpt lat="43.35855" lon="2.54297">
        <ele>498.3</ele>
        <time>2013-04-24T12:24:45Z</time>
      </trkpt>
      <trkpt lat="43.35854" lon="2.54296">
        <ele>498</ele>
        <time>2013-04-24T12:24:46Z</time>
      </trkpt>
      <trkpt lat="43.35844" lon="2.54282">
        <ele>494.7</ele>
        <time>2013-04-24T12:24:59Z</time>
      </trkpt>
      <trkpt lat="43.35837" lon="2.54276">
        <ele>493.4</ele>
        <time>2013-04-24T12:25:05Z</time>
      </trkpt>
      <trkpt lat="43.3583" lon="2.54271">
        <ele>492.6</ele>
        <time>2013-04-24T12:25:11Z</time>
      </trkpt>
      <trkpt lat="43.35822" lon="2.54265">
        <ele>491.7</ele>
        <time>2013-04-24T12:25:18Z</time>
      </trkpt>
      <trkpt lat="43.35817" lon="2.54257">
        <ele>490.4</ele>
        <time>2013-04-24T12:25:24Z</time>
      </trkpt>
      <trkpt lat="43.35809" lon="2.5425">
        <ele>489.7</ele>
        <time>2013-04-24T12:25:31Z</time>
      </trkpt>
      <trkpt lat="43.35802" lon="2.54246">
        <ele>488.6</ele>
        <time>2013-04-24T12:25:37Z</time>
      </trkpt>
      <trkpt lat="43.35796" lon="2.54239">
        <ele>486.8</ele>
        <time>2013-04-24T12:25:43Z</time>
      </trkpt>
      <trkpt lat="43.35789" lon="2.54233">
        <ele>485.2</ele>
        <time>2013-04-24T12:25:49Z</time>
      </trkpt>
      <trkpt lat="43.35787" lon="2.5423">
        <ele>484.5</ele>
        <time>2013-04-24T12:25:50Z</time>
      </trkpt>
      <trkpt lat="43.35774" lon="2.54221">
        <ele>482.8</ele>
        <time>2013-04-24T12:26:04Z</time>
      </trkpt>
      <trkpt lat="43.35766" lon="2.54217">
        <ele>482</ele>
        <time>2013-04-24T12:26:13Z</time>
      </trkpt>
      <trkpt lat="43.3576" lon="2.54209">
        <ele>480.3</ele>
        <time>2013-04-24T12:26:21Z</time>
      </trkpt>
      <trkpt lat="43.35754" lon="2.54201">
        <ele>478.3</ele>
        <time>2013-04-24T12:26:27Z</time>
      </trkpt>
      <trkpt lat="43.35747" lon="2.54195">
        <ele>477.1</ele>
        <time>2013-04-24T12:26:33Z</time>
      </trkpt>
      <trkpt lat="43.35741" lon="2.54188">
        <ele>475.5</ele>
        <time>2013-04-24T12:26:40Z</time>
      </trkpt>
      <trkpt lat="43.35733" lon="2.54182">
        <ele>474.9</ele>
        <time>2013-04-24T12:26:48Z</time>
      </trkpt>
      <trkpt lat="43.35728" lon="2.54173">
        <ele>473.3</ele>
        <time>2013-04-24T12:26:54Z</time>
      </trkpt>
      <trkpt lat="43.35727" lon="2.54172">
        <ele>473.1</ele>
        <time>2013-04-24T12:26:55Z</time>
      </trkpt>
      <trkpt lat="43.35714" lon="2.54161">
        <ele>471.4</ele>
        <time>2013-04-24T12:27:09Z</time>
      </trkpt>
      <trkpt lat="43.35707" lon="2.54154">
        <ele>469.9</ele>
        <time>2013-04-24T12:27:17Z</time>
      </trkpt>
      <trkpt lat="43.357" lon="2.54148">
        <ele>468.9</ele>
        <time>2013-04-24T12:27:23Z</time>
      </trkpt>
      <trkpt lat="43.35694" lon="2.5414">
        <ele>467.3</ele>
        <time>2013-04-24T12:27:30Z</time>
      </trkpt>
      <trkpt lat="43.35687" lon="2.54134">
        <ele>466.4</ele>
        <time>2013-04-24T12:27:37Z</time>
      </trkpt>
      <trkpt lat="43.3568" lon="2.54128">
        <ele>466</ele>
        <time>2013-04-24T12:27:43Z</time>
      </trkpt>
      <trkpt lat="43.35672" lon="2.54125">
        <ele>466.7</ele>
        <time>2013-04-24T12:27:50Z</time>
      </trkpt>
      <trkpt lat="43.35665" lon="2.54119">
        <ele>466.1</ele>
        <time>2013-04-24T12:27:55Z</time>
      </trkpt>
      <trkpt lat="43.35663" lon="2.54119">
        <ele>466.5</ele>
        <time>2013-04-24T12:27:56Z</time>
      </trkpt>
      <trkpt lat="43.35652" lon="2.54104">
        <ele>464.2</ele>
        <time>2013-04-24T12:28:09Z</time>
      </trkpt>
      <trkpt lat="43.35644" lon="2.54099">
        <ele>464.4</ele>
        <time>2013-04-24T12:28:16Z</time>
      </trkpt>
      <trkpt lat="43.35638" lon="2.54092">
        <ele>464.2</ele>
        <time>2013-04-24T12:28:23Z</time>
      </trkpt>
      <trkpt lat="43.35632" lon="2.54083">
        <ele>463.4</ele>
        <time>2013-04-24T12:28:30Z</time>
      </trkpt>
      <trkpt lat="43.35625" lon="2.54075">
        <ele>462.1</ele>
        <time>2013-04-24T12:28:37Z</time>
      </trkpt>
      <trkpt lat="43.35618" lon="2.5407">
        <ele>462</ele>
        <time>2013-04-24T12:28:43Z</time>
      </trkpt>
      <trkpt lat="43.35612" lon="2.54063">
        <ele>461.1</ele>
        <time>2013-04-24T12:28:50Z</time>
      </trkpt>
      <trkpt lat="43.35607" lon="2.54055">
        <ele>459.7</ele>
        <time>2013-04-24T12:28:56Z</time>
      </trkpt>
      <trkpt lat="43.35606" lon="2.54055">
        <ele>459.8</ele>
        <time>2013-04-24T12:28:57Z</time>
      </trkpt>
      <trkpt lat="43.35594" lon="2.54041">
        <ele>458.1</ele>
        <time>2013-04-24T12:29:09Z</time>
      </trkpt>
      <trkpt lat="43.35587" lon="2.54033">
        <ele>457.5</ele>
        <time>2013-04-24T12:29:16Z</time>
      </trkpt>
      <trkpt lat="43.35581" lon="2.54027">
        <ele>457</ele>
        <time>2013-04-24T12:29:23Z</time>
      </trkpt>
      <trkpt lat="43.35573" lon="2.5402">
        <ele>456.7</ele>
        <time>2013-04-24T12:29:31Z</time>
      </trkpt>
      <trkpt lat="43.35566" lon="2.54014">
        <ele>456.9</ele>
        <time>2013-04-24T12:29:38Z</time>
      </trkpt>
      <trkpt lat="43.35558" lon="2.54009">
        <ele>457.7</ele>
        <time>2013-04-24T12:29:45Z</time>
      </trkpt>
      <trkpt lat="43.35549" lon="2.54004">
        <ele>459</ele>
        <time>2013-04-24T12:29:52Z</time>
      </trkpt>
      <trkpt lat="43.35542" lon="2.53999">
        <ele>460.1</ele>
        <time>2013-04-24T12:29:58Z</time>
      </trkpt>
      <trkpt lat="43.3554" lon="2.53999">
        <ele>460.5</ele>
        <time>2013-04-24T12:29:59Z</time>
      </trkpt>
      <trkpt lat="43.35527" lon="2.53985">
        <ele>460.8</ele>
        <time>2013-04-24T12:30:13Z</time>
      </trkpt>
      <trkpt lat="43.35521" lon="2.53979">
        <ele>461.7</ele>
        <time>2013-04-24T12:30:19Z</time>
      </trkpt>
      <trkpt lat="43.35516" lon="2.5397">
        <ele>461.1</ele>
        <time>2013-04-24T12:30:25Z</time>
      </trkpt>
      <trkpt lat="43.3551" lon="2.53961">
        <ele>461.5</ele>
        <time>2013-04-24T12:30:32Z</time>
      </trkpt>
      <trkpt lat="43.35502" lon="2.53958">
        <ele>464.4</ele>
        <time>2013-04-24T12:30:38Z</time>
      </trkpt>
      <trkpt lat="43.35496" lon="2.53951">
        <ele>464.8</ele>
        <time>2013-04-24T12:30:45Z</time>
      </trkpt>
      <trkpt lat="43.35488" lon="2.53945">
        <ele>465</ele>
        <time>2013-04-24T12:30:52Z</time>
      </trkpt>
      <trkpt lat="43.35481" lon="2.53938">
        <ele>465.3</ele>
        <time>2013-04-24T12:30:59Z</time>
      </trkpt>
      <trkpt lat="43.3548" lon="2.53937">
        <ele>465.4</ele>
        <time>2013-04-24T12:31:00Z</time>
      </trkpt>
      <trkpt lat="43.35474" lon="2.53919">
        <ele>464.2</ele>
        <time>2013-04-24T12:31:12Z</time>
      </trkpt>
      <trkpt lat="43.35471" lon="2.53909">
        <ele>463.2</ele>
        <time>2013-04-24T12:31:18Z</time>
      </trkpt>
      <trkpt lat="43.35469" lon="2.53897">
        <ele>461.7</ele>
        <time>2013-04-24T12:31:24Z</time>
      </trkpt>
      <trkpt lat="43.35467" lon="2.53886">
        <ele>460.3</ele>
        <time>2013-04-24T12:31:30Z</time>
      </trkpt>
      <trkpt lat="43.35464" lon="2.53876">
        <ele>459.6</ele>
        <time>2013-04-24T12:31:36Z</time>
      </trkpt>
      <trkpt lat="43.35462" lon="2.53865">
        <ele>458.4</ele>
        <time>2013-04-24T12:31:42Z</time>
      </trkpt>
      <trkpt lat="43.3546" lon="2.53854">
        <ele>457.4</ele>
        <time>2013-04-24T12:31:49Z</time>
      </trkpt>
      <trkpt lat="43.35456" lon="2.53844">
        <ele>457.6</ele>
        <time>2013-04-24T12:31:56Z</time>
      </trkpt>
      <trkpt lat="43.35451" lon="2.53834">
        <ele>458</ele>
        <time>2013-04-24T12:32:03Z</time>
      </trkpt>
      <trkpt lat="43.35451" lon="2.53832">
        <ele>457.8</ele>
        <time>2013-04-24T12:32:04Z</time>
      </trkpt>
      <trkpt lat="43.35445" lon="2.53812">
        <ele>458.4</ele>
        <time>2013-04-24T12:32:17Z</time>
      </trkpt>
      <trkpt lat="43.3544" lon="2.53803">
        <ele>460.1</ele>
        <time>2013-04-24T12:32:24Z</time>
      </trkpt>
      <trkpt lat="43.35441" lon="2.53791">
        <ele>458.6</ele>
        <time>2013-04-24T12:32:41Z</time>
      </trkpt>
      <trkpt lat="43.35438" lon="2.5378">
        <ele>458.8</ele>
        <time>2013-04-24T12:32:49Z</time>
      </trkpt>
      <trkpt lat="43.35437" lon="2.53769">
        <ele>458.4</ele>
        <time>2013-04-24T12:32:59Z</time>
      </trkpt>
      <trkpt lat="43.35437" lon="2.53757">
        <ele>457.3</ele>
        <time>2013-04-24T12:33:06Z</time>
      </trkpt>
      <trkpt lat="43.35438" lon="2.53755">
        <ele>457</ele>
        <time>2013-04-24T12:33:07Z</time>
      </trkpt>
      <trkpt lat="43.35438" lon="2.53735">
        <ele>456.9</ele>
        <time>2013-04-24T12:33:19Z</time>
      </trkpt>
      <trkpt lat="43.35439" lon="2.53724">
        <ele>456.7</ele>
        <time>2013-04-24T12:33:26Z</time>
      </trkpt>
      <trkpt lat="43.35438" lon="2.53713">
        <ele>457.2</ele>
        <time>2013-04-24T12:33:33Z</time>
      </trkpt>
      <trkpt lat="43.35437" lon="2.53701">
        <ele>457.6</ele>
        <time>2013-04-24T12:33:40Z</time>
      </trkpt>
      <trkpt lat="43.35439" lon="2.53689">
        <ele>457.1</ele>
        <time>2013-04-24T12:33:47Z</time>
      </trkpt>
      <trkpt lat="43.35438" lon="2.53677">
        <ele>457.8</ele>
        <time>2013-04-24T12:33:55Z</time>
      </trkpt>
      <trkpt lat="43.35436" lon="2.53666">
        <ele>458.8</ele>
        <time>2013-04-24T12:34:03Z</time>
      </trkpt>
      <trkpt lat="43.35431" lon="2.53657">
        <ele>461.5</ele>
        <time>2013-04-24T12:34:14Z</time>
      </trkpt>
      <trkpt lat="43.3543" lon="2.53656">
        <ele>461.6</ele>
        <time>2013-04-24T12:34:15Z</time>
      </trkpt>
      <trkpt lat="43.35425" lon="2.53635">
        <ele>465.1</ele>
        <time>2013-04-24T12:34:31Z</time>
      </trkpt>
      <trkpt lat="43.35423" lon="2.53623">
        <ele>466.9</ele>
        <time>2013-04-24T12:34:38Z</time>
      </trkpt>
      <trkpt lat="43.35418" lon="2.53613">
        <ele>469.5</ele>
        <time>2013-04-24T12:34:46Z</time>
      </trkpt>
      <trkpt lat="43.35413" lon="2.53604">
        <ele>471</ele>
        <time>2013-04-24T12:34:54Z</time>
      </trkpt>
      <trkpt lat="43.35408" lon="2.53595">
        <ele>471.7</ele>
        <time>2013-04-24T12:35:01Z</time>
      </trkpt>
      <trkpt lat="43.35402" lon="2.53587">
        <ele>472.4</ele>
        <time>2013-04-24T12:35:10Z</time>
      </trkpt>
      <trkpt lat="43.35395" lon="2.53579">
        <ele>472.7</ele>
        <time>2013-04-24T12:35:21Z</time>
      </trkpt>
      <trkpt lat="43.35395" lon="2.53578">
        <ele>472.7</ele>
        <time>2013-04-24T12:35:22Z</time>
      </trkpt>
      <trkpt lat="43.35382" lon="2.53566">
        <ele>473</ele>
        <time>2013-04-24T12:35:36Z</time>
      </trkpt>
      <trkpt lat="43.35375" lon="2.53559">
        <ele>473.2</ele>
        <time>2013-04-24T12:35:41Z</time>
      </trkpt>
      <trkpt lat="43.35368" lon="2.53551">
        <ele>473.4</ele>
        <time>2013-04-24T12:35:51Z</time>
      </trkpt>
      <trkpt lat="43.3536" lon="2.53546">
        <ele>473.7</ele>
        <time>2013-04-24T12:35:58Z</time>
      </trkpt>
      <trkpt lat="43.35354" lon="2.53539">
        <ele>474</ele>
        <time>2013-04-24T12:36:05Z</time>
      </trkpt>
      <trkpt lat="43.35348" lon="2.53531">
        <ele>474.3</ele>
        <time>2013-04-24T12:36:12Z</time>
      </trkpt>
      <trkpt lat="43.35341" lon="2.53523">
        <ele>474.6</ele>
        <time>2013-04-24T12:36:22Z</time>
      </trkpt>
      <trkpt lat="43.35341" lon="2.53522">
        <ele>474.6</ele>
        <time>2013-04-24T12:36:23Z</time>
      </trkpt>
      <trkpt lat="43.35329" lon="2.53507">
        <ele>474.9</ele>
        <time>2013-04-24T12:36:42Z</time>
      </trkpt>
      <trkpt lat="43.35323" lon="2.535">
        <ele>474.5</ele>
        <time>2013-04-24T12:36:51Z</time>
      </trkpt>
      <trkpt lat="43.35317" lon="2.53495">
        <ele>472.5</ele>
        <time>2013-04-24T12:36:59Z</time>
      </trkpt>
      <trkpt lat="43.35309" lon="2.53488">
        <ele>470.1</ele>
        <time>2013-04-24T12:37:07Z</time>
      </trkpt>
      <trkpt lat="43.35301" lon="2.53488">
        <ele>469.6</ele>
        <time>2013-04-24T12:37:15Z</time>
      </trkpt>
      <trkpt lat="43.35293" lon="2.53485">
        <ele>468.6</ele>
        <time>2013-04-24T12:37:22Z</time>
      </trkpt>
      <trkpt lat="43.35285" lon="2.53484">
        <ele>467.7</ele>
        <time>2013-04-24T12:37:29Z</time>
      </trkpt>
      <trkpt lat="43.35284" lon="2.53483">
        <ele>467.5</ele>
        <time>2013-04-24T12:37:30Z</time>
      </trkpt>
      <trkpt lat="43.35271" lon="2.53471">
        <ele>463.1</ele>
        <time>2013-04-24T12:37:48Z</time>
      </trkpt>
      <trkpt lat="43.35264" lon="2.53467">
        <ele>461.3</ele>
        <time>2013-04-24T12:37:58Z</time>
      </trkpt>
      <trkpt lat="43.35256" lon="2.53461">
        <ele>459</ele>
        <time>2013-04-24T12:38:04Z</time>
      </trkpt>
      <trkpt lat="43.35249" lon="2.53454">
        <ele>456.4</ele>
        <time>2013-04-24T12:38:15Z</time>
      </trkpt>
      <trkpt lat="43.35243" lon="2.53445">
        <ele>453.9</ele>
        <time>2013-04-24T12:38:24Z</time>
      </trkpt>
      <trkpt lat="43.35235" lon="2.53439">
        <ele>452.3</ele>
        <time>2013-04-24T12:38:33Z</time>
      </trkpt>
      <trkpt lat="43.35234" lon="2.53438">
        <ele>452.1</ele>
        <time>2013-04-24T12:38:34Z</time>
      </trkpt>
      <trkpt lat="43.3522" lon="2.53431">
        <ele>450.5</ele>
        <time>2013-04-24T12:38:49Z</time>
      </trkpt>
      <trkpt lat="43.35212" lon="2.53428">
        <ele>450.1</ele>
        <time>2013-04-24T12:38:56Z</time>
      </trkpt>
      <trkpt lat="43.35204" lon="2.53422">
        <ele>448.8</ele>
        <time>2013-04-24T12:39:05Z</time>
      </trkpt>
      <trkpt lat="43.35196" lon="2.53417">
        <ele>447.6</ele>
        <time>2013-04-24T12:39:14Z</time>
      </trkpt>
      <trkpt lat="43.35193" lon="2.53406">
        <ele>442.9</ele>
        <time>2013-04-24T12:39:22Z</time>
      </trkpt>
      <trkpt lat="43.35185" lon="2.53402">
        <ele>441.9</ele>
        <time>2013-04-24T12:39:31Z</time>
      </trkpt>
      <trkpt lat="43.35179" lon="2.53395">
        <ele>439</ele>
        <time>2013-04-24T12:39:38Z</time>
      </trkpt>
      <trkpt lat="43.35179" lon="2.53393">
        <ele>438.1</ele>
        <time>2013-04-24T12:39:39Z</time>
      </trkpt>
      <trkpt lat="43.35171" lon="2.53375">
        <ele>430.3</ele>
        <time>2013-04-24T12:40:05Z</time>
      </trkpt>
      <trkpt lat="43.35168" lon="2.53365">
        <ele>426</ele>
        <time>2013-04-24T12:40:15Z</time>
      </trkpt>
      <trkpt lat="43.35163" lon="2.53355">
        <ele>422.9</ele>
        <time>2013-04-24T12:40:25Z</time>
      </trkpt>
      <trkpt lat="43.35156" lon="2.53349">
        <ele>422</ele>
        <time>2013-04-24T12:40:32Z</time>
      </trkpt>
      <trkpt lat="43.35152" lon="2.5334">
        <ele>419.5</ele>
        <time>2013-04-24T12:40:38Z</time>
      </trkpt>
      <trkpt lat="43.35147" lon="2.5333">
        <ele>416.2</ele>
        <time>2013-04-24T12:40:45Z</time>
      </trkpt>
      <trkpt lat="43.35147" lon="2.53329">
        <ele>415.7</ele>
        <time>2013-04-24T12:40:46Z</time>
      </trkpt>
      <trkpt lat="43.35136" lon="2.53315">
        <ele>413</ele>
        <time>2013-04-24T12:41:04Z</time>
      </trkpt>
      <trkpt lat="43.35128" lon="2.53309">
        <ele>413.4</ele>
        <time>2013-04-24T12:41:07Z</time>
      </trkpt>
      <trkpt lat="43.35122" lon="2.53301">
        <ele>412</ele>
        <time>2013-04-24T12:41:15Z</time>
      </trkpt>
      <trkpt lat="43.35123" lon="2.5329">
        <ele>407</ele>
        <time>2013-04-24T12:41:22Z</time>
      </trkpt>
      <trkpt lat="43.35117" lon="2.53282">
        <ele>405.6</ele>
        <time>2013-04-24T12:41:30Z</time>
      </trkpt>
      <trkpt lat="43.3511" lon="2.53273">
        <ele>404.8</ele>
        <time>2013-04-24T12:41:39Z</time>
      </trkpt>
      <trkpt lat="43.35104" lon="2.53266">
        <ele>404.9</ele>
        <time>2013-04-24T12:41:47Z</time>
      </trkpt>
      <trkpt lat="43.35103" lon="2.53266">
        <ele>405.1</ele>
        <time>2013-04-24T12:41:48Z</time>
      </trkpt>
      <trkpt lat="43.35091" lon="2.53252">
        <ele>405</ele>
        <time>2013-04-24T12:42:00Z</time>
      </trkpt>
      <trkpt lat="43.35086" lon="2.53242">
        <ele>403.2</ele>
        <time>2013-04-24T12:42:08Z</time>
      </trkpt>
      <trkpt lat="43.35081" lon="2.53233">
        <ele>401.6</ele>
        <time>2013-04-24T12:42:18Z</time>
      </trkpt>
      <trkpt lat="43.35075" lon="2.53224">
        <ele>400.2</ele>
        <time>2013-04-24T12:42:24Z</time>
      </trkpt>
      <trkpt lat="43.3507" lon="2.53216">
        <ele>399.2</ele>
        <time>2013-04-24T12:42:33Z</time>
      </trkpt>
      <trkpt lat="43.35062" lon="2.53209">
        <ele>399.6</ele>
        <time>2013-04-24T12:42:42Z</time>
      </trkpt>
      <trkpt lat="43.35057" lon="2.532">
        <ele>398.3</ele>
        <time>2013-04-24T12:42:54Z</time>
      </trkpt>
      <trkpt lat="43.35057" lon="2.53199">
        <ele>398.3</ele>
        <time>2013-04-24T12:42:55Z</time>
      </trkpt>
      <trkpt lat="43.35067" lon="2.53182">
        <ele>386</ele>
        <time>2013-04-24T12:43:12Z</time>
      </trkpt>
      <trkpt lat="43.35074" lon="2.53177">
        <ele>379.7</ele>
        <time>2013-04-24T12:43:18Z</time>
      </trkpt>
      <trkpt lat="43.35083" lon="2.53172">
        <ele>373.5</ele>
        <time>2013-04-24T12:43:23Z</time>
      </trkpt>
      <trkpt lat="43.35088" lon="2.53163">
        <ele>367.6</ele>
        <time>2013-04-24T12:43:29Z</time>
      </trkpt>
      <trkpt lat="43.35094" lon="2.53154">
        <ele>361.9</ele>
        <time>2013-04-24T12:43:35Z</time>
      </trkpt>
      <trkpt lat="43.35098" lon="2.53143">
        <ele>356.4</ele>
        <time>2013-04-24T12:43:42Z</time>
      </trkpt>
      <trkpt lat="43.35099" lon="2.53132">
        <ele>351.7</ele>
        <time>2013-04-24T12:43:52Z</time>
      </trkpt>
      <trkpt lat="43.35099" lon="2.5312">
        <ele>347.6</ele>
        <time>2013-04-24T12:44:00Z</time>
      </trkpt>
      <trkpt lat="43.35099" lon="2.53119">
        <ele>347.1</ele>
        <time>2013-04-24T12:44:01Z</time>
      </trkpt>
      <trkpt lat="43.35101" lon="2.53098">
        <ele>338.6</ele>
        <time>2013-04-24T12:44:17Z</time>
      </trkpt>
      <trkpt lat="43.35099" lon="2.53087">
        <ele>335.4</ele>
        <time>2013-04-24T12:44:24Z</time>
      </trkpt>
      <trkpt lat="43.35098" lon="2.53075">
        <ele>331.9</ele>
        <time>2013-04-24T12:44:33Z</time>
      </trkpt>
      <trkpt lat="43.35101" lon="2.53065">
        <ele>327</ele>
        <time>2013-04-24T12:44:42Z</time>
      </trkpt>
      <trkpt lat="43.35102" lon="2.53053">
        <ele>322.9</ele>
        <time>2013-04-24T12:44:52Z</time>
      </trkpt>
      <trkpt lat="43.35094" lon="2.53047">
        <ele>324.6</ele>
        <time>2013-04-24T12:44:59Z</time>
      </trkpt>
      <trkpt lat="43.35088" lon="2.53041">
        <ele>325.6</ele>
        <time>2013-04-24T12:45:09Z</time>
      </trkpt>
      <trkpt lat="43.35087" lon="2.53039">
        <ele>325.6</ele>
        <time>2013-04-24T12:45:10Z</time>
      </trkpt>
      <trkpt lat="43.35079" lon="2.53022">
        <ele>324.7</ele>
        <time>2013-04-24T12:45:27Z</time>
      </trkpt>
      <trkpt lat="43.35076" lon="2.53011">
        <ele>323.5</ele>
        <time>2013-04-24T12:45:34Z</time>
      </trkpt>
      <trkpt lat="43.35071" lon="2.53002">
        <ele>324.2</ele>
        <time>2013-04-24T12:45:41Z</time>
      </trkpt>
      <trkpt lat="43.35072" lon="2.52991">
        <ele>320.9</ele>
        <time>2013-04-24T12:45:49Z</time>
      </trkpt>
      <trkpt lat="43.35074" lon="2.52979">
        <ele>316.4</ele>
        <time>2013-04-24T12:45:58Z</time>
      </trkpt>
      <trkpt lat="43.35077" lon="2.52968">
        <ele>312.1</ele>
        <time>2013-04-24T12:46:07Z</time>
      </trkpt>
      <trkpt lat="43.35081" lon="2.52957">
        <ele>306.5</ele>
        <time>2013-04-24T12:46:16Z</time>
      </trkpt>
      <trkpt lat="43.35082" lon="2.52956">
        <ele>305.9</ele>
        <time>2013-04-24T12:46:17Z</time>
      </trkpt>
      <trkpt lat="43.35087" lon="2.52936">
        <ele>298.8</ele>
        <time>2013-04-24T12:46:32Z</time>
      </trkpt>
      <trkpt lat="43.35091" lon="2.52925">
        <ele>295.1</ele>
        <time>2013-04-24T12:46:41Z</time>
      </trkpt>
      <trkpt lat="43.35091" lon="2.52913">
        <ele>292.5</ele>
        <time>2013-04-24T12:46:48Z</time>
      </trkpt>
      <trkpt lat="43.35087" lon="2.52904">
        <ele>291.9</ele>
        <time>2013-04-24T12:46:53Z</time>
      </trkpt>
      <trkpt lat="43.35081" lon="2.52896">
        <ele>292.8</ele>
        <time>2013-04-24T12:47:01Z</time>
      </trkpt>
      <trkpt lat="43.35074" lon="2.52892">
        <ele>297</ele>
        <time>2013-04-24T12:47:07Z</time>
      </trkpt>
      <trkpt lat="43.35066" lon="2.52889">
        <ele>301.7</ele>
        <time>2013-04-24T12:47:13Z</time>
      </trkpt>
      <trkpt lat="43.35058" lon="2.52888">
        <ele>306.6</ele>
        <time>2013-04-24T12:47:18Z</time>
      </trkpt>
      <trkpt lat="43.35057" lon="2.52887">
        <ele>307.5</ele>
        <time>2013-04-24T12:47:19Z</time>
      </trkpt>
      <trkpt lat="43.35041" lon="2.52883">
        <ele>317.2</ele>
        <time>2013-04-24T12:47:31Z</time>
      </trkpt>
      <trkpt lat="43.35033" lon="2.52882">
        <ele>322.3</ele>
        <time>2013-04-24T12:47:36Z</time>
      </trkpt>
      <trkpt lat="43.35026" lon="2.52881">
        <ele>327.2</ele>
        <time>2013-04-24T12:47:41Z</time>
      </trkpt>
      <trkpt lat="43.35017" lon="2.52881">
        <ele>332.9</ele>
        <time>2013-04-24T12:47:47Z</time>
      </trkpt>
      <trkpt lat="43.35009" lon="2.5288">
        <ele>338.5</ele>
        <time>2013-04-24T12:47:54Z</time>
      </trkpt>
      <trkpt lat="43.35001" lon="2.52878">
        <ele>343.5</ele>
        <time>2013-04-24T12:47:59Z</time>
      </trkpt>
      <trkpt lat="43.34993" lon="2.52874">
        <ele>346.8</ele>
        <time>2013-04-24T12:48:06Z</time>
      </trkpt>
      <trkpt lat="43.34984" lon="2.52871">
        <ele>350.5</ele>
        <time>2013-04-24T12:48:13Z</time>
      </trkpt>
      <trkpt lat="43.34977" lon="2.52866">
        <ele>352.8</ele>
        <time>2013-04-24T12:48:21Z</time>
      </trkpt>
      <trkpt lat="43.34976" lon="2.52865">
        <ele>353</ele>
        <time>2013-04-24T12:48:22Z</time>
      </trkpt>
      <trkpt lat="43.34962" lon="2.52855">
        <ele>357.1</ele>
        <time>2013-04-24T12:48:36Z</time>
      </trkpt>
      <trkpt lat="43.34956" lon="2.52847">
        <ele>357.3</ele>
        <time>2013-04-24T12:48:43Z</time>
      </trkpt>
      <trkpt lat="43.3495" lon="2.52839">
        <ele>358</ele>
        <time>2013-04-24T12:48:50Z</time>
      </trkpt>
      <trkpt lat="43.34942" lon="2.52835">
        <ele>360.4</ele>
        <time>2013-04-24T12:48:56Z</time>
      </trkpt>
      <trkpt lat="43.34935" lon="2.52829">
        <ele>360.7</ele>
        <time>2013-04-24T12:49:02Z</time>
      </trkpt>
      <trkpt lat="43.34928" lon="2.52825">
        <ele>362.1</ele>
        <time>2013-04-24T12:49:09Z</time>
      </trkpt>
      <trkpt lat="43.3492" lon="2.52822">
        <ele>364.2</ele>
        <time>2013-04-24T12:49:14Z</time>
      </trkpt>
      <trkpt lat="43.34882" lon="2.52815">
        <ele>366.8</ele>
        <time>2013-04-24T12:49:39Z</time>
      </trkpt>
      <trkpt lat="43.34877" lon="2.52814">
        <ele>367</ele>
        <time>2013-04-24T12:49:42Z</time>
      </trkpt>
      <trkpt lat="43.34865" lon="2.52811">
        <ele>367</ele>
        <time>2013-04-24T12:49:49Z</time>
      </trkpt>
      <trkpt lat="43.34856" lon="2.52808">
        <ele>366.9</ele>
        <time>2013-04-24T12:49:54Z</time>
      </trkpt>
      <trkpt lat="43.34848" lon="2.52805">
        <ele>366.2</ele>
        <time>2013-04-24T12:50:02Z</time>
      </trkpt>
      <trkpt lat="43.3484" lon="2.52802">
        <ele>365.9</ele>
        <time>2013-04-24T12:50:12Z</time>
      </trkpt>
      <trkpt lat="43.34833" lon="2.52794">
        <ele>363.1</ele>
        <time>2013-04-24T12:50:22Z</time>
      </trkpt>
      <trkpt lat="43.34826" lon="2.52786">
        <ele>360.2</ele>
        <time>2013-04-24T12:50:28Z</time>
      </trkpt>
      <trkpt lat="43.34818" lon="2.5278">
        <ele>358.6</ele>
        <time>2013-04-24T12:50:36Z</time>
      </trkpt>
      <trkpt lat="43.3481" lon="2.52779">
        <ele>359.3</ele>
        <time>2013-04-24T12:50:44Z</time>
      </trkpt>
      <trkpt lat="43.34809" lon="2.52779">
        <ele>359.1</ele>
        <time>2013-04-24T12:50:45Z</time>
      </trkpt>
      <trkpt lat="43.34795" lon="2.52772">
        <ele>357.9</ele>
        <time>2013-04-24T12:51:05Z</time>
      </trkpt>
      <trkpt lat="43.34786" lon="2.52768">
        <ele>357.4</ele>
        <time>2013-04-24T12:51:14Z</time>
      </trkpt>
      <trkpt lat="43.34778" lon="2.52763">
        <ele>355.9</ele>
        <time>2013-04-24T12:51:25Z</time>
      </trkpt>
      <trkpt lat="43.34772" lon="2.52755">
        <ele>353.3</ele>
        <time>2013-04-24T12:51:34Z</time>
      </trkpt>
      <trkpt lat="43.34766" lon="2.52746">
        <ele>349.5</ele>
        <time>2013-04-24T12:51:39Z</time>
      </trkpt>
      <trkpt lat="43.34759" lon="2.52751">
        <ele>353</ele>
        <time>2013-04-24T12:51:47Z</time>
      </trkpt>
      <trkpt lat="43.34758" lon="2.52752">
        <ele>353.6</ele>
        <time>2013-04-24T12:51:48Z</time>
      </trkpt>
      <trkpt lat="43.34743" lon="2.52742">
        <ele>351.2</ele>
        <time>2013-04-24T12:52:08Z</time>
      </trkpt>
      <trkpt lat="43.34737" lon="2.52735">
        <ele>349.2</ele>
        <time>2013-04-24T12:52:18Z</time>
      </trkpt>
      <trkpt lat="43.34732" lon="2.52726">
        <ele>346</ele>
        <time>2013-04-24T12:52:29Z</time>
      </trkpt>
      <trkpt lat="43.34729" lon="2.52715">
        <ele>341.7</ele>
        <time>2013-04-24T12:52:38Z</time>
      </trkpt>
      <trkpt lat="43.34723" lon="2.52706">
        <ele>338.7</ele>
        <time>2013-04-24T12:52:49Z</time>
      </trkpt>
      <trkpt lat="43.34723" lon="2.52705">
        <ele>338.3</ele>
        <time>2013-04-24T12:52:50Z</time>
      </trkpt>
      <trkpt lat="43.34715" lon="2.52687">
        <ele>332.3</ele>
        <time>2013-04-24T12:53:07Z</time>
      </trkpt>
      <trkpt lat="43.3471" lon="2.52678">
        <ele>329.2</ele>
        <time>2013-04-24T12:53:15Z</time>
      </trkpt>
      <trkpt lat="43.34706" lon="2.52668">
        <ele>326.2</ele>
        <time>2013-04-24T12:53:23Z</time>
      </trkpt>
      <trkpt lat="43.34706" lon="2.52657">
        <ele>321.9</ele>
        <time>2013-04-24T12:53:33Z</time>
      </trkpt>
      <trkpt lat="43.34707" lon="2.52645">
        <ele>317</ele>
        <time>2013-04-24T12:53:42Z</time>
      </trkpt>
      <trkpt lat="43.34705" lon="2.52633">
        <ele>312.9</ele>
        <time>2013-04-24T12:53:52Z</time>
      </trkpt>
      <trkpt lat="43.34705" lon="2.52632">
        <ele>312.6</ele>
        <time>2013-04-24T12:53:53Z</time>
      </trkpt>
      <trkpt lat="43.34705" lon="2.5261">
        <ele>304.5</ele>
        <time>2013-04-24T12:54:11Z</time>
      </trkpt>
      <trkpt lat="43.34698" lon="2.52608">
        <ele>306.1</ele>
        <time>2013-04-24T12:54:13Z</time>
      </trkpt>
      <trkpt lat="43.3469" lon="2.52608">
        <ele>309</ele>
        <time>2013-04-24T12:54:15Z</time>
      </trkpt>
      <trkpt lat="43.34683" lon="2.52604">
        <ele>310.3</ele>
        <time>2013-04-24T12:54:18Z</time>
      </trkpt>
      <trkpt lat="43.34677" lon="2.52595">
        <ele>309</ele>
        <time>2013-04-24T12:54:26Z</time>
      </trkpt>
      <trkpt lat="43.34671" lon="2.52587">
        <ele>308.4</ele>
        <time>2013-04-24T12:54:36Z</time>
      </trkpt>
      <trkpt lat="43.34664" lon="2.52581">
        <ele>308.9</ele>
        <time>2013-04-24T12:54:42Z</time>
      </trkpt>
      <trkpt lat="43.34657" lon="2.52574">
        <ele>308.5</ele>
        <time>2013-04-24T12:54:48Z</time>
      </trkpt>
      <trkpt lat="43.34652" lon="2.52566">
        <ele>306.9</ele>
        <time>2013-04-24T12:54:51Z</time>
      </trkpt>
      <trkpt lat="43.34645" lon="2.52559">
        <ele>306.7</ele>
        <time>2013-04-24T12:54:58Z</time>
      </trkpt>
      <trkpt lat="43.34643" lon="2.52559">
        <ele>307.2</ele>
        <time>2013-04-24T12:54:59Z</time>
      </trkpt>
      <trkpt lat="43.34629" lon="2.52553">
        <ele>309.7</ele>
        <time>2013-04-24T12:55:12Z</time>
      </trkpt>
      <trkpt lat="43.34621" lon="2.52549">
        <ele>310.9</ele>
        <time>2013-04-24T12:55:18Z</time>
      </trkpt>
      <trkpt lat="43.34613" lon="2.52545">
        <ele>311.7</ele>
        <time>2013-04-24T12:55:29Z</time>
      </trkpt>
      <trkpt lat="43.34605" lon="2.52541">
        <ele>312.5</ele>
        <time>2013-04-24T12:55:36Z</time>
      </trkpt>
      <trkpt lat="43.34597" lon="2.5254">
        <ele>315</ele>
        <time>2013-04-24T12:55:44Z</time>
      </trkpt>
      <trkpt lat="43.34589" lon="2.5254">
        <ele>317.7</ele>
        <time>2013-04-24T12:55:52Z</time>
      </trkpt>
      <trkpt lat="43.34581" lon="2.52535">
        <ele>317.8</ele>
        <time>2013-04-24T12:55:59Z</time>
      </trkpt>
      <trkpt lat="43.34581" lon="2.52535">
        <ele>317.7</ele>
        <time>2013-04-24T12:56:00Z</time>
      </trkpt>
      <trkpt lat="43.34565" lon="2.52527">
        <ele>314</ele>
        <time>2013-04-24T12:56:19Z</time>
      </trkpt>
      <trkpt lat="43.34557" lon="2.52532">
        <ele>316.1</ele>
        <time>2013-04-24T12:56:28Z</time>
      </trkpt>
      <trkpt lat="43.34549" lon="2.52531">
        <ele>315.8</ele>
        <time>2013-04-24T12:56:35Z</time>
      </trkpt>
      <trkpt lat="43.34541" lon="2.52528">
        <ele>314.3</ele>
        <time>2013-04-24T12:56:47Z</time>
      </trkpt>
      <trkpt lat="43.34533" lon="2.52526">
        <ele>313.4</ele>
        <time>2013-04-24T12:56:59Z</time>
      </trkpt>
      <trkpt lat="43.34525" lon="2.52527">
        <ele>313.8</ele>
        <time>2013-04-24T12:57:11Z</time>
      </trkpt>
      <trkpt lat="43.34524" lon="2.52527">
        <ele>314</ele>
        <time>2013-04-24T12:57:12Z</time>
      </trkpt>
      <trkpt lat="43.34509" lon="2.52535">
        <ele>317.2</ele>
        <time>2013-04-24T12:57:27Z</time>
      </trkpt>
      <trkpt lat="43.34501" lon="2.52536">
        <ele>317.9</ele>
        <time>2013-04-24T12:57:36Z</time>
      </trkpt>
      <trkpt lat="43.34493" lon="2.52533">
        <ele>316.1</ele>
        <time>2013-04-24T12:57:47Z</time>
      </trkpt>
      <trkpt lat="43.34487" lon="2.52529">
        <ele>313.8</ele>
        <time>2013-04-24T12:58:38Z</time>
      </trkpt>
      <trkpt lat="43.34483" lon="2.52535">
        <ele>316.1</ele>
        <time>2013-04-24T12:58:39Z</time>
      </trkpt>
      <trkpt lat="43.34482" lon="2.52551">
        <ele>322.7</ele>
        <time>2013-04-24T12:59:00Z</time>
      </trkpt>
      <trkpt lat="43.34484" lon="2.52542">
        <ele>319.2</ele>
        <time>2013-04-24T12:59:29Z</time>
      </trkpt>
      <trkpt lat="43.34482" lon="2.52531">
        <ele>314.1</ele>
        <time>2013-04-24T13:01:49Z</time>
      </trkpt>
      <trkpt lat="43.34482" lon="2.5253">
        <ele>313.8</ele>
        <time>2013-04-24T13:01:50Z</time>
      </trkpt>
      <trkpt lat="43.34489" lon="2.52539">
        <ele>318.4</ele>
        <time>2013-04-24T13:04:49Z</time>
      </trkpt>
      <trkpt lat="43.34478" lon="2.52537">
        <ele>316.7</ele>
        <time>2013-04-24T13:07:11Z</time>
      </trkpt>
      <trkpt lat="43.34462" lon="2.52536">
        <ele>314.8</ele>
        <time>2013-04-24T13:07:33Z</time>
      </trkpt>
      <trkpt lat="43.34453" lon="2.52533">
        <ele>313</ele>
        <time>2013-04-24T13:07:44Z</time>
      </trkpt>
      <trkpt lat="43.34447" lon="2.52525">
        <ele>309.3</ele>
        <time>2013-04-24T13:07:56Z</time>
      </trkpt>
      <trkpt lat="43.34443" lon="2.52517">
        <ele>305.8</ele>
        <time>2013-04-24T13:08:02Z</time>
      </trkpt>
      <trkpt lat="43.34435" lon="2.52516">
        <ele>304.9</ele>
        <time>2013-04-24T13:08:04Z</time>
      </trkpt>
      <trkpt lat="43.34427" lon="2.52512">
        <ele>302.9</ele>
        <time>2013-04-24T13:08:11Z</time>
      </trkpt>
      <trkpt lat="43.34426" lon="2.52511">
        <ele>302.7</ele>
        <time>2013-04-24T13:08:12Z</time>
      </trkpt>
      <trkpt lat="43.34412" lon="2.52524">
        <ele>306.2</ele>
        <time>2013-04-24T13:08:35Z</time>
      </trkpt>
      <trkpt lat="43.3441" lon="2.52535">
        <ele>310.1</ele>
        <time>2013-04-24T13:08:40Z</time>
      </trkpt>
      <trkpt lat="43.34406" lon="2.52546">
        <ele>313.4</ele>
        <time>2013-04-24T13:08:48Z</time>
      </trkpt>
      <trkpt lat="43.344" lon="2.52555">
        <ele>315.8</ele>
        <time>2013-04-24T13:08:57Z</time>
      </trkpt>
      <trkpt lat="43.34395" lon="2.52565">
        <ele>318.2</ele>
        <time>2013-04-24T13:09:30Z</time>
      </trkpt>
      <trkpt lat="43.34395" lon="2.52565">
        <ele>318.4</ele>
        <time>2013-04-24T13:09:31Z</time>
      </trkpt>
      <trkpt lat="43.34385" lon="2.52584">
        <ele>323.1</ele>
        <time>2013-04-24T13:09:55Z</time>
      </trkpt>
      <trkpt lat="43.34383" lon="2.52596">
        <ele>326.6</ele>
        <time>2013-04-24T13:10:07Z</time>
      </trkpt>
      <trkpt lat="43.34377" lon="2.52605">
        <ele>328.4</ele>
        <time>2013-04-24T13:10:14Z</time>
      </trkpt>
      <trkpt lat="43.34371" lon="2.52608">
        <ele>328.1</ele>
        <time>2013-04-24T13:10:20Z</time>
      </trkpt>
      <trkpt lat="43.34363" lon="2.52611">
        <ele>327.2</ele>
        <time>2013-04-24T13:10:27Z</time>
      </trkpt>
      <trkpt lat="43.34357" lon="2.5262">
        <ele>328.8</ele>
        <time>2013-04-24T13:10:37Z</time>
      </trkpt>
      <trkpt lat="43.34356" lon="2.52621">
        <ele>328.9</ele>
        <time>2013-04-24T13:10:38Z</time>
      </trkpt>
      <trkpt lat="43.34349" lon="2.5264">
        <ele>333.4</ele>
        <time>2013-04-24T13:10:54Z</time>
      </trkpt>
      <trkpt lat="43.34346" lon="2.52647">
        <ele>334.9</ele>
        <time>2013-04-24T13:11:01Z</time>
      </trkpt>
      <trkpt lat="43.34339" lon="2.52656">
        <ele>335.9</ele>
        <time>2013-04-24T13:11:07Z</time>
      </trkpt>
      <trkpt lat="43.34337" lon="2.52667">
        <ele>338.8</ele>
        <time>2013-04-24T13:11:19Z</time>
      </trkpt>
      <trkpt lat="43.34331" lon="2.52676">
        <ele>340</ele>
        <time>2013-04-24T13:11:35Z</time>
      </trkpt>
      <trkpt lat="43.34327" lon="2.52686">
        <ele>341.8</ele>
        <time>2013-04-24T13:11:42Z</time>
      </trkpt>
      <trkpt lat="43.34326" lon="2.52688">
        <ele>342.1</ele>
        <time>2013-04-24T13:11:43Z</time>
      </trkpt>
      <trkpt lat="43.34312" lon="2.52699">
        <ele>341.6</ele>
        <time>2013-04-24T13:11:59Z</time>
      </trkpt>
      <trkpt lat="43.34303" lon="2.52702">
        <ele>340.3</ele>
        <time>2013-04-24T13:12:06Z</time>
      </trkpt>
      <trkpt lat="43.34295" lon="2.52701">
        <ele>337.8</ele>
        <time>2013-04-24T13:12:12Z</time>
      </trkpt>
      <trkpt lat="43.34286" lon="2.52701">
        <ele>335.7</ele>
        <time>2013-04-24T13:12:20Z</time>
      </trkpt>
      <trkpt lat="43.34278" lon="2.52707">
        <ele>335.4</ele>
        <time>2013-04-24T13:12:30Z</time>
      </trkpt>
      <trkpt lat="43.3427" lon="2.52709">
        <ele>334.1</ele>
        <time>2013-04-24T13:12:38Z</time>
      </trkpt>
      <trkpt lat="43.34261" lon="2.5271">
        <ele>332.4</ele>
        <time>2013-04-24T13:12:45Z</time>
      </trkpt>
      <trkpt lat="43.3426" lon="2.52711">
        <ele>332.1</ele>
        <time>2013-04-24T13:12:46Z</time>
      </trkpt>
      <trkpt lat="43.34248" lon="2.52719">
        <ele>332.2</ele>
        <time>2013-04-24T13:12:56Z</time>
      </trkpt>
      <trkpt lat="43.3424" lon="2.52723">
        <ele>332.1</ele>
        <time>2013-04-24T13:13:02Z</time>
      </trkpt>
      <trkpt lat="43.34231" lon="2.52724">
        <ele>331.2</ele>
        <time>2013-04-24T13:13:12Z</time>
      </trkpt>
      <trkpt lat="43.34223" lon="2.52725">
        <ele>330.4</ele>
        <time>2013-04-24T13:13:22Z</time>
      </trkpt>
      <trkpt lat="43.34215" lon="2.5273">
        <ele>331</ele>
        <time>2013-04-24T13:13:31Z</time>
      </trkpt>
      <trkpt lat="43.34206" lon="2.52734">
        <ele>331.2</ele>
        <time>2013-04-24T13:13:42Z</time>
      </trkpt>
      <trkpt lat="43.34198" lon="2.52733">
        <ele>329.6</ele>
        <time>2013-04-24T13:13:48Z</time>
      </trkpt>
      <trkpt lat="43.34196" lon="2.52732">
        <ele>329</ele>
        <time>2013-04-24T13:13:49Z</time>
      </trkpt>
      <trkpt lat="43.34183" lon="2.52731">
        <ele>326.5</ele>
        <time>2013-04-24T13:13:53Z</time>
      </trkpt>
      <trkpt lat="43.34185" lon="2.52743">
        <ele>331.3</ele>
        <time>2013-04-24T13:14:04Z</time>
      </trkpt>
      <trkpt lat="43.34182" lon="2.52751">
        <ele>334.2</ele>
        <time>2013-04-24T13:15:01Z</time>
      </trkpt>
      <trkpt lat="43.34173" lon="2.52753">
        <ele>334</ele>
        <time>2013-04-24T13:15:02Z</time>
      </trkpt>
      <trkpt lat="43.3413" lon="2.52758">
        <ele>333.6</ele>
        <time>2013-04-24T13:15:26Z</time>
      </trkpt>
      <trkpt lat="43.34121" lon="2.52761">
        <ele>334.4</ele>
        <time>2013-04-24T13:15:29Z</time>
      </trkpt>
      <trkpt lat="43.34113" lon="2.52761">
        <ele>334.1</ele>
        <time>2013-04-24T13:15:34Z</time>
      </trkpt>
      <trkpt lat="43.34105" lon="2.52759">
        <ele>332.8</ele>
        <time>2013-04-24T13:15:41Z</time>
      </trkpt>
      <trkpt lat="43.34097" lon="2.52755">
        <ele>330.6</ele>
        <time>2013-04-24T13:15:48Z</time>
      </trkpt>
      <trkpt lat="43.3409" lon="2.52751">
        <ele>328.7</ele>
        <time>2013-04-24T13:15:53Z</time>
      </trkpt>
      <trkpt lat="43.34082" lon="2.52748">
        <ele>326.9</ele>
        <time>2013-04-24T13:16:00Z</time>
      </trkpt>
      <trkpt lat="43.34075" lon="2.52742">
        <ele>325.4</ele>
        <time>2013-04-24T13:16:07Z</time>
      </trkpt>
      <trkpt lat="43.34074" lon="2.52742">
        <ele>325.2</ele>
        <time>2013-04-24T13:16:08Z</time>
      </trkpt>
      <trkpt lat="43.34059" lon="2.52737">
        <ele>324.9</ele>
        <time>2013-04-24T13:16:22Z</time>
      </trkpt>
      <trkpt lat="43.34054" lon="2.52729">
        <ele>322.1</ele>
        <time>2013-04-24T13:16:30Z</time>
      </trkpt>
      <trkpt lat="43.34049" lon="2.5272">
        <ele>318.4</ele>
        <time>2013-04-24T13:16:39Z</time>
      </trkpt>
      <trkpt lat="43.34043" lon="2.52714">
        <ele>316.9</ele>
        <time>2013-04-24T13:16:45Z</time>
      </trkpt>
      <trkpt lat="43.34035" lon="2.5271">
        <ele>315.8</ele>
        <time>2013-04-24T13:16:55Z</time>
      </trkpt>
      <trkpt lat="43.34028" lon="2.52703">
        <ele>313.7</ele>
        <time>2013-04-24T13:17:52Z</time>
      </trkpt>
      <trkpt lat="43.34028" lon="2.52698">
        <ele>311.3</ele>
        <time>2013-04-24T13:17:53Z</time>
      </trkpt>
      <trkpt lat="43.3401" lon="2.52701">
        <ele>315.2</ele>
        <time>2013-04-24T13:18:37Z</time>
      </trkpt>
      <trkpt lat="43.34007" lon="2.52711">
        <ele>319.9</ele>
        <time>2013-04-24T13:18:43Z</time>
      </trkpt>
      <trkpt lat="43.34002" lon="2.52721">
        <ele>325.2</ele>
        <time>2013-04-24T13:18:47Z</time>
      </trkpt>
      <trkpt lat="43.33999" lon="2.52732">
        <ele>330.5</ele>
        <time>2013-04-24T13:18:53Z</time>
      </trkpt>
      <trkpt lat="43.33999" lon="2.52734">
        <ele>331.3</ele>
        <time>2013-04-24T13:18:54Z</time>
      </trkpt>
      <trkpt lat="43.33991" lon="2.52753">
        <ele>339.9</ele>
        <time>2013-04-24T13:19:10Z</time>
      </trkpt>
      <trkpt lat="43.33986" lon="2.52763">
        <ele>343.8</ele>
        <time>2013-04-24T13:19:19Z</time>
      </trkpt>
      <trkpt lat="43.33984" lon="2.52774">
        <ele>348.1</ele>
        <time>2013-04-24T13:19:30Z</time>
      </trkpt>
      <trkpt lat="43.33977" lon="2.52779">
        <ele>349.8</ele>
        <time>2013-04-24T13:19:42Z</time>
      </trkpt>
      <trkpt lat="43.33969" lon="2.52782">
        <ele>350.9</ele>
        <time>2013-04-24T13:19:46Z</time>
      </trkpt>
      <trkpt lat="43.33961" lon="2.52786">
        <ele>351.7</ele>
        <time>2013-04-24T13:19:55Z</time>
      </trkpt>
      <trkpt lat="43.3396" lon="2.52785">
        <ele>351.6</ele>
        <time>2013-04-24T13:19:56Z</time>
      </trkpt>
      <trkpt lat="43.33944" lon="2.52791">
        <ele>352.6</ele>
        <time>2013-04-24T13:20:11Z</time>
      </trkpt>
      <trkpt lat="43.33935" lon="2.52793">
        <ele>352.8</ele>
        <time>2013-04-24T13:20:19Z</time>
      </trkpt>
      <trkpt lat="43.33928" lon="2.52797">
        <ele>353.8</ele>
        <time>2013-04-24T13:20:24Z</time>
      </trkpt>
      <trkpt lat="43.3392" lon="2.52798">
        <ele>353.6</ele>
        <time>2013-04-24T13:20:31Z</time>
      </trkpt>
      <trkpt lat="43.33912" lon="2.52798">
        <ele>352.3</ele>
        <time>2013-04-24T13:20:36Z</time>
      </trkpt>
      <trkpt lat="43.33904" lon="2.528">
        <ele>350.9</ele>
        <time>2013-04-24T13:20:43Z</time>
      </trkpt>
      <trkpt lat="43.33896" lon="2.528">
        <ele>349.1</ele>
        <time>2013-04-24T13:20:53Z</time>
      </trkpt>
      <trkpt lat="43.33888" lon="2.52802">
        <ele>347.6</ele>
        <time>2013-04-24T13:21:01Z</time>
      </trkpt>
      <trkpt lat="43.33887" lon="2.52803">
        <ele>347.7</ele>
        <time>2013-04-24T13:21:02Z</time>
      </trkpt>
      <trkpt lat="43.3387" lon="2.52806">
        <ele>344.7</ele>
        <time>2013-04-24T13:21:18Z</time>
      </trkpt>
      <trkpt lat="43.33863" lon="2.52811">
        <ele>344.9</ele>
        <time>2013-04-24T13:21:27Z</time>
      </trkpt>
      <trkpt lat="43.33855" lon="2.52813">
        <ele>343.8</ele>
        <time>2013-04-24T13:21:34Z</time>
      </trkpt>
      <trkpt lat="43.33847" lon="2.52815">
        <ele>342.2</ele>
        <time>2013-04-24T13:21:41Z</time>
      </trkpt>
      <trkpt lat="43.33838" lon="2.52817">
        <ele>340.9</ele>
        <time>2013-04-24T13:21:49Z</time>
      </trkpt>
      <trkpt lat="43.3383" lon="2.52819">
        <ele>340.1</ele>
        <time>2013-04-24T13:22:02Z</time>
      </trkpt>
      <trkpt lat="43.33829" lon="2.52819">
        <ele>340.1</ele>
        <time>2013-04-24T13:22:03Z</time>
      </trkpt>
      <trkpt lat="43.33823" lon="2.52841">
        <ele>344.9</ele>
        <time>2013-04-24T13:22:23Z</time>
      </trkpt>
      <trkpt lat="43.33819" lon="2.52851">
        <ele>344.8</ele>
        <time>2013-04-24T13:22:31Z</time>
      </trkpt>
      <trkpt lat="43.33811" lon="2.52855">
        <ele>344</ele>
        <time>2013-04-24T13:22:38Z</time>
      </trkpt>
      <trkpt lat="43.33803" lon="2.52861">
        <ele>343.3</ele>
        <time>2013-04-24T13:22:47Z</time>
      </trkpt>
      <trkpt lat="43.33795" lon="2.52865">
        <ele>342.6</ele>
        <time>2013-04-24T13:22:54Z</time>
      </trkpt>
      <trkpt lat="43.33788" lon="2.5287">
        <ele>341.9</ele>
        <time>2013-04-24T13:23:00Z</time>
      </trkpt>
      <trkpt lat="43.33781" lon="2.52866">
        <ele>340.7</ele>
        <time>2013-04-24T13:23:09Z</time>
      </trkpt>
      <trkpt lat="43.33779" lon="2.52865">
        <ele>340.5</ele>
        <time>2013-04-24T13:23:10Z</time>
      </trkpt>
      <trkpt lat="43.33766" lon="2.52855">
        <ele>338</ele>
        <time>2013-04-24T13:23:28Z</time>
      </trkpt>
      <trkpt lat="43.33758" lon="2.52852">
        <ele>336.5</ele>
        <time>2013-04-24T13:23:37Z</time>
      </trkpt>
      <trkpt lat="43.33749" lon="2.52852">
        <ele>335.4</ele>
        <time>2013-04-24T13:23:42Z</time>
      </trkpt>
      <trkpt lat="43.33742" lon="2.52847">
        <ele>334</ele>
        <time>2013-04-24T13:23:50Z</time>
      </trkpt>
      <trkpt lat="43.33734" lon="2.52843">
        <ele>332.5</ele>
        <time>2013-04-24T13:24:06Z</time>
      </trkpt>
      <trkpt lat="43.33726" lon="2.52836">
        <ele>330.8</ele>
        <time>2013-04-24T13:24:18Z</time>
      </trkpt>
      <trkpt lat="43.33726" lon="2.52836">
        <ele>330.7</ele>
        <time>2013-04-24T13:24:19Z</time>
      </trkpt>
      <trkpt lat="43.3371" lon="2.52835">
        <ele>328.3</ele>
        <time>2013-04-24T13:24:31Z</time>
      </trkpt>
      <trkpt lat="43.33702" lon="2.52834">
        <ele>327.1</ele>
        <time>2013-04-24T13:24:39Z</time>
      </trkpt>
      <trkpt lat="43.33694" lon="2.52831">
        <ele>324.9</ele>
        <time>2013-04-24T13:24:48Z</time>
      </trkpt>
      <trkpt lat="43.33686" lon="2.5283">
        <ele>323.5</ele>
        <time>2013-04-24T13:24:56Z</time>
      </trkpt>
      <trkpt lat="43.33677" lon="2.52831">
        <ele>322.5</ele>
        <time>2013-04-24T13:25:03Z</time>
      </trkpt>
      <trkpt lat="43.33669" lon="2.52829">
        <ele>320.8</ele>
        <time>2013-04-24T13:25:11Z</time>
      </trkpt>
      <trkpt lat="43.3366" lon="2.52829">
        <ele>320.3</ele>
        <time>2013-04-24T13:25:20Z</time>
      </trkpt>
      <trkpt lat="43.3366" lon="2.52829">
        <ele>320.3</ele>
        <time>2013-04-24T13:25:21Z</time>
      </trkpt>
      <trkpt lat="43.33645" lon="2.52838">
        <ele>321.4</ele>
        <time>2013-04-24T13:25:37Z</time>
      </trkpt>
      <trkpt lat="43.33637" lon="2.52841">
        <ele>321.5</ele>
        <time>2013-04-24T13:25:43Z</time>
      </trkpt>
      <trkpt lat="43.3363" lon="2.52847">
        <ele>321.8</ele>
        <time>2013-04-24T13:25:50Z</time>
      </trkpt>
      <trkpt lat="43.33624" lon="2.52855">
        <ele>322.5</ele>
        <time>2013-04-24T13:25:57Z</time>
      </trkpt>
      <trkpt lat="43.33618" lon="2.52863">
        <ele>323.1</ele>
        <time>2013-04-24T13:26:05Z</time>
      </trkpt>
      <trkpt lat="43.33611" lon="2.5287">
        <ele>323.5</ele>
        <time>2013-04-24T13:26:12Z</time>
      </trkpt>
      <trkpt lat="43.33603" lon="2.52873">
        <ele>323.5</ele>
        <time>2013-04-24T13:26:18Z</time>
      </trkpt>
      <trkpt lat="43.33595" lon="2.52874">
        <ele>323.1</ele>
        <time>2013-04-24T13:26:25Z</time>
      </trkpt>
      <trkpt lat="43.33594" lon="2.52875">
        <ele>323</ele>
        <time>2013-04-24T13:26:26Z</time>
      </trkpt>
      <trkpt lat="43.3358" lon="2.52886">
        <ele>323.2</ele>
        <time>2013-04-24T13:26:38Z</time>
      </trkpt>
      <trkpt lat="43.33574" lon="2.52891">
        <ele>322.9</ele>
        <time>2013-04-24T13:26:43Z</time>
      </trkpt>
      <trkpt lat="43.33566" lon="2.52895">
        <ele>322.2</ele>
        <time>2013-04-24T13:26:50Z</time>
      </trkpt>
      <trkpt lat="43.33558" lon="2.529">
        <ele>321.6</ele>
        <time>2013-04-24T13:26:57Z</time>
      </trkpt>
      <trkpt lat="43.3355" lon="2.52902">
        <ele>320.7</ele>
        <time>2013-04-24T13:27:03Z</time>
      </trkpt>
      <trkpt lat="43.33542" lon="2.52904">
        <ele>319.8</ele>
        <time>2013-04-24T13:27:10Z</time>
      </trkpt>
      <trkpt lat="43.33535" lon="2.52908">
        <ele>319.2</ele>
        <time>2013-04-24T13:27:15Z</time>
      </trkpt>
      <trkpt lat="43.33527" lon="2.52911">
        <ele>318.4</ele>
        <time>2013-04-24T13:27:21Z</time>
      </trkpt>
      <trkpt lat="43.33521" lon="2.52918">
        <ele>318</ele>
        <time>2013-04-24T13:27:28Z</time>
      </trkpt>
      <trkpt lat="43.3352" lon="2.52919">
        <ele>317.9</ele>
        <time>2013-04-24T13:27:29Z</time>
      </trkpt>
      <trkpt lat="43.3351" lon="2.52935">
        <ele>316.4</ele>
        <time>2013-04-24T13:27:40Z</time>
      </trkpt>
      <trkpt lat="43.33504" lon="2.52942">
        <ele>315.5</ele>
        <time>2013-04-24T13:27:47Z</time>
      </trkpt>
      <trkpt lat="43.33496" lon="2.52946">
        <ele>314.5</ele>
        <time>2013-04-24T13:27:54Z</time>
      </trkpt>
      <trkpt lat="43.33488" lon="2.52951">
        <ele>313.5</ele>
        <time>2013-04-24T13:28:04Z</time>
      </trkpt>
      <trkpt lat="43.33482" lon="2.52943">
        <ele>312.8</ele>
        <time>2013-04-24T13:28:28Z</time>
      </trkpt>
      <trkpt lat="43.33477" lon="2.52933">
        <ele>312.2</ele>
        <time>2013-04-24T13:28:41Z</time>
      </trkpt>
      <trkpt lat="43.33477" lon="2.52932">
        <ele>312.2</ele>
        <time>2013-04-24T13:28:42Z</time>
      </trkpt>
      <trkpt lat="43.33468" lon="2.52913">
        <ele>310.9</ele>
        <time>2013-04-24T13:29:04Z</time>
      </trkpt>
      <trkpt lat="43.33464" lon="2.52903">
        <ele>309.5</ele>
        <time>2013-04-24T13:29:12Z</time>
      </trkpt>
      <trkpt lat="43.33461" lon="2.52893">
        <ele>308.2</ele>
        <time>2013-04-24T13:29:19Z</time>
      </trkpt>
      <trkpt lat="43.33458" lon="2.52881">
        <ele>307</ele>
        <time>2013-04-24T13:29:29Z</time>
      </trkpt>
      <trkpt lat="43.33461" lon="2.52871">
        <ele>306.4</ele>
        <time>2013-04-24T13:29:39Z</time>
      </trkpt>
      <trkpt lat="43.33463" lon="2.5286">
        <ele>305.7</ele>
        <time>2013-04-24T13:29:50Z</time>
      </trkpt>
      <trkpt lat="43.33462" lon="2.52858">
        <ele>305.5</ele>
        <time>2013-04-24T13:29:51Z</time>
      </trkpt>
      <trkpt lat="43.33463" lon="2.52835">
        <ele>303.7</ele>
        <time>2013-04-24T13:30:08Z</time>
      </trkpt>
      <trkpt lat="43.33465" lon="2.52824">
        <ele>302.7</ele>
        <time>2013-04-24T13:30:16Z</time>
      </trkpt>
      <trkpt lat="43.33466" lon="2.52812">
        <ele>301.5</ele>
        <time>2013-04-24T13:30:24Z</time>
      </trkpt>
      <trkpt lat="43.33464" lon="2.528">
        <ele>300</ele>
        <time>2013-04-24T13:30:36Z</time>
      </trkpt>
      <trkpt lat="43.33458" lon="2.52792">
        <ele>298.1</ele>
        <time>2013-04-24T13:30:43Z</time>
      </trkpt>
      <trkpt lat="43.33451" lon="2.52784">
        <ele>296.2</ele>
        <time>2013-04-24T13:30:52Z</time>
      </trkpt>
      <trkpt lat="43.33451" lon="2.52783">
        <ele>296</ele>
        <time>2013-04-24T13:30:53Z</time>
      </trkpt>
      <trkpt lat="43.33438" lon="2.52768">
        <ele>292.2</ele>
        <time>2013-04-24T13:31:12Z</time>
      </trkpt>
      <trkpt lat="43.33438" lon="2.52756">
        <ele>290.5</ele>
        <time>2013-04-24T13:31:19Z</time>
      </trkpt>
      <trkpt lat="43.33434" lon="2.52746">
        <ele>288.1</ele>
        <time>2013-04-24T13:31:27Z</time>
      </trkpt>
      <trkpt lat="43.33429" lon="2.52737">
        <ele>284.9</ele>
        <time>2013-04-24T13:31:36Z</time>
      </trkpt>
      <trkpt lat="43.33424" lon="2.52728">
        <ele>281.8</ele>
        <time>2013-04-24T13:31:44Z</time>
      </trkpt>
      <trkpt lat="43.33416" lon="2.52724">
        <ele>279.4</ele>
        <time>2013-04-24T13:31:52Z</time>
      </trkpt>
      <trkpt lat="43.33409" lon="2.52729">
        <ele>280.9</ele>
        <time>2013-04-24T13:31:58Z</time>
      </trkpt>
      <trkpt lat="43.33408" lon="2.5273">
        <ele>281.1</ele>
        <time>2013-04-24T13:31:59Z</time>
      </trkpt>
      <trkpt lat="43.33394" lon="2.52737">
        <ele>282.9</ele>
        <time>2013-04-24T13:32:12Z</time>
      </trkpt>
      <trkpt lat="43.33386" lon="2.52739">
        <ele>283.4</ele>
        <time>2013-04-24T13:32:20Z</time>
      </trkpt>
      <trkpt lat="43.33379" lon="2.52745">
        <ele>284.9</ele>
        <time>2013-04-24T13:32:28Z</time>
      </trkpt>
      <trkpt lat="43.3337" lon="2.52749">
        <ele>285.8</ele>
        <time>2013-04-24T13:32:34Z</time>
      </trkpt>
      <trkpt lat="43.33362" lon="2.52753">
        <ele>286.2</ele>
        <time>2013-04-24T13:32:42Z</time>
      </trkpt>
      <trkpt lat="43.33354" lon="2.52757">
        <ele>286.5</ele>
        <time>2013-04-24T13:33:02Z</time>
      </trkpt>
      <trkpt lat="43.33353" lon="2.52757">
        <ele>286.4</ele>
        <time>2013-04-24T13:33:03Z</time>
      </trkpt>
      <trkpt lat="43.33354" lon="2.52756">
        <ele>286.4</ele>
        <time>2013-04-24T13:38:10Z</time>
      </trkpt>
      <trkpt lat="43.33355" lon="2.52756">
        <ele>286.4</ele>
        <time>2013-04-24T13:38:11Z</time>
      </trkpt>
      <trkpt lat="43.33345" lon="2.52758">
        <ele>286.4</ele>
        <time>2013-04-24T13:39:24Z</time>
      </trkpt>
      <trkpt lat="43.33331" lon="2.52764">
        <ele>286.5</ele>
        <time>2013-04-24T13:39:35Z</time>
      </trkpt>
      <trkpt lat="43.33323" lon="2.52769">
        <ele>286.3</ele>
        <time>2013-04-24T13:39:42Z</time>
      </trkpt>
      <trkpt lat="43.33315" lon="2.52771">
        <ele>285.9</ele>
        <time>2013-04-24T13:39:48Z</time>
      </trkpt>
      <trkpt lat="43.33307" lon="2.5277">
        <ele>285.4</ele>
        <time>2013-04-24T13:39:54Z</time>
      </trkpt>
      <trkpt lat="43.33298" lon="2.52769">
        <ele>284.8</ele>
        <time>2013-04-24T13:40:02Z</time>
      </trkpt>
      <trkpt lat="43.3329" lon="2.52773">
        <ele>284.5</ele>
        <time>2013-04-24T13:40:09Z</time>
      </trkpt>
      <trkpt lat="43.33282" lon="2.52776">
        <ele>284</ele>
        <time>2013-04-24T13:40:18Z</time>
      </trkpt>
      <trkpt lat="43.33275" lon="2.5278">
        <ele>283.6</ele>
        <time>2013-04-24T13:40:25Z</time>
      </trkpt>
      <trkpt lat="43.33274" lon="2.52781">
        <ele>283.5</ele>
        <time>2013-04-24T13:40:26Z</time>
      </trkpt>
      <trkpt lat="43.33257" lon="2.52787">
        <ele>282.5</ele>
        <time>2013-04-24T13:40:44Z</time>
      </trkpt>
      <trkpt lat="43.3325" lon="2.52791">
        <ele>282</ele>
        <time>2013-04-24T13:40:51Z</time>
      </trkpt>
      <trkpt lat="43.33242" lon="2.52794">
        <ele>281.3</ele>
        <time>2013-04-24T13:40:59Z</time>
      </trkpt>
      <trkpt lat="43.33234" lon="2.52799">
        <ele>280.5</ele>
        <time>2013-04-24T13:41:06Z</time>
      </trkpt>
      <trkpt lat="43.33225" lon="2.528">
        <ele>279.6</ele>
        <time>2013-04-24T13:41:15Z</time>
      </trkpt>
      <trkpt lat="43.33218" lon="2.52801">
        <ele>278.8</ele>
        <time>2013-04-24T13:41:22Z</time>
      </trkpt>
      <trkpt lat="43.33209" lon="2.52799">
        <ele>278</ele>
        <time>2013-04-24T13:41:30Z</time>
      </trkpt>
      <trkpt lat="43.33207" lon="2.52798">
        <ele>277.8</ele>
        <time>2013-04-24T13:41:31Z</time>
      </trkpt>
      <trkpt lat="43.33195" lon="2.52788">
        <ele>276.8</ele>
        <time>2013-04-24T13:41:42Z</time>
      </trkpt>
      <trkpt lat="43.33188" lon="2.52784">
        <ele>276.2</ele>
        <time>2013-04-24T13:41:50Z</time>
      </trkpt>
      <trkpt lat="43.3318" lon="2.52778">
        <ele>275.6</ele>
        <time>2013-04-24T13:41:58Z</time>
      </trkpt>
      <trkpt lat="43.33174" lon="2.52771">
        <ele>275.2</ele>
        <time>2013-04-24T13:42:04Z</time>
      </trkpt>
      <trkpt lat="43.33167" lon="2.52765">
        <ele>274.7</ele>
        <time>2013-04-24T13:42:11Z</time>
      </trkpt>
      <trkpt lat="43.33159" lon="2.5276">
        <ele>273.9</ele>
        <time>2013-04-24T13:42:20Z</time>
      </trkpt>
      <trkpt lat="43.33152" lon="2.52755">
        <ele>273.1</ele>
        <time>2013-04-24T13:42:27Z</time>
      </trkpt>
      <trkpt lat="43.33144" lon="2.52752">
        <ele>272.3</ele>
        <time>2013-04-24T13:42:35Z</time>
      </trkpt>
      <trkpt lat="43.33143" lon="2.52751">
        <ele>272.2</ele>
        <time>2013-04-24T13:42:36Z</time>
      </trkpt>
      <trkpt lat="43.33129" lon="2.52741">
        <ele>270.4</ele>
        <time>2013-04-24T13:42:52Z</time>
      </trkpt>
      <trkpt lat="43.33121" lon="2.52736">
        <ele>269.4</ele>
        <time>2013-04-24T13:42:59Z</time>
      </trkpt>
      <trkpt lat="43.33112" lon="2.52734">
        <ele>268.3</ele>
        <time>2013-04-24T13:43:07Z</time>
      </trkpt>
      <trkpt lat="43.33104" lon="2.52731">
        <ele>267.2</ele>
        <time>2013-04-24T13:43:16Z</time>
      </trkpt>
      <trkpt lat="43.33096" lon="2.52727">
        <ele>266.1</ele>
        <time>2013-04-24T13:43:22Z</time>
      </trkpt>
      <trkpt lat="43.33088" lon="2.52721">
        <ele>264.9</ele>
        <time>2013-04-24T13:43:31Z</time>
      </trkpt>
      <trkpt lat="43.3308" lon="2.52717">
        <ele>263.5</ele>
        <time>2013-04-24T13:43:39Z</time>
      </trkpt>
      <trkpt lat="43.33079" lon="2.52716">
        <ele>263.3</ele>
        <time>2013-04-24T13:43:40Z</time>
      </trkpt>
      <trkpt lat="43.33066" lon="2.52705">
        <ele>260.4</ele>
        <time>2013-04-24T13:43:53Z</time>
      </trkpt>
      <trkpt lat="43.33061" lon="2.52695">
        <ele>259.2</ele>
        <time>2013-04-24T13:44:00Z</time>
      </trkpt>
      <trkpt lat="43.33059" lon="2.52685">
        <ele>258.6</ele>
        <time>2013-04-24T13:44:06Z</time>
      </trkpt>
      <trkpt lat="43.33055" lon="2.52676">
        <ele>257.6</ele>
        <time>2013-04-24T13:44:13Z</time>
      </trkpt>
      <trkpt lat="43.33048" lon="2.52669">
        <ele>256.2</ele>
        <time>2013-04-24T13:44:21Z</time>
      </trkpt>
      <trkpt lat="43.33041" lon="2.52662">
        <ele>254.6</ele>
        <time>2013-04-24T13:44:29Z</time>
      </trkpt>
      <trkpt lat="43.33034" lon="2.52656">
        <ele>252.8</ele>
        <time>2013-04-24T13:44:39Z</time>
      </trkpt>
      <trkpt lat="43.33025" lon="2.52654">
        <ele>251</ele>
        <time>2013-04-24T13:44:49Z</time>
      </trkpt>
      <trkpt lat="43.33024" lon="2.52653">
        <ele>250.7</ele>
        <time>2013-04-24T13:44:50Z</time>
      </trkpt>
      <trkpt lat="43.33008" lon="2.52655">
        <ele>247.7</ele>
        <time>2013-04-24T13:45:07Z</time>
      </trkpt>
      <trkpt lat="43.33" lon="2.52654">
        <ele>246</ele>
        <time>2013-04-24T13:45:13Z</time>
      </trkpt>
      <trkpt lat="43.32992" lon="2.52652">
        <ele>243.9</ele>
        <time>2013-04-24T13:45:21Z</time>
      </trkpt>
      <trkpt lat="43.32983" lon="2.52651">
        <ele>241.8</ele>
        <time>2013-04-24T13:45:28Z</time>
      </trkpt>
      <trkpt lat="43.32975" lon="2.52654">
        <ele>240.2</ele>
        <time>2013-04-24T13:45:35Z</time>
      </trkpt>
      <trkpt lat="43.32966" lon="2.52656">
        <ele>238.4</ele>
        <time>2013-04-24T13:45:42Z</time>
      </trkpt>
      <trkpt lat="43.32957" lon="2.52658">
        <ele>236.5</ele>
        <time>2013-04-24T13:45:50Z</time>
      </trkpt>
      <trkpt lat="43.32956" lon="2.52659">
        <ele>236.4</ele>
        <time>2013-04-24T13:45:51Z</time>
      </trkpt>
      <trkpt lat="43.32942" lon="2.52665">
        <ele>233.6</ele>
        <time>2013-04-24T13:46:03Z</time>
      </trkpt>
      <trkpt lat="43.32934" lon="2.52669">
        <ele>232</ele>
        <time>2013-04-24T13:46:11Z</time>
      </trkpt>
      <trkpt lat="43.32926" lon="2.52674">
        <ele>230.3</ele>
        <time>2013-04-24T13:46:17Z</time>
      </trkpt>
      <trkpt lat="43.32919" lon="2.5268">
        <ele>228.6</ele>
        <time>2013-04-24T13:46:24Z</time>
      </trkpt>
      <trkpt lat="43.32912" lon="2.52685">
        <ele>227.4</ele>
        <time>2013-04-24T13:46:31Z</time>
      </trkpt>
      <trkpt lat="43.32904" lon="2.5269">
        <ele>226</ele>
        <time>2013-04-24T13:46:38Z</time>
      </trkpt>
      <trkpt lat="43.32898" lon="2.52698">
        <ele>225</ele>
        <time>2013-04-24T13:46:46Z</time>
      </trkpt>
      <trkpt lat="43.32891" lon="2.52707">
        <ele>223.9</ele>
        <time>2013-04-24T13:46:54Z</time>
      </trkpt>
      <trkpt lat="43.3289" lon="2.52708">
        <ele>223.7</ele>
        <time>2013-04-24T13:46:55Z</time>
      </trkpt>
      <trkpt lat="43.32875" lon="2.52715">
        <ele>221</ele>
        <time>2013-04-24T13:47:07Z</time>
      </trkpt>
      <trkpt lat="43.32867" lon="2.52718">
        <ele>219.5</ele>
        <time>2013-04-24T13:47:13Z</time>
      </trkpt>
      <trkpt lat="43.3286" lon="2.52719">
        <ele>218.2</ele>
        <time>2013-04-24T13:47:19Z</time>
      </trkpt>
      <trkpt lat="43.32851" lon="2.52718">
        <ele>216.7</ele>
        <time>2013-04-24T13:47:25Z</time>
      </trkpt>
      <trkpt lat="43.32843" lon="2.52717">
        <ele>215.2</ele>
        <time>2013-04-24T13:47:33Z</time>
      </trkpt>
      <trkpt lat="43.32836" lon="2.52714">
        <ele>213.8</ele>
        <time>2013-04-24T13:47:41Z</time>
      </trkpt>
      <trkpt lat="43.32829" lon="2.52708">
        <ele>213</ele>
        <time>2013-04-24T13:47:47Z</time>
      </trkpt>
      <trkpt lat="43.32821" lon="2.52704">
        <ele>212.1</ele>
        <time>2013-04-24T13:47:55Z</time>
      </trkpt>
      <trkpt lat="43.3282" lon="2.52705">
        <ele>212</ele>
        <time>2013-04-24T13:47:56Z</time>
      </trkpt>
      <trkpt lat="43.32805" lon="2.52708">
        <ele>210.2</ele>
        <time>2013-04-24T13:48:15Z</time>
      </trkpt>
      <trkpt lat="43.32797" lon="2.52713">
        <ele>209.4</ele>
        <time>2013-04-24T13:48:23Z</time>
      </trkpt>
      <trkpt lat="43.3279" lon="2.52709">
        <ele>208.6</ele>
        <time>2013-04-24T13:48:29Z</time>
      </trkpt>
      <trkpt lat="43.32784" lon="2.52701">
        <ele>207.8</ele>
        <time>2013-04-24T13:48:42Z</time>
      </trkpt>
      <trkpt lat="43.32782" lon="2.52689">
        <ele>207.5</ele>
        <time>2013-04-24T13:48:55Z</time>
      </trkpt>
      <trkpt lat="43.32785" lon="2.52677">
        <ele>207.7</ele>
        <time>2013-04-24T13:49:07Z</time>
      </trkpt>
      <trkpt lat="43.32785" lon="2.52677">
        <ele>207.7</ele>
        <time>2013-04-24T13:49:08Z</time>
      </trkpt>
      <trkpt lat="43.3278" lon="2.52657">
        <ele>206.2</ele>
        <time>2013-04-24T13:49:22Z</time>
      </trkpt>
      <trkpt lat="43.32777" lon="2.52647">
        <ele>205</ele>
        <time>2013-04-24T13:49:26Z</time>
      </trkpt>
      <trkpt lat="43.32771" lon="2.52638">
        <ele>203.5</ele>
        <time>2013-04-24T13:49:31Z</time>
      </trkpt>
      <trkpt lat="43.32766" lon="2.5263">
        <ele>202.2</ele>
        <time>2013-04-24T13:49:37Z</time>
      </trkpt>
      <trkpt lat="43.32762" lon="2.5262">
        <ele>200.8</ele>
        <time>2013-04-24T13:49:44Z</time>
      </trkpt>
      <trkpt lat="43.32757" lon="2.52611">
        <ele>199.2</ele>
        <time>2013-04-24T13:49:54Z</time>
      </trkpt>
      <trkpt lat="43.32754" lon="2.52599">
        <ele>197.9</ele>
        <time>2013-04-24T13:50:09Z</time>
      </trkpt>
      <trkpt lat="43.32753" lon="2.52599">
        <ele>197.8</ele>
        <time>2013-04-24T13:50:10Z</time>
      </trkpt>
      <trkpt lat="43.32743" lon="2.52583">
        <ele>195.7</ele>
        <time>2013-04-24T13:50:22Z</time>
      </trkpt>
      <trkpt lat="43.32737" lon="2.52576">
        <ele>195</ele>
        <time>2013-04-24T13:50:27Z</time>
      </trkpt>
      <trkpt lat="43.3274" lon="2.52564">
        <ele>194.3</ele>
        <time>2013-04-24T13:50:34Z</time>
      </trkpt>
      <trkpt lat="43.32746" lon="2.52558">
        <ele>194</ele>
        <time>2013-04-24T13:50:38Z</time>
      </trkpt>
      <trkpt lat="43.32748" lon="2.52547">
        <ele>193.3</ele>
        <time>2013-04-24T13:50:43Z</time>
      </trkpt>
      <trkpt lat="43.32745" lon="2.52537">
        <ele>192.5</ele>
        <time>2013-04-24T13:50:54Z</time>
      </trkpt>
      <trkpt lat="43.32743" lon="2.52527">
        <ele>191.7</ele>
        <time>2013-04-24T13:51:02Z</time>
      </trkpt>
      <trkpt lat="43.32739" lon="2.52516">
        <ele>190.9</ele>
        <time>2013-04-24T13:51:09Z</time>
      </trkpt>
      <trkpt lat="43.32733" lon="2.52508">
        <ele>190.3</ele>
        <time>2013-04-24T13:51:24Z</time>
      </trkpt>
      <trkpt lat="43.32732" lon="2.52508">
        <ele>190.3</ele>
        <time>2013-04-24T13:51:25Z</time>
      </trkpt>
      <trkpt lat="43.32717" lon="2.52513">
        <ele>190.4</ele>
        <time>2013-04-24T13:51:37Z</time>
      </trkpt>
      <trkpt lat="43.3271" lon="2.52518">
        <ele>190.6</ele>
        <time>2013-04-24T13:51:42Z</time>
      </trkpt>
      <trkpt lat="43.32703" lon="2.52523">
        <ele>190.7</ele>
        <time>2013-04-24T13:51:47Z</time>
      </trkpt>
      <trkpt lat="43.32695" lon="2.52527">
        <ele>190.8</ele>
        <time>2013-04-24T13:51:55Z</time>
      </trkpt>
      <trkpt lat="43.3269" lon="2.52526">
        <ele>190.7</ele>
        <time>2013-04-24T13:52:09Z</time>
      </trkpt>
      <trkpt lat="43.3269" lon="2.52526">
        <ele>190.7</ele>
        <time>2013-04-24T13:52:10Z</time>
      </trkpt>
      <trkpt lat="43.3269" lon="2.52526">
        <ele>190.7</ele>
        <time>2013-04-24T13:52:10Z</time>
      </trkpt>
      <trkpt lat="43.3269" lon="2.52526">
        <ele>190.7</ele>
        <time>2013-04-24T13:52:16Z</time>
      </trkpt>
    </trkseg>
  </trk>
</gpx>